GFSGL_prec_precacc12_063.txt.gz
Total_Precipitation_Accumulation
0.04 0.06 0.18 0.23 0.36 0.53 0.44 0.74 0.42 0.25 0.16 0.10 0.05 0.06 0.08 0.09 0.12 0.14 0.12 0.09 0.08 0.05 0.03 0.01 0.00 0.00 0.00 0.00 0.00 0.00 0.00 0.00 0.00 0.00 0.00 0.00 0.00 0.00 0.00 0.00 0.00 0.00 0.00
0.24 0.67 0.58 0.72 0.68 0.65 0.74 0.65 0.24 0.09 0.10 0.05 0.03 0.05 0.08 0.11 0.10 0.06 0.07 0.06 0.04 0.02 0.01 0.00 0.00 0.00 0.00 0.00 0.00 0.00 0.00 0.00 0.00 0.00 0.00 0.00 0.00 0.00 0.00 0.00 0.00 0.00 0.00
0.62 0.49 0.44 0.62 0.33 0.28 0.17 0.12 0.07 0.05 0.04 0.04 0.03 0.02 0.03 0.05 0.09 0.12 0.10 0.06 0.02 0.01 0.00 0.00 0.00 0.00 0.00 0.00 0.00 0.00 0.00 0.00 0.00 0.00 0.00 0.00 0.00 0.00 0.00 0.00 0.00 0.00 0.00
0.28 0.26 0.18 0.15 0.12 0.06 0.06 0.05 0.04 0.02 0.02 0.01 0.01 0.02 0.04 0.08 0.10 0.07 0.04 0.01 0.00 0.00 0.00 0.00 0.00 0.00 0.00 0.00 0.00 0.00 0.00 0.00 0.00 0.01 0.01 0.00 0.00 0.00 0.00 0.00 0.01 0.01 0.00
0.12 0.09 0.08 0.04 0.06 0.04 0.03 0.02 0.02 0.00 0.01 0.00 0.01 0.02 0.04 0.04 0.04 0.03 0.01 0.00 0.00 0.00 0.00 0.00 0.00 0.00 0.00 0.00 0.00 0.00 0.00 0.00 0.01 0.01 0.01 0.01 0.00 0.00 0.01 0.01 0.02 0.01 0.01
0.12 0.08 0.04 0.02 0.01 0.02 0.01 0.00 0.00 0.00 0.00 0.00 0.01 0.02 0.03 0.03 0.03 0.01 0.00 0.00 0.00 0.00 0.00 0.00 0.00 0.00 0.00 0.00 0.00 0.00 0.00 0.00 0.01 0.02 0.02 0.03 0.02 0.03 0.04 0.04 0.03 0.04 0.05
0.05 0.02 0.00 0.01 0.01 0.01 0.00 0.00 0.00 0.00 0.01 0.01 0.02 0.02 0.01 0.00 0.01 0.00 0.00 0.00 0.00 0.00 0.00 0.00 0.00 0.00 0.00 0.00 0.00 0.00 0.00 0.00 0.00 0.02 0.04 0.03 0.05 0.06 0.09 0.07 0.06 0.08 0.07
0.00 0.00 0.00 0.01 0.00 0.00 0.00 0.01 0.02 0.02 0.01 0.01 0.00 0.00 0.00 0.00 0.00 0.00 0.00 0.00 0.00 0.00 0.00 0.00 0.00 0.00 0.00 0.00 0.00 0.01 0.01 0.01 0.02 0.02 0.02 0.01 0.03 0.03 0.05 0.04 0.03 0.02 0.02
0.00 0.00 0.00 0.00 0.00 0.00 0.00 0.00 0.00 0.00 0.00 0.00 0.00 0.00 0.00 0.00 0.00 0.00 0.00 0.00 0.00 0.00 0.00 0.00 0.00 0.00 0.00 0.00 0.00 0.01 0.02 0.02 0.03 0.04 0.03 0.04 0.03 0.02 0.02 0.03 0.03 0.03 0.02
0.00 0.00 0.00 0.00 0.00 0.00 0.00 0.00 0.00 0.00 0.00 0.00 0.00 0.00 0.00 0.00 0.00 0.00 0.00 0.00 0.00 0.00 0.00 0.00 0.00 0.00 0.00 0.00 0.01 0.02 0.03 0.02 0.05 0.06 0.05 0.04 0.03 0.02 0.02 0.02 0.03 0.08 0.06
0.00 0.00 0.00 0.00 0.00 0.00 0.00 0.00 0.00 0.00 0.00 0.00 0.00 0.00 0.00 0.00 0.00 0.00 0.00 0.00 0.00 0.00 0.00 0.00 0.00 0.00 0.00 0.00 0.01 0.02 0.02 0.03 0.07 0.06 0.07 0.08 0.05 0.02 0.01 0.01 0.02 0.04 0.05
0.00 0.00 0.00 0.00 0.00 0.00 0.00 0.00 0.00 0.00 0.00 0.00 0.00 0.00 0.00 0.00 0.00 0.00 0.00 0.00 0.00 0.00 0.00 0.00 0.01 0.00 0.00 0.00 0.01 0.01 0.01 0.03 0.10 0.12 0.09 0.07 0.06 0.06 0.03 0.01 0.00 0.00 0.01
0.00 0.00 0.00 0.00 0.00 0.00 0.00 0.00 0.00 0.00 0.00 0.00 0.00 0.00 0.00 0.00 0.00 0.00 0.00 0.00 0.00 0.00 0.00 0.00 0.00 0.01 0.02 0.03 0.03 0.04 0.05 0.09 0.11 0.12 0.09 0.05 0.04 0.04 0.05 0.07 0.06 0.04 0.04
0.00 0.00 0.00 0.00 0.00 0.00 0.00 0.00 0.00 0.00 0.00 0.00 0.00 0.00 0.00 0.00 0.00 0.00 0.00 0.00 0.00 0.01 0.01 0.01 0.00 0.01 0.02 0.05 0.06 0.06 0.07 0.10 0.13 0.14 0.12 0.10 0.11 0.15 0.16 0.11 0.09 0.03 0.01
0.00 0.00 0.00 0.00 0.00 0.00 0.00 0.00 0.00 0.00 0.00 0.00 0.00 0.00 0.00 0.00 0.00 0.00 0.00 0.00 0.01 0.01 0.01 0.02 0.03 0.03 0.04 0.05 0.06 0.06 0.06 0.06 0.08 0.09 0.11 0.14 0.15 0.16 0.14 0.14 0.11 0.03 0.03
0.00 0.00 0.00 0.00 0.00 0.00 0.00 0.00 0.00 0.00 0.00 0.00 0.00 0.00 0.00 0.00 0.00 0.00 0.00 0.00 0.00 0.00 0.01 0.03 0.05 0.07 0.08 0.09 0.12 0.12 0.10 0.10 0.12 0.17 0.21 0.19 0.20 0.20 0.16 0.09 0.06 0.03 0.01
0.00 0.00 0.00 0.00 0.00 0.00 0.00 0.00 0.00 0.00 0.00 0.00 0.00 0.00 0.00 0.00 0.00 0.00 0.00 0.00 0.00 0.00 0.02 0.03 0.04 0.06 0.08 0.09 0.12 0.14 0.15 0.13 0.11 0.12 0.12 0.11 0.11 0.10 0.08 0.09 0.08 0.04 0.02
0.00 0.00 0.00 0.00 0.00 0.00 0.00 0.00 0.00 0.00 0.00 0.00 0.00 0.00 0.00 0.00 0.00 0.00 0.00 0.00 0.00 0.00 0.01 0.02 0.04 0.05 0.05 0.05 0.06 0.06 0.07 0.08 0.09 0.09 0.10 0.09 0.10 0.10 0.10 0.07 0.06 0.05 0.02
0.00 0.00 0.00 0.00 0.00 0.00 0.00 0.01 0.01 0.00 0.00 0.00 0.00 0.00 0.00 0.00 0.00 0.00 0.00 0.00 0.00 0.00 0.00 0.00 0.01 0.02 0.02 0.02 0.03 0.04 0.04 0.06 0.08 0.11 0.11 0.11 0.12 0.13 0.13 0.11 0.11 0.09 0.05
0.01 0.01 0.01 0.01 0.02 0.03 0.03 0.02 0.01 0.00 0.00 0.00 0.00 0.00 0.00 0.00 0.00 0.00 0.00 0.00 0.01 0.00 0.00 0.01 0.01 0.02 0.03 0.04 0.06 0.07 0.08 0.08 0.09 0.10 0.11 0.12 0.15 0.17 0.18 0.16 0.15 0.15 0.10
0.08 0.09 0.09 0.07 0.06 0.04 0.02 0.01 0.00 0.00 0.00 0.00 0.00 0.00 0.00 0.00 0.00 0.00 0.00 0.00 0.01 0.01 0.01 0.01 0.01 0.02 0.02 0.03 0.05 0.06 0.08 0.09 0.10 0.11 0.11 0.13 0.15 0.14 0.13 0.14 0.10 0.07 0.06
0.18 0.14 0.10 0.06 0.03 0.02 0.01 0.00 0.00 0.00 0.00 0.00 0.00 0.00 0.00 0.00 0.00 0.00 0.00 0.00 0.01 0.01 0.01 0.01 0.01 0.01 0.03 0.05 0.06 0.06 0.07 0.09 0.11 0.12 0.11 0.11 0.11 0.10 0.11 0.11 0.11 0.11 0.09
0.12 0.08 0.04 0.02 0.01 0.01 0.00 0.00 0.00 0.00 0.00 0.00 0.00 0.00 0.00 0.00 0.00 0.00 0.00 0.01 0.00 0.01 0.01 0.01 0.01 0.01 0.01 0.03 0.05 0.06 0.06 0.06 0.08 0.11 0.13 0.13 0.12 0.12 0.13 0.13 0.12 0.12 0.10
0.03 0.02 0.01 0.01 0.00 0.00 0.00 0.00 0.00 0.00 0.00 0.00 0.00 0.00 0.00 0.00 0.01 0.01 0.01 0.01 0.01 0.00 0.01 0.01 0.01 0.01 0.01 0.02 0.03 0.03 0.03 0.03 0.04 0.07 0.11 0.11 0.09 0.10 0.13 0.12 0.11 0.10 0.08
0.02 0.01 0.00 0.00 0.00 0.00 0.00 0.00 0.00 0.00 0.00 0.00 0.01 0.01 0.00 0.01 0.01 0.01 0.01 0.01 0.01 0.01 0.01 0.00 0.01 0.01 0.01 0.01 0.01 0.02 0.03 0.05 0.05 0.06 0.09 0.09 0.09 0.10 0.10 0.10 0.09 0.11 0.10
0.01 0.00 0.00 0.00 0.00 0.00 0.00 0.00 0.00 0.00 0.00 0.00 0.01 0.01 0.01 0.01 0.00 0.01 0.01 0.01 0.01 0.01 0.01 0.01 0.00 0.00 0.01 0.01 0.01 0.02 0.02 0.02 0.04 0.08 0.13 0.10 0.08 0.10 0.11 0.12 0.11 0.12 0.09

GFSGL_prec_precacc12_066.txt.gz
Total_Precipitation_Accumulation
0.04 0.06 0.17 0.20 0.35 0.66 0.61 0.95 0.74 0.52 0.28 0.10 0.10 0.15 0.11 0.08 0.08 0.09 0.11 0.07 0.06 0.06 0.03 0.02 0.01 0.01 0.00 0.00 0.00 0.00 0.00 0.00 0.00 0.00 0.00 0.00 0.00 0.00 0.00 0.00 0.00 0.00 0.00
0.39 0.78 0.65 0.78 0.94 0.88 1.17 1.72 0.92 0.31 0.19 0.11 0.13 0.09 0.08 0.08 0.08 0.04 0.03 0.04 0.05 0.04 0.03 0.02 0.01 0.01 0.00 0.00 0.00 0.00 0.00 0.00 0.00 0.00 0.00 0.00 0.00 0.00 0.00 0.00 0.00 0.00 0.00
0.71 0.73 0.80 1.25 0.76 0.36 0.25 0.23 0.14 0.11 0.08 0.06 0.04 0.03 0.02 0.02 0.03 0.06 0.08 0.07 0.05 0.03 0.01 0.00 0.00 0.00 0.00 0.00 0.00 0.00 0.00 0.00 0.00 0.01 0.00 0.00 0.00 0.00 0.00 0.00 0.00 0.00 0.00
0.44 0.49 0.45 0.44 0.44 0.18 0.14 0.09 0.06 0.05 0.04 0.03 0.02 0.02 0.03 0.05 0.05 0.05 0.04 0.01 0.00 0.00 0.00 0.00 0.00 0.00 0.00 0.00 0.00 0.00 0.00 0.00 0.00 0.01 0.01 0.00 0.00 0.00 0.00 0.00 0.01 0.01 0.01
0.12 0.12 0.12 0.11 0.13 0.11 0.10 0.05 0.03 0.02 0.02 0.01 0.01 0.01 0.01 0.02 0.04 0.03 0.01 0.00 0.00 0.00 0.00 0.00 0.00 0.00 0.00 0.00 0.00 0.00 0.00 0.00 0.01 0.01 0.01 0.01 0.00 0.00 0.01 0.01 0.03 0.02 0.02
0.15 0.10 0.06 0.05 0.07 0.07 0.05 0.03 0.01 0.01 0.01 0.00 0.01 0.01 0.01 0.01 0.03 0.01 0.00 0.00 0.00 0.00 0.00 0.00 0.00 0.00 0.00 0.00 0.00 0.00 0.00 0.00 0.01 0.02 0.02 0.03 0.02 0.03 0.04 0.05 0.04 0.05 0.06
0.07 0.04 0.03 0.04 0.04 0.03 0.02 0.01 0.00 0.00 0.00 0.00 0.00 0.00 0.00 0.00 0.00 0.00 0.00 0.00 0.00 0.00 0.00 0.00 0.00 0.00 0.00 0.00 0.00 0.00 0.00 0.00 0.00 0.02 0.03 0.03 0.05 0.06 0.09 0.07 0.07 0.09 0.08
0.01 0.01 0.01 0.03 0.02 0.01 0.00 0.00 0.00 0.00 0.00 0.00 0.00 0.00 0.00 0.00 0.00 0.00 0.00 0.00 0.00 0.00 0.00 0.00 0.00 0.00 0.00 0.00 0.00 0.00 0.01 0.01 0.02 0.02 0.02 0.01 0.03 0.03 0.05 0.05 0.03 0.03 0.03
0.00 0.00 0.01 0.01 0.01 0.00 0.00 0.00 0.00 0.00 0.00 0.00 0.00 0.00 0.00 0.00 0.00 0.00 0.00 0.00 0.00 0.00 0.00 0.00 0.00 0.00 0.00 0.00 0.00 0.01 0.01 0.01 0.03 0.04 0.03 0.04 0.03 0.02 0.02 0.03 0.03 0.04 0.03
0.00 0.00 0.00 0.00 0.00 0.00 0.00 0.00 0.00 0.00 0.00 0.00 0.00 0.00 0.00 0.00 0.00 0.00 0.00 0.00 0.00 0.00 0.00 0.00 0.00 0.00 0.00 0.00 0.00 0.02 0.02 0.01 0.04 0.05 0.05 0.04 0.03 0.02 0.02 0.03 0.04 0.10 0.09
0.00 0.00 0.00 0.00 0.00 0.00 0.00 0.00 0.00 0.00 0.00 0.00 0.00 0.00 0.00 0.00 0.00 0.00 0.00 0.00 0.00 0.00 0.00 0.00 0.00 0.00 0.00 0.00 0.00 0.02 0.02 0.02 0.05 0.05 0.06 0.08 0.05 0.02 0.01 0.01 0.02 0.05 0.09
0.00 0.00 0.00 0.00 0.00 0.00 0.00 0.00 0.00 0.00 0.00 0.00 0.00 0.00 0.00 0.00 0.00 0.00 0.00 0.00 0.00 0.00 0.00 0.00 0.00 0.00 0.00 0.00 0.00 0.00 0.01 0.01 0.04 0.07 0.07 0.06 0.06 0.06 0.03 0.01 0.01 0.00 0.01
0.00 0.00 0.00 0.00 0.00 0.00 0.00 0.00 0.00 0.00 0.00 0.00 0.00 0.00 0.00 0.00 0.00 0.00 0.00 0.00 0.00 0.00 0.00 0.00 0.00 0.00 0.00 0.00 0.00 0.01 0.04 0.06 0.08 0.08 0.07 0.04 0.04 0.05 0.06 0.08 0.07 0.04 0.05
0.00 0.00 0.00 0.00 0.00 0.00 0.00 0.00 0.00 0.00 0.00 0.00 0.00 0.00 0.00 0.00 0.00 0.00 0.00 0.00 0.00 0.00 0.00 0.00 0.00 0.00 0.00 0.01 0.01 0.01 0.02 0.05 0.10 0.12 0.11 0.09 0.10 0.15 0.16 0.11 0.11 0.09 0.08
0.00 0.00 0.00 0.00 0.00 0.00 0.00 0.00 0.00 0.00 0.00 0.00 0.00 0.00 0.00 0.00 0.00 0.00 0.00 0.00 0.00 0.00 0.00 0.01 0.01 0.02 0.02 0.03 0.03 0.03 0.03 0.04 0.07 0.07 0.09 0.10 0.12 0.15 0.16 0.22 0.23 0.14 0.06
0.00 0.00 0.00 0.00 0.00 0.00 0.00 0.00 0.00 0.00 0.00 0.00 0.00 0.00 0.00 0.00 0.00 0.00 0.00 0.00 0.00 0.00 0.00 0.01 0.01 0.03 0.03 0.03 0.04 0.05 0.06 0.09 0.11 0.16 0.18 0.17 0.18 0.19 0.16 0.13 0.10 0.06 0.02
0.00 0.00 0.00 0.00 0.00 0.00 0.00 0.00 0.00 0.00 0.00 0.00 0.00 0.00 0.00 0.01 0.00 0.00 0.00 0.00 0.00 0.00 0.00 0.00 0.01 0.01 0.01 0.02 0.06 0.08 0.12 0.12 0.11 0.10 0.09 0.08 0.08 0.08 0.08 0.09 0.08 0.06 0.04
0.00 0.00 0.00 0.00 0.00 0.00 0.00 0.01 0.00 0.00 0.00 0.01 0.01 0.00 0.00 0.00 0.00 0.00 0.00 0.00 0.00 0.00 0.00 0.00 0.00 0.00 0.00 0.00 0.01 0.03 0.06 0.07 0.08 0.08 0.07 0.06 0.08 0.09 0.09 0.07 0.07 0.07 0.03
0.00 0.00 0.01 0.02 0.02 0.01 0.01 0.01 0.02 0.03 0.03 0.03 0.01 0.00 0.00 0.00 0.00 0.00 0.00 0.00 0.00 0.00 0.00 0.00 0.00 0.00 0.01 0.01 0.01 0.02 0.02 0.03 0.04 0.06 0.08 0.08 0.09 0.11 0.12 0.11 0.12 0.10 0.10
0.04 0.05 0.04 0.04 0.06 0.08 0.09 0.08 0.06 0.04 0.02 0.01 0.00 0.00 0.00 0.00 0.00 0.00 0.00 0.00 0.00 0.00 0.00 0.00 0.00 0.00 0.01 0.01 0.02 0.03 0.02 0.02 0.04 0.07 0.09 0.10 0.12 0.15 0.18 0.17 0.17 0.18 0.13
0.14 0.16 0.17 0.18 0.18 0.16 0.12 0.09 0.05 0.04 0.03 0.03 0.02 0.01 0.00 0.00 0.00 0.00 0.00 0.00 0.00 0.00 0.00 0.01 0.01 0.01 0.01 0.01 0.02 0.02 0.02 0.03 0.06 0.09 0.09 0.08 0.10 0.12 0.13 0.15 0.14 0.11 0.09
0.29 0.26 0.22 0.18 0.15 0.12 0.09 0.06 0.05 0.05 0.03 0.02 0.01 0.00 0.00 0.00 0.00 0.00 0.00 0.00 0.00 0.00 0.00 0.01 0.01 0.01 0.01 0.01 0.02 0.03 0.04 0.05 0.07 0.07 0.06 0.06 0.07 0.09 0.11 0.11 0.12 0.13 0.11
0.19 0.14 0.11 0.08 0.07 0.07 0.05 0.03 0.02 0.01 0.01 0.00 0.00 0.00 0.01 0.01 0.01 0.01 0.00 0.01 0.00 0.00 0.00 0.01 0.01 0.01 0.00 0.01 0.02 0.03 0.04 0.04 0.05 0.07 0.07 0.06 0.07 0.10 0.12 0.13 0.13 0.12 0.11
0.08 0.07 0.06 0.06 0.05 0.03 0.02 0.02 0.01 0.01 0.01 0.01 0.01 0.01 0.01 0.01 0.01 0.01 0.01 0.01 0.00 0.00 0.00 0.01 0.01 0.00 0.01 0.01 0.01 0.01 0.02 0.02 0.03 0.05 0.07 0.06 0.05 0.07 0.12 0.12 0.11 0.12 0.09
0.04 0.03 0.02 0.02 0.02 0.02 0.02 0.02 0.01 0.01 0.01 0.01 0.01 0.01 0.01 0.01 0.01 0.01 0.00 0.00 0.00 0.01 0.01 0.00 0.01 0.01 0.01 0.00 0.00 0.01 0.02 0.04 0.04 0.04 0.05 0.05 0.04 0.06 0.09 0.11 0.10 0.12 0.11
0.03 0.02 0.02 0.01 0.01 0.00 0.01 0.01 0.01 0.01 0.01 0.01 0.01 0.01 0.01 0.01 0.00 0.00 0.00 0.00 0.01 0.00 0.00 0.00 0.00 0.00 0.00 0.01 0.01 0.01 0.01 0.02 0.03 0.05 0.10 0.06 0.05 0.06 0.09 0.11 0.10 0.12 0.09

GFSGL_prec_precacc12_069.txt.gz
Total_Precipitation_Accumulation
0.04 0.05 0.13 0.14 0.33 0.66 0.61 0.94 0.79 0.80 0.88 0.72 0.43 0.33 0.13 0.13 0.11 0.08 0.07 0.05 0.02 0.04 0.04 0.03 0.01 0.01 0.00 0.00 0.00 0.00 0.00 0.00 0.00 0.00 0.00 0.00 0.00 0.00 0.00 0.00 0.00 0.00 0.00
0.42 0.79 0.65 0.76 0.92 0.87 1.20 1.81 1.24 0.91 0.65 0.42 0.23 0.11 0.09 0.07 0.05 0.02 0.02 0.02 0.03 0.03 0.03 0.03 0.02 0.02 0.01 0.02 0.01 0.00 0.00 0.00 0.00 0.00 0.00 0.00 0.00 0.00 0.00 0.00 0.00 0.00 0.00
0.81 0.77 0.82 1.28 0.78 0.43 0.32 0.29 0.27 0.20 0.11 0.05 0.04 0.05 0.05 0.04 0.04 0.06 0.07 0.05 0.05 0.03 0.03 0.03 0.03 0.02 0.01 0.00 0.00 0.00 0.00 0.00 0.00 0.01 0.00 0.00 0.00 0.00 0.00 0.00 0.00 0.00 0.00
0.52 0.53 0.49 0.44 0.47 0.30 0.26 0.19 0.11 0.09 0.10 0.05 0.05 0.05 0.04 0.04 0.05 0.05 0.04 0.02 0.01 0.01 0.00 0.00 0.00 0.00 0.00 0.00 0.00 0.00 0.00 0.00 0.00 0.01 0.01 0.00 0.00 0.00 0.00 0.00 0.01 0.01 0.01
0.16 0.15 0.13 0.12 0.14 0.13 0.13 0.07 0.04 0.03 0.03 0.04 0.05 0.04 0.03 0.03 0.03 0.02 0.01 0.01 0.01 0.01 0.01 0.01 0.00 0.00 0.00 0.00 0.00 0.00 0.00 0.00 0.00 0.00 0.00 0.00 0.00 0.00 0.00 0.01 0.02 0.02 0.02
0.10 0.11 0.09 0.06 0.07 0.08 0.07 0.07 0.03 0.03 0.04 0.03 0.04 0.04 0.02 0.02 0.06 0.03 0.01 0.00 0.00 0.00 0.00 0.00 0.00 0.00 0.00 0.00 0.00 0.00 0.00 0.00 0.00 0.00 0.00 0.01 0.01 0.02 0.04 0.04 0.04 0.05 0.06
0.08 0.06 0.06 0.08 0.06 0.04 0.04 0.03 0.02 0.02 0.03 0.03 0.03 0.02 0.01 0.01 0.02 0.01 0.00 0.00 0.00 0.00 0.00 0.00 0.00 0.00 0.00 0.00 0.00 0.00 0.00 0.00 0.00 0.01 0.01 0.01 0.02 0.04 0.08 0.07 0.07 0.09 0.08
0.03 0.03 0.04 0.06 0.05 0.03 0.02 0.01 0.01 0.02 0.03 0.02 0.02 0.01 0.01 0.01 0.01 0.00 0.00 0.00 0.00 0.00 0.00 0.00 0.00 0.00 0.00 0.00 0.00 0.00 0.00 0.00 0.00 0.01 0.02 0.01 0.02 0.02 0.05 0.05 0.04 0.04 0.03
0.02 0.02 0.02 0.02 0.02 0.02 0.03 0.03 0.02 0.02 0.03 0.02 0.02 0.00 0.00 0.00 0.00 0.00 0.00 0.00 0.00 0.00 0.00 0.00 0.00 0.00 0.00 0.00 0.00 0.00 0.00 0.00 0.00 0.00 0.02 0.03 0.03 0.02 0.02 0.03 0.04 0.04 0.04
0.01 0.01 0.00 0.00 0.01 0.02 0.02 0.01 0.01 0.01 0.02 0.01 0.00 0.00 0.00 0.00 0.00 0.00 0.00 0.00 0.00 0.00 0.00 0.00 0.00 0.00 0.00 0.00 0.00 0.00 0.00 0.00 0.00 0.01 0.02 0.02 0.03 0.02 0.02 0.03 0.05 0.13 0.10
0.00 0.00 0.00 0.00 0.00 0.00 0.01 0.01 0.01 0.01 0.00 0.00 0.00 0.00 0.00 0.00 0.00 0.00 0.00 0.00 0.00 0.00 0.00 0.00 0.00 0.00 0.00 0.00 0.00 0.00 0.00 0.00 0.00 0.00 0.02 0.04 0.05 0.02 0.01 0.01 0.02 0.09 0.13
0.00 0.00 0.00 0.00 0.00 0.01 0.01 0.00 0.00 0.00 0.00 0.00 0.00 0.00 0.00 0.00 0.00 0.00 0.00 0.00 0.00 0.00 0.00 0.00 0.00 0.00 0.00 0.00 0.00 0.00 0.00 0.00 0.00 0.00 0.01 0.01 0.03 0.05 0.03 0.01 0.01 0.01 0.02
0.00 0.00 0.00 0.00 0.00 0.00 0.00 0.00 0.00 0.00 0.00 0.00 0.00 0.00 0.00 0.00 0.00 0.00 0.00 0.00 0.00 0.00 0.00 0.00 0.00 0.00 0.00 0.00 0.00 0.00 0.00 0.00 0.01 0.02 0.03 0.02 0.03 0.04 0.05 0.07 0.07 0.04 0.05
0.00 0.00 0.00 0.00 0.00 0.00 0.00 0.00 0.00 0.00 0.00 0.00 0.00 0.00 0.00 0.00 0.00 0.00 0.00 0.00 0.00 0.00 0.00 0.00 0.00 0.00 0.00 0.00 0.00 0.00 0.01 0.01 0.03 0.05 0.05 0.06 0.08 0.11 0.15 0.11 0.11 0.10 0.10
0.00 0.00 0.00 0.00 0.00 0.00 0.00 0.00 0.00 0.00 0.00 0.00 0.00 0.00 0.00 0.00 0.00 0.00 0.00 0.00 0.00 0.00 0.00 0.00 0.00 0.00 0.00 0.00 0.00 0.00 0.01 0.02 0.03 0.04 0.05 0.08 0.09 0.12 0.14 0.21 0.22 0.16 0.10
0.00 0.00 0.00 0.00 0.00 0.00 0.00 0.00 0.00 0.00 0.00 0.00 0.00 0.00 0.00 0.00 0.00 0.00 0.00 0.00 0.00 0.00 0.00 0.00 0.00 0.00 0.00 0.00 0.00 0.00 0.01 0.03 0.04 0.09 0.16 0.15 0.16 0.16 0.15 0.11 0.09 0.06 0.04
0.00 0.00 0.00 0.00 0.00 0.00 0.00 0.00 0.00 0.00 0.00 0.00 0.00 0.00 0.00 0.01 0.01 0.00 0.00 0.00 0.00 0.00 0.00 0.00 0.00 0.00 0.00 0.00 0.00 0.00 0.01 0.03 0.09 0.09 0.07 0.06 0.05 0.04 0.04 0.06 0.06 0.05 0.04
0.00 0.00 0.00 0.00 0.00 0.00 0.00 0.01 0.01 0.01 0.01 0.01 0.02 0.02 0.02 0.01 0.00 0.00 0.00 0.00 0.00 0.00 0.00 0.00 0.00 0.00 0.00 0.00 0.00 0.00 0.01 0.01 0.02 0.05 0.06 0.05 0.04 0.05 0.05 0.04 0.05 0.06 0.04
0.00 0.01 0.02 0.05 0.07 0.07 0.05 0.04 0.05 0.07 0.07 0.06 0.05 0.03 0.02 0.03 0.03 0.03 0.02 0.02 0.01 0.00 0.00 0.00 0.00 0.00 0.00 0.00 0.00 0.00 0.01 0.01 0.01 0.02 0.03 0.04 0.05 0.07 0.07 0.07 0.09 0.09 0.10
0.09 0.12 0.12 0.13 0.13 0.13 0.14 0.13 0.12 0.09 0.07 0.06 0.05 0.05 0.05 0.05 0.05 0.03 0.03 0.01 0.00 0.00 0.00 0.00 0.00 0.00 0.00 0.00 0.01 0.01 0.01 0.00 0.01 0.01 0.03 0.06 0.10 0.12 0.13 0.12 0.15 0.17 0.13
0.24 0.25 0.23 0.22 0.22 0.20 0.16 0.12 0.09 0.08 0.08 0.08 0.07 0.06 0.05 0.03 0.01 0.01 0.01 0.01 0.01 0.01 0.01 0.01 0.00 0.00 0.00 0.00 0.01 0.01 0.01 0.01 0.01 0.02 0.03 0.02 0.05 0.07 0.07 0.09 0.11 0.10 0.09
0.34 0.30 0.27 0.22 0.18 0.16 0.12 0.09 0.08 0.09 0.07 0.05 0.04 0.03 0.02 0.01 0.02 0.02 0.02 0.02 0.02 0.01 0.01 0.00 0.00 0.00 0.00 0.01 0.01 0.01 0.01 0.01 0.01 0.02 0.03 0.03 0.03 0.03 0.05 0.07 0.10 0.12 0.11
0.22 0.17 0.14 0.11 0.10 0.09 0.08 0.06 0.05 0.04 0.04 0.03 0.03 0.03 0.03 0.03 0.03 0.02 0.02 0.01 0.01 0.00 0.00 0.00 0.00 0.00 0.00 0.00 0.01 0.02 0.02 0.02 0.02 0.03 0.05 0.04 0.03 0.04 0.06 0.09 0.10 0.12 0.11
0.10 0.09 0.08 0.08 0.07 0.05 0.04 0.04 0.04 0.04 0.04 0.04 0.04 0.03 0.02 0.02 0.02 0.02 0.01 0.01 0.00 0.00 0.00 0.00 0.00 0.00 0.00 0.01 0.01 0.01 0.01 0.01 0.02 0.05 0.06 0.05 0.02 0.02 0.05 0.07 0.09 0.11 0.10
0.05 0.04 0.03 0.03 0.03 0.03 0.03 0.03 0.03 0.02 0.01 0.01 0.01 0.01 0.01 0.01 0.01 0.01 0.00 0.00 0.00 0.00 0.00 0.00 0.00 0.00 0.00 0.00 0.00 0.00 0.01 0.02 0.02 0.02 0.05 0.04 0.02 0.02 0.03 0.06 0.08 0.12 0.12
0.03 0.03 0.02 0.02 0.01 0.00 0.01 0.00 0.01 0.00 0.00 0.01 0.01 0.01 0.01 0.00 0.00 0.00 0.00 0.00 0.01 0.00 0.00 0.00 0.00 0.00 0.00 0.00 0.00 0.01 0.01 0.01 0.01 0.03 0.08 0.05 0.03 0.02 0.03 0.05 0.07 0.12 0.09

GFSGL_prec_precacc12_072.txt.gz
Total_Precipitation_Accumulation
0.04 0.03 0.07 0.07 0.08 0.37 0.51 0.86 0.71 0.75 0.87 0.74 0.55 0.53 0.39 0.25 0.15 0.11 0.11 0.09 0.04 0.03 0.01 0.01 0.01 0.01 0.01 0.00 0.00 0.00 0.00 0.00 0.00 0.00 0.00 0.00 0.00 0.00 0.00 0.00 0.00 0.00 0.00
0.34 0.53 0.50 0.51 0.80 0.78 1.13 1.76 1.21 0.91 0.67 0.44 0.28 0.17 0.12 0.11 0.10 0.06 0.04 0.05 0.06 0.04 0.03 0.03 0.03 0.02 0.02 0.02 0.01 0.01 0.00 0.00 0.00 0.00 0.00 0.00 0.00 0.00 0.00 0.00 0.00 0.00 0.00
0.63 0.65 0.63 1.06 0.74 0.38 0.28 0.26 0.26 0.19 0.14 0.06 0.04 0.05 0.05 0.05 0.06 0.07 0.10 0.10 0.08 0.06 0.04 0.03 0.04 0.03 0.02 0.01 0.01 0.01 0.01 0.00 0.00 0.00 0.00 0.00 0.00 0.00 0.00 0.00 0.00 0.00 0.00
0.53 0.46 0.43 0.44 0.43 0.28 0.24 0.19 0.21 0.19 0.18 0.12 0.10 0.09 0.06 0.05 0.06 0.06 0.06 0.05 0.05 0.05 0.03 0.01 0.01 0.01 0.00 0.00 0.00 0.00 0.00 0.00 0.00 0.00 0.00 0.00 0.00 0.00 0.00 0.00 0.01 0.01 0.01
0.14 0.14 0.12 0.14 0.11 0.12 0.12 0.07 0.07 0.04 0.04 0.07 0.09 0.11 0.08 0.05 0.05 0.04 0.02 0.03 0.05 0.06 0.04 0.01 0.00 0.01 0.01 0.01 0.00 0.00 0.00 0.00 0.00 0.00 0.00 0.00 0.00 0.00 0.00 0.01 0.02 0.02 0.02
0.07 0.08 0.08 0.09 0.12 0.09 0.08 0.09 0.06 0.05 0.07 0.05 0.05 0.07 0.05 0.04 0.11 0.07 0.04 0.02 0.02 0.03 0.01 0.01 0.00 0.01 0.01 0.01 0.00 0.00 0.00 0.00 0.00 0.00 0.00 0.00 0.00 0.00 0.01 0.02 0.03 0.04 0.06
0.05 0.06 0.07 0.10 0.09 0.10 0.06 0.07 0.11 0.10 0.10 0.08 0.06 0.05 0.05 0.05 0.08 0.04 0.05 0.02 0.03 0.02 0.02 0.01 0.00 0.01 0.01 0.00 0.00 0.00 0.00 0.00 0.00 0.00 0.00 0.00 0.00 0.00 0.02 0.03 0.03 0.05 0.07
0.02 0.03 0.04 0.07 0.07 0.05 0.04 0.03 0.05 0.09 0.10 0.07 0.06 0.05 0.05 0.05 0.06 0.03 0.03 0.01 0.02 0.01 0.00 0.00 0.00 0.00 0.00 0.00 0.00 0.00 0.00 0.00 0.00 0.00 0.00 0.00 0.00 0.00 0.01 0.03 0.03 0.04 0.03
0.02 0.02 0.03 0.03 0.04 0.04 0.05 0.07 0.05 0.06 0.07 0.05 0.05 0.03 0.03 0.05 0.06 0.03 0.01 0.00 0.00 0.00 0.00 0.00 0.00 0.00 0.00 0.00 0.00 0.00 0.00 0.00 0.00 0.00 0.00 0.00 0.00 0.00 0.01 0.03 0.04 0.05 0.04
0.01 0.02 0.01 0.01 0.01 0.02 0.03 0.02 0.02 0.02 0.04 0.04 0.04 0.03 0.06 0.04 0.05 0.02 0.01 0.00 0.00 0.00 0.00 0.00 0.00 0.00 0.00 0.00 0.00 0.00 0.00 0.00 0.00 0.00 0.00 0.00 0.00 0.00 0.01 0.02 0.04 0.15 0.11
0.00 0.00 0.00 0.00 0.00 0.01 0.01 0.02 0.02 0.03 0.03 0.04 0.03 0.02 0.03 0.03 0.02 0.01 0.00 0.00 0.00 0.00 0.00 0.00 0.00 0.00 0.00 0.00 0.00 0.00 0.00 0.00 0.00 0.00 0.00 0.00 0.00 0.00 0.00 0.01 0.02 0.09 0.14
0.00 0.00 0.01 0.01 0.01 0.02 0.02 0.02 0.04 0.05 0.04 0.03 0.03 0.02 0.01 0.01 0.00 0.00 0.00 0.00 0.00 0.00 0.00 0.00 0.00 0.00 0.00 0.00 0.00 0.00 0.00 0.00 0.00 0.00 0.00 0.00 0.00 0.00 0.00 0.01 0.01 0.01 0.02
0.00 0.00 0.00 0.02 0.03 0.02 0.03 0.04 0.05 0.04 0.03 0.02 0.01 0.00 0.00 0.00 0.00 0.00 0.00 0.00 0.00 0.00 0.00 0.00 0.00 0.00 0.00 0.00 0.00 0.00 0.00 0.00 0.00 0.01 0.01 0.00 0.00 0.00 0.01 0.02 0.06 0.04 0.05
0.00 0.00 0.00 0.01 0.02 0.02 0.03 0.03 0.02 0.02 0.01 0.00 0.00 0.00 0.00 0.00 0.00 0.00 0.00 0.00 0.00 0.00 0.00 0.00 0.00 0.00 0.00 0.00 0.00 0.00 0.00 0.00 0.00 0.02 0.04 0.03 0.01 0.01 0.08 0.09 0.11 0.09 0.10
0.00 0.00 0.00 0.00 0.01 0.00 0.01 0.02 0.01 0.01 0.00 0.00 0.00 0.00 0.00 0.00 0.00 0.00 0.00 0.00 0.00 0.00 0.00 0.00 0.00 0.00 0.00 0.00 0.00 0.00 0.00 0.00 0.00 0.01 0.03 0.03 0.03 0.07 0.13 0.20 0.20 0.15 0.09
0.00 0.00 0.00 0.00 0.01 0.01 0.01 0.01 0.01 0.00 0.00 0.00 0.00 0.00 0.00 0.00 0.00 0.00 0.00 0.01 0.00 0.00 0.00 0.00 0.00 0.00 0.00 0.00 0.00 0.00 0.00 0.00 0.00 0.00 0.02 0.03 0.08 0.13 0.13 0.09 0.08 0.05 0.03
0.00 0.00 0.00 0.00 0.00 0.00 0.00 0.00 0.00 0.01 0.02 0.03 0.04 0.04 0.03 0.03 0.02 0.01 0.01 0.00 0.00 0.00 0.00 0.00 0.00 0.00 0.00 0.00 0.00 0.00 0.00 0.00 0.00 0.00 0.01 0.03 0.05 0.03 0.02 0.03 0.04 0.04 0.03
0.03 0.07 0.10 0.10 0.08 0.05 0.04 0.05 0.08 0.11 0.12 0.10 0.07 0.04 0.03 0.02 0.01 0.00 0.00 0.01 0.01 0.01 0.00 0.00 0.00 0.00 0.00 0.00 0.00 0.00 0.00 0.00 0.00 0.00 0.00 0.02 0.03 0.04 0.02 0.02 0.02 0.04 0.03
0.07 0.08 0.09 0.13 0.14 0.14 0.13 0.13 0.13 0.13 0.12 0.12 0.12 0.11 0.09 0.09 0.09 0.09 0.07 0.06 0.05 0.04 0.03 0.02 0.02 0.02 0.01 0.01 0.00 0.00 0.00 0.00 0.00 0.00 0.00 0.01 0.02 0.04 0.03 0.04 0.05 0.05 0.07
0.12 0.17 0.18 0.20 0.22 0.21 0.20 0.18 0.17 0.15 0.13 0.12 0.11 0.10 0.11 0.10 0.09 0.08 0.07 0.05 0.05 0.04 0.04 0.04 0.03 0.02 0.02 0.01 0.01 0.01 0.00 0.00 0.00 0.00 0.01 0.01 0.02 0.05 0.09 0.10 0.09 0.10 0.09
0.29 0.31 0.29 0.27 0.27 0.24 0.19 0.15 0.12 0.11 0.11 0.11 0.11 0.11 0.09 0.06 0.04 0.04 0.03 0.03 0.03 0.03 0.03 0.03 0.02 0.01 0.01 0.01 0.00 0.00 0.00 0.00 0.00 0.01 0.01 0.01 0.01 0.02 0.04 0.06 0.06 0.06 0.06
0.37 0.33 0.29 0.25 0.21 0.18 0.15 0.11 0.10 0.10 0.09 0.07 0.06 0.05 0.04 0.03 0.03 0.04 0.04 0.04 0.03 0.03 0.02 0.01 0.01 0.00 0.00 0.00 0.00 0.00 0.01 0.01 0.00 0.00 0.00 0.01 0.01 0.02 0.02 0.02 0.03 0.07 0.08
0.24 0.20 0.16 0.14 0.12 0.11 0.09 0.07 0.06 0.05 0.05 0.05 0.04 0.04 0.04 0.04 0.04 0.04 0.03 0.03 0.02 0.01 0.00 0.00 0.00 0.00 0.00 0.00 0.00 0.01 0.01 0.01 0.01 0.01 0.02 0.02 0.02 0.02 0.03 0.03 0.03 0.06 0.09
0.12 0.11 0.09 0.09 0.08 0.06 0.05 0.05 0.04 0.04 0.04 0.04 0.04 0.04 0.03 0.02 0.02 0.02 0.01 0.01 0.00 0.00 0.00 0.00 0.00 0.00 0.00 0.00 0.00 0.00 0.00 0.00 0.02 0.03 0.04 0.04 0.02 0.01 0.03 0.03 0.03 0.06 0.08
0.06 0.05 0.04 0.04 0.03 0.03 0.04 0.03 0.03 0.02 0.01 0.01 0.01 0.01 0.01 0.01 0.01 0.00 0.00 0.00 0.00 0.00 0.00 0.00 0.00 0.00 0.00 0.00 0.00 0.00 0.00 0.01 0.01 0.02 0.04 0.04 0.02 0.01 0.02 0.03 0.03 0.05 0.08
0.03 0.03 0.02 0.02 0.01 0.00 0.00 0.00 0.00 0.00 0.00 0.01 0.01 0.00 0.00 0.00 0.00 0.00 0.00 0.00 0.00 0.00 0.00 0.00 0.00 0.00 0.00 0.00 0.00 0.01 0.00 0.00 0.01 0.02 0.06 0.05 0.03 0.02 0.02 0.03 0.02 0.05 0.05

GFSGL_prec_precacc12_075.txt.gz
Total_Precipitation_Accumulation
0.00 0.00 0.00 0.00 0.02 0.17 0.23 0.29 0.43 0.60 0.77 0.69 0.54 0.53 0.42 0.32 0.22 0.15 0.11 0.10 0.08 0.06 0.04 0.04 0.04 0.03 0.01 0.01 0.01 0.00 0.00 0.00 0.00 0.00 0.00 0.00 0.00 0.00 0.00 0.00 0.00 0.00 0.00
0.26 0.14 0.10 0.08 0.31 0.29 0.51 1.21 1.03 0.85 0.59 0.41 0.28 0.17 0.15 0.16 0.19 0.15 0.10 0.09 0.10 0.10 0.11 0.10 0.07 0.04 0.02 0.02 0.01 0.01 0.01 0.00 0.00 0.00 0.00 0.00 0.00 0.00 0.00 0.00 0.00 0.00 0.00
0.25 0.31 0.42 0.70 0.50 0.19 0.19 0.21 0.22 0.17 0.13 0.06 0.03 0.04 0.05 0.05 0.07 0.13 0.18 0.21 0.20 0.13 0.11 0.11 0.09 0.07 0.03 0.01 0.01 0.01 0.01 0.01 0.01 0.01 0.00 0.00 0.00 0.00 0.00 0.00 0.00 0.00 0.00
0.29 0.30 0.33 0.33 0.37 0.27 0.21 0.18 0.20 0.19 0.17 0.11 0.10 0.10 0.06 0.04 0.04 0.05 0.06 0.07 0.07 0.07 0.08 0.09 0.08 0.07 0.04 0.02 0.01 0.00 0.01 0.01 0.00 0.00 0.00 0.00 0.00 0.00 0.00 0.00 0.00 0.00 0.00
0.09 0.10 0.10 0.13 0.09 0.09 0.10 0.06 0.05 0.03 0.03 0.07 0.09 0.11 0.11 0.08 0.08 0.08 0.05 0.05 0.06 0.08 0.07 0.06 0.05 0.08 0.06 0.02 0.00 0.00 0.00 0.00 0.00 0.00 0.00 0.00 0.00 0.00 0.00 0.00 0.00 0.00 0.01
0.04 0.05 0.06 0.09 0.12 0.08 0.07 0.09 0.06 0.05 0.07 0.06 0.06 0.07 0.06 0.06 0.14 0.10 0.06 0.03 0.03 0.05 0.04 0.04 0.06 0.10 0.05 0.03 0.01 0.00 0.00 0.00 0.00 0.00 0.00 0.00 0.00 0.00 0.00 0.00 0.00 0.01 0.01
0.03 0.05 0.06 0.09 0.08 0.09 0.07 0.08 0.13 0.11 0.10 0.09 0.08 0.07 0.06 0.06 0.12 0.07 0.07 0.03 0.05 0.04 0.04 0.03 0.02 0.03 0.04 0.00 0.00 0.01 0.00 0.00 0.00 0.00 0.00 0.00 0.00 0.00 0.00 0.00 0.01 0.01 0.02
0.02 0.03 0.04 0.06 0.07 0.05 0.05 0.04 0.06 0.10 0.11 0.08 0.07 0.09 0.09 0.10 0.12 0.06 0.05 0.01 0.03 0.03 0.03 0.03 0.02 0.01 0.01 0.00 0.00 0.00 0.00 0.00 0.00 0.00 0.00 0.00 0.00 0.00 0.00 0.01 0.01 0.01 0.01
0.02 0.02 0.03 0.03 0.04 0.04 0.05 0.07 0.05 0.07 0.09 0.07 0.06 0.05 0.06 0.09 0.11 0.06 0.05 0.03 0.05 0.05 0.05 0.03 0.01 0.00 0.01 0.01 0.00 0.00 0.00 0.00 0.00 0.00 0.00 0.00 0.00 0.00 0.00 0.01 0.01 0.02 0.02
0.01 0.02 0.01 0.01 0.01 0.03 0.03 0.03 0.03 0.04 0.06 0.06 0.06 0.05 0.10 0.07 0.12 0.08 0.08 0.06 0.08 0.06 0.02 0.01 0.02 0.00 0.01 0.00 0.00 0.00 0.00 0.00 0.00 0.00 0.00 0.00 0.00 0.00 0.00 0.00 0.01 0.07 0.05
0.00 0.00 0.01 0.01 0.02 0.03 0.03 0.02 0.03 0.04 0.05 0.05 0.05 0.05 0.08 0.09 0.11 0.11 0.09 0.07 0.06 0.02 0.00 0.00 0.00 0.01 0.00 0.00 0.00 0.00 0.00 0.00 0.00 0.00 0.00 0.00 0.00 0.00 0.00 0.00 0.00 0.05 0.09
0.00 0.01 0.02 0.05 0.06 0.05 0.04 0.03 0.04 0.05 0.06 0.06 0.06 0.07 0.06 0.08 0.10 0.09 0.07 0.05 0.01 0.00 0.00 0.00 0.00 0.00 0.00 0.00 0.00 0.00 0.00 0.00 0.00 0.00 0.00 0.00 0.00 0.00 0.00 0.00 0.00 0.01 0.02
0.01 0.01 0.03 0.03 0.04 0.03 0.04 0.05 0.06 0.06 0.06 0.06 0.06 0.06 0.06 0.06 0.07 0.07 0.03 0.01 0.00 0.00 0.00 0.00 0.00 0.00 0.00 0.00 0.00 0.00 0.00 0.00 0.00 0.00 0.00 0.00 0.00 0.00 0.00 0.00 0.00 0.00 0.01
0.02 0.01 0.01 0.02 0.03 0.02 0.04 0.04 0.05 0.05 0.06 0.07 0.09 0.09 0.09 0.07 0.04 0.01 0.00 0.00 0.00 0.00 0.00 0.00 0.00 0.00 0.00 0.00 0.00 0.00 0.00 0.00 0.00 0.00 0.00 0.00 0.00 0.00 0.00 0.00 0.03 0.07 0.09
0.00 0.00 0.00 0.01 0.02 0.00 0.02 0.05 0.05 0.05 0.08 0.07 0.06 0.04 0.04 0.03 0.01 0.00 0.00 0.00 0.00 0.01 0.01 0.01 0.00 0.00 0.00 0.00 0.00 0.00 0.00 0.00 0.00 0.00 0.00 0.00 0.00 0.00 0.02 0.08 0.13 0.13 0.08
0.00 0.00 0.00 0.00 0.01 0.01 0.02 0.05 0.07 0.05 0.07 0.05 0.04 0.03 0.04 0.03 0.04 0.05 0.05 0.03 0.01 0.01 0.01 0.01 0.00 0.00 0.00 0.00 0.00 0.00 0.00 0.00 0.00 0.00 0.00 0.00 0.00 0.00 0.01 0.04 0.04 0.04 0.03
0.00 0.00 0.00 0.00 0.00 0.01 0.01 0.02 0.03 0.09 0.12 0.16 0.18 0.18 0.14 0.13 0.10 0.06 0.03 0.01 0.00 0.00 0.00 0.00 0.00 0.00 0.00 0.00 0.00 0.00 0.00 0.00 0.00 0.00 0.00 0.00 0.00 0.00 0.01 0.01 0.01 0.02 0.02
0.05 0.10 0.12 0.12 0.10 0.10 0.11 0.15 0.18 0.21 0.23 0.22 0.17 0.11 0.07 0.04 0.02 0.01 0.01 0.01 0.02 0.01 0.01 0.00 0.00 0.00 0.00 0.00 0.00 0.00 0.01 0.00 0.01 0.00 0.00 0.00 0.00 0.01 0.01 0.01 0.01 0.03 0.02
0.22 0.19 0.15 0.17 0.19 0.19 0.19 0.19 0.18 0.17 0.16 0.15 0.15 0.14 0.12 0.11 0.10 0.10 0.09 0.07 0.06 0.05 0.03 0.03 0.03 0.03 0.02 0.02 0.01 0.01 0.02 0.01 0.01 0.01 0.01 0.00 0.00 0.01 0.01 0.01 0.01 0.02 0.05
0.19 0.26 0.24 0.26 0.28 0.26 0.24 0.21 0.19 0.16 0.14 0.13 0.12 0.12 0.12 0.10 0.10 0.08 0.08 0.06 0.06 0.06 0.06 0.06 0.05 0.04 0.04 0.03 0.03 0.02 0.02 0.01 0.01 0.01 0.01 0.01 0.01 0.01 0.01 0.02 0.03 0.04 0.04
0.35 0.35 0.31 0.28 0.26 0.23 0.20 0.16 0.14 0.13 0.13 0.13 0.13 0.13 0.11 0.07 0.06 0.05 0.05 0.04 0.05 0.05 0.05 0.05 0.04 0.03 0.03 0.02 0.01 0.01 0.00 0.00 0.00 0.00 0.00 0.00 0.00 0.01 0.01 0.02 0.04 0.05 0.04
0.27 0.27 0.25 0.22 0.21 0.18 0.16 0.12 0.11 0.11 0.10 0.08 0.08 0.07 0.05 0.04 0.05 0.05 0.05 0.05 0.05 0.04 0.03 0.02 0.02 0.01 0.01 0.00 0.00 0.01 0.01 0.00 0.00 0.00 0.00 0.01 0.01 0.01 0.01 0.01 0.02 0.03 0.03
0.15 0.14 0.13 0.13 0.12 0.11 0.09 0.08 0.07 0.06 0.06 0.06 0.05 0.05 0.05 0.05 0.05 0.04 0.03 0.03 0.02 0.01 0.01 0.00 0.00 0.00 0.00 0.00 0.00 0.00 0.00 0.00 0.01 0.01 0.02 0.02 0.01 0.01 0.01 0.02 0.02 0.02 0.03
0.10 0.10 0.10 0.09 0.08 0.06 0.05 0.05 0.05 0.04 0.05 0.05 0.04 0.04 0.03 0.02 0.02 0.02 0.01 0.01 0.00 0.00 0.00 0.00 0.00 0.00 0.00 0.00 0.00 0.00 0.00 0.00 0.02 0.02 0.03 0.03 0.02 0.01 0.01 0.02 0.02 0.03 0.04
0.05 0.04 0.04 0.04 0.03 0.03 0.04 0.03 0.03 0.02 0.01 0.01 0.01 0.01 0.01 0.01 0.01 0.00 0.00 0.00 0.00 0.00 0.00 0.00 0.00 0.00 0.00 0.00 0.00 0.00 0.00 0.01 0.01 0.01 0.04 0.03 0.02 0.01 0.02 0.03 0.03 0.04 0.04
0.02 0.02 0.02 0.01 0.01 0.00 0.00 0.00 0.00 0.00 0.00 0.01 0.01 0.00 0.00 0.00 0.00 0.00 0.00 0.00 0.00 0.00 0.00 0.00 0.00 0.00 0.00 0.00 0.00 0.00 0.00 0.00 0.01 0.01 0.05 0.04 0.02 0.01 0.02 0.03 0.02 0.05 0.03

GFSGL_prec_precacc12_078.txt.gz
Total_Precipitation_Accumulation
0.00 0.00 0.00 0.00 0.00 0.00 0.01 0.01 0.06 0.29 0.62 0.66 0.47 0.43 0.38 0.30 0.21 0.15 0.11 0.10 0.08 0.07 0.06 0.06 0.07 0.06 0.06 0.05 0.05 0.02 0.01 0.00 0.00 0.00 0.00 0.00 0.00 0.00 0.00 0.00 0.00 0.00 0.00
0.13 0.02 0.02 0.01 0.00 0.01 0.03 0.10 0.32 0.61 0.49 0.34 0.17 0.13 0.13 0.16 0.18 0.15 0.12 0.10 0.11 0.13 0.15 0.20 0.23 0.22 0.19 0.11 0.07 0.02 0.01 0.00 0.00 0.00 0.00 0.00 0.00 0.00 0.00 0.00 0.00 0.00 0.00
0.16 0.08 0.05 0.05 0.03 0.07 0.07 0.07 0.15 0.12 0.08 0.03 0.02 0.03 0.04 0.04 0.06 0.13 0.18 0.20 0.22 0.21 0.22 0.25 0.28 0.27 0.20 0.13 0.12 0.09 0.02 0.01 0.01 0.00 0.00 0.00 0.00 0.00 0.00 0.00 0.00 0.00 0.00
0.13 0.07 0.05 0.03 0.04 0.13 0.12 0.13 0.16 0.16 0.14 0.10 0.08 0.08 0.06 0.03 0.03 0.04 0.06 0.07 0.08 0.12 0.17 0.19 0.19 0.15 0.12 0.06 0.04 0.03 0.02 0.01 0.01 0.00 0.00 0.00 0.00 0.00 0.00 0.00 0.00 0.00 0.00
0.07 0.05 0.05 0.07 0.02 0.03 0.03 0.03 0.04 0.02 0.02 0.06 0.08 0.10 0.10 0.09 0.09 0.08 0.07 0.06 0.07 0.08 0.07 0.06 0.05 0.10 0.10 0.07 0.06 0.05 0.05 0.05 0.02 0.00 0.00 0.00 0.00 0.00 0.00 0.00 0.00 0.00 0.00
0.01 0.03 0.04 0.06 0.06 0.03 0.04 0.06 0.04 0.05 0.06 0.06 0.05 0.06 0.06 0.06 0.13 0.09 0.06 0.04 0.04 0.06 0.05 0.05 0.07 0.14 0.09 0.10 0.09 0.07 0.04 0.02 0.00 0.00 0.00 0.00 0.00 0.00 0.00 0.00 0.00 0.00 0.00
0.01 0.02 0.04 0.06 0.05 0.07 0.05 0.07 0.13 0.12 0.11 0.08 0.08 0.07 0.07 0.06 0.12 0.07 0.08 0.04 0.06 0.07 0.07 0.06 0.05 0.06 0.09 0.02 0.03 0.02 0.01 0.01 0.00 0.00 0.00 0.00 0.00 0.00 0.00 0.00 0.00 0.00 0.00
0.01 0.02 0.03 0.04 0.05 0.04 0.04 0.04 0.06 0.11 0.13 0.10 0.09 0.10 0.10 0.11 0.14 0.08 0.09 0.03 0.04 0.05 0.05 0.06 0.06 0.05 0.06 0.05 0.04 0.04 0.02 0.00 0.00 0.00 0.00 0.00 0.00 0.00 0.00 0.00 0.00 0.00 0.00
0.01 0.02 0.02 0.02 0.03 0.03 0.05 0.07 0.05 0.07 0.09 0.08 0.08 0.06 0.07 0.11 0.16 0.10 0.09 0.04 0.07 0.08 0.08 0.11 0.13 0.13 0.19 0.16 0.11 0.03 0.00 0.00 0.00 0.00 0.00 0.00 0.00 0.00 0.00 0.00 0.01 0.01 0.01
0.01 0.02 0.01 0.01 0.01 0.03 0.03 0.03 0.03 0.04 0.07 0.06 0.06 0.06 0.14 0.09 0.18 0.12 0.10 0.06 0.09 0.11 0.10 0.10 0.13 0.08 0.11 0.06 0.02 0.00 0.00 0.00 0.00 0.00 0.00 0.00 0.00 0.00 0.00 0.00 0.01 0.05 0.02
0.00 0.00 0.01 0.01 0.02 0.03 0.05 0.04 0.04 0.04 0.05 0.05 0.05 0.06 0.09 0.11 0.14 0.15 0.12 0.08 0.08 0.08 0.08 0.07 0.07 0.09 0.05 0.03 0.01 0.00 0.00 0.00 0.00 0.00 0.00 0.00 0.00 0.00 0.00 0.00 0.00 0.04 0.05
0.00 0.01 0.02 0.05 0.06 0.06 0.05 0.05 0.06 0.06 0.06 0.06 0.06 0.07 0.07 0.09 0.16 0.14 0.12 0.12 0.13 0.10 0.09 0.08 0.07 0.06 0.01 0.00 0.00 0.00 0.00 0.00 0.00 0.00 0.00 0.00 0.00 0.00 0.00 0.00 0.00 0.00 0.01
0.01 0.02 0.04 0.05 0.06 0.06 0.08 0.08 0.07 0.06 0.06 0.06 0.06 0.06 0.07 0.08 0.12 0.15 0.11 0.10 0.08 0.06 0.06 0.06 0.04 0.01 0.00 0.00 0.00 0.00 0.00 0.00 0.00 0.00 0.00 0.00 0.00 0.00 0.00 0.00 0.00 0.00 0.00
0.02 0.01 0.01 0.03 0.05 0.03 0.04 0.04 0.05 0.05 0.06 0.08 0.09 0.10 0.13 0.15 0.14 0.14 0.12 0.11 0.10 0.08 0.05 0.02 0.00 0.00 0.00 0.00 0.00 0.00 0.00 0.00 0.00 0.00 0.00 0.00 0.00 0.00 0.00 0.00 0.00 0.00 0.02
0.01 0.01 0.01 0.01 0.03 0.01 0.02 0.05 0.05 0.06 0.10 0.08 0.07 0.07 0.08 0.10 0.13 0.13 0.10 0.08 0.06 0.05 0.03 0.01 0.01 0.01 0.01 0.01 0.00 0.00 0.00 0.00 0.00 0.00 0.00 0.00 0.00 0.00 0.00 0.00 0.00 0.02 0.04
0.00 0.00 0.01 0.01 0.02 0.02 0.03 0.06 0.09 0.07 0.09 0.08 0.10 0.12 0.18 0.18 0.20 0.20 0.17 0.12 0.06 0.04 0.04 0.04 0.03 0.01 0.00 0.00 0.00 0.00 0.00 0.00 0.00 0.00 0.00 0.00 0.00 0.00 0.00 0.00 0.00 0.00 0.02
0.02 0.01 0.01 0.01 0.01 0.02 0.03 0.03 0.04 0.13 0.19 0.27 0.32 0.33 0.25 0.24 0.20 0.16 0.11 0.08 0.05 0.03 0.02 0.01 0.01 0.00 0.00 0.00 0.00 0.00 0.00 0.00 0.00 0.00 0.00 0.00 0.00 0.00 0.00 0.00 0.00 0.00 0.00
0.34 0.34 0.34 0.31 0.27 0.25 0.22 0.20 0.21 0.24 0.28 0.31 0.27 0.19 0.14 0.11 0.08 0.06 0.05 0.04 0.04 0.02 0.01 0.01 0.01 0.00 0.00 0.00 0.01 0.01 0.01 0.01 0.01 0.01 0.00 0.00 0.00 0.01 0.01 0.00 0.00 0.01 0.01
0.50 0.49 0.46 0.41 0.34 0.28 0.24 0.23 0.21 0.19 0.17 0.18 0.19 0.19 0.17 0.15 0.13 0.12 0.09 0.08 0.07 0.05 0.04 0.03 0.03 0.03 0.03 0.02 0.02 0.02 0.02 0.01 0.01 0.01 0.01 0.01 0.01 0.01 0.01 0.00 0.00 0.01 0.01
0.32 0.39 0.34 0.35 0.36 0.30 0.25 0.21 0.20 0.18 0.17 0.17 0.16 0.15 0.14 0.11 0.11 0.09 0.08 0.07 0.06 0.06 0.06 0.06 0.05 0.05 0.04 0.03 0.03 0.03 0.02 0.01 0.01 0.01 0.01 0.01 0.01 0.01 0.01 0.01 0.01 0.01 0.01
0.47 0.48 0.41 0.32 0.28 0.24 0.19 0.16 0.14 0.13 0.13 0.13 0.14 0.14 0.11 0.07 0.06 0.05 0.05 0.05 0.05 0.05 0.05 0.05 0.05 0.04 0.03 0.03 0.02 0.01 0.01 0.00 0.00 0.01 0.01 0.01 0.01 0.01 0.01 0.01 0.01 0.01 0.02
0.25 0.25 0.22 0.19 0.17 0.14 0.12 0.10 0.09 0.08 0.08 0.07 0.08 0.07 0.05 0.05 0.05 0.05 0.06 0.06 0.05 0.04 0.03 0.02 0.02 0.01 0.01 0.01 0.00 0.01 0.01 0.01 0.00 0.00 0.01 0.01 0.01 0.01 0.01 0.01 0.01 0.01 0.02
0.14 0.13 0.11 0.10 0.09 0.07 0.06 0.06 0.06 0.05 0.06 0.06 0.05 0.05 0.04 0.05 0.05 0.04 0.04 0.03 0.02 0.01 0.01 0.00 0.00 0.00 0.00 0.00 0.00 0.00 0.01 0.00 0.01 0.01 0.02 0.02 0.01 0.01 0.02 0.02 0.02 0.02 0.02
0.07 0.06 0.05 0.05 0.05 0.04 0.04 0.04 0.04 0.03 0.03 0.03 0.03 0.03 0.03 0.02 0.02 0.01 0.01 0.01 0.00 0.00 0.00 0.00 0.00 0.00 0.00 0.00 0.00 0.00 0.00 0.00 0.01 0.02 0.03 0.03 0.02 0.01 0.01 0.02 0.02 0.02 0.03
0.02 0.02 0.02 0.02 0.02 0.02 0.02 0.02 0.02 0.02 0.01 0.01 0.01 0.01 0.01 0.01 0.01 0.00 0.00 0.00 0.00 0.00 0.00 0.00 0.00 0.00 0.00 0.00 0.00 0.00 0.00 0.01 0.01 0.01 0.02 0.02 0.02 0.01 0.02 0.03 0.02 0.03 0.03
0.00 0.00 0.00 0.00 0.00 0.00 0.00 0.00 0.00 0.00 0.00 0.00 0.01 0.00 0.00 0.00 0.00 0.00 0.00 0.00 0.00 0.00 0.00 0.00 0.00 0.00 0.00 0.00 0.00 0.00 0.00 0.00 0.00 0.01 0.04 0.03 0.02 0.02 0.02 0.03 0.02 0.04 0.03

GFSGL_prec_precacc12_081.txt.gz
Total_Precipitation_Accumulation
0.00 0.00 0.00 0.00 0.00 0.00 0.00 0.00 0.00 0.00 0.00 0.03 0.12 0.21 0.33 0.23 0.16 0.13 0.12 0.11 0.10 0.09 0.09 0.08 0.09 0.08 0.08 0.07 0.07 0.07 0.07 0.06 0.05 0.02 0.01 0.00 0.00 0.00 0.00 0.00 0.00 0.00 0.00
0.10 0.01 0.00 0.00 0.00 0.00 0.00 0.00 0.00 0.00 0.02 0.02 0.06 0.09 0.12 0.15 0.18 0.15 0.12 0.09 0.11 0.13 0.15 0.20 0.22 0.22 0.20 0.16 0.14 0.15 0.15 0.12 0.10 0.05 0.01 0.00 0.00 0.00 0.00 0.00 0.00 0.00 0.00
0.07 0.03 0.01 0.00 0.00 0.00 0.00 0.00 0.01 0.01 0.04 0.02 0.01 0.01 0.01 0.02 0.04 0.10 0.16 0.19 0.21 0.20 0.20 0.23 0.26 0.28 0.27 0.26 0.27 0.26 0.20 0.15 0.09 0.06 0.02 0.00 0.00 0.00 0.00 0.00 0.00 0.00 0.00
0.05 0.02 0.01 0.01 0.00 0.00 0.00 0.03 0.12 0.11 0.08 0.08 0.05 0.05 0.04 0.02 0.01 0.01 0.04 0.06 0.07 0.12 0.16 0.19 0.18 0.18 0.16 0.14 0.12 0.10 0.09 0.09 0.09 0.07 0.03 0.01 0.00 0.00 0.00 0.00 0.00 0.00 0.00
0.01 0.01 0.02 0.05 0.00 0.00 0.01 0.01 0.03 0.01 0.01 0.03 0.04 0.07 0.09 0.07 0.07 0.07 0.06 0.06 0.06 0.07 0.07 0.06 0.05 0.11 0.11 0.08 0.07 0.06 0.07 0.09 0.10 0.09 0.06 0.05 0.03 0.01 0.00 0.00 0.00 0.00 0.00
0.00 0.00 0.01 0.05 0.05 0.02 0.02 0.03 0.03 0.02 0.03 0.04 0.02 0.03 0.04 0.05 0.10 0.07 0.05 0.03 0.04 0.05 0.05 0.05 0.07 0.16 0.11 0.13 0.13 0.13 0.09 0.07 0.07 0.09 0.07 0.02 0.01 0.00 0.00 0.00 0.00 0.00 0.00
0.00 0.00 0.01 0.03 0.03 0.06 0.04 0.05 0.11 0.11 0.09 0.05 0.06 0.06 0.06 0.05 0.10 0.07 0.07 0.04 0.06 0.06 0.07 0.06 0.06 0.08 0.12 0.04 0.07 0.09 0.07 0.07 0.05 0.04 0.05 0.05 0.03 0.01 0.00 0.00 0.00 0.00 0.00
0.00 0.00 0.00 0.01 0.02 0.02 0.03 0.02 0.05 0.10 0.10 0.08 0.08 0.10 0.09 0.10 0.13 0.08 0.10 0.03 0.04 0.05 0.06 0.06 0.08 0.08 0.11 0.10 0.08 0.09 0.10 0.12 0.14 0.16 0.15 0.11 0.03 0.00 0.00 0.00 0.00 0.00 0.00
0.00 0.00 0.00 0.01 0.01 0.02 0.02 0.04 0.03 0.05 0.06 0.06 0.08 0.08 0.09 0.12 0.18 0.13 0.11 0.05 0.08 0.09 0.10 0.14 0.18 0.16 0.29 0.24 0.16 0.16 0.16 0.14 0.13 0.12 0.07 0.04 0.01 0.00 0.00 0.00 0.00 0.01 0.00
0.00 0.01 0.01 0.00 0.00 0.01 0.01 0.01 0.02 0.03 0.05 0.05 0.07 0.07 0.15 0.11 0.22 0.16 0.13 0.07 0.10 0.12 0.12 0.14 0.23 0.14 0.23 0.14 0.09 0.07 0.09 0.09 0.09 0.08 0.05 0.02 0.00 0.00 0.00 0.00 0.00 0.01 0.01
0.00 0.00 0.01 0.01 0.01 0.03 0.04 0.03 0.03 0.03 0.05 0.07 0.07 0.07 0.10 0.15 0.18 0.19 0.16 0.10 0.08 0.10 0.12 0.13 0.16 0.22 0.14 0.11 0.09 0.06 0.07 0.07 0.04 0.02 0.01 0.00 0.00 0.00 0.00 0.00 0.00 0.01 0.01
0.00 0.01 0.02 0.05 0.05 0.05 0.05 0.06 0.07 0.08 0.08 0.07 0.07 0.09 0.08 0.10 0.19 0.17 0.15 0.15 0.17 0.12 0.15 0.16 0.20 0.24 0.15 0.12 0.11 0.09 0.09 0.06 0.04 0.02 0.00 0.00 0.00 0.00 0.00 0.00 0.00 0.00 0.00
0.01 0.02 0.04 0.05 0.06 0.06 0.08 0.10 0.11 0.10 0.09 0.09 0.08 0.08 0.08 0.08 0.13 0.16 0.13 0.12 0.11 0.09 0.10 0.15 0.19 0.18 0.12 0.10 0.09 0.06 0.04 0.01 0.01 0.00 0.00 0.00 0.00 0.00 0.00 0.00 0.00 0.00 0.00
0.02 0.01 0.02 0.04 0.08 0.06 0.08 0.08 0.09 0.08 0.08 0.10 0.12 0.13 0.14 0.15 0.15 0.15 0.14 0.14 0.14 0.15 0.18 0.21 0.20 0.16 0.13 0.11 0.08 0.04 0.02 0.01 0.00 0.00 0.00 0.00 0.00 0.00 0.00 0.00 0.00 0.00 0.00
0.04 0.05 0.04 0.04 0.06 0.04 0.06 0.11 0.12 0.12 0.16 0.12 0.10 0.10 0.10 0.11 0.16 0.17 0.14 0.13 0.14 0.15 0.15 0.13 0.12 0.11 0.09 0.06 0.03 0.01 0.00 0.00 0.00 0.00 0.00 0.00 0.00 0.00 0.00 0.00 0.00 0.00 0.00
0.06 0.06 0.10 0.08 0.06 0.06 0.07 0.11 0.15 0.14 0.16 0.14 0.17 0.17 0.24 0.24 0.28 0.27 0.25 0.19 0.14 0.11 0.11 0.11 0.09 0.06 0.04 0.02 0.02 0.01 0.00 0.00 0.00 0.00 0.00 0.00 0.00 0.00 0.00 0.00 0.00 0.00 0.00
0.09 0.09 0.08 0.07 0.06 0.04 0.04 0.05 0.09 0.22 0.32 0.43 0.50 0.52 0.41 0.38 0.30 0.23 0.18 0.14 0.11 0.08 0.06 0.06 0.06 0.06 0.04 0.02 0.01 0.01 0.01 0.01 0.01 0.01 0.01 0.01 0.01 0.01 0.00 0.00 0.00 0.00 0.00
0.77 0.82 0.75 0.65 0.51 0.46 0.45 0.46 0.48 0.51 0.54 0.59 0.52 0.38 0.27 0.20 0.15 0.11 0.08 0.06 0.06 0.05 0.04 0.04 0.03 0.02 0.01 0.01 0.01 0.01 0.01 0.01 0.01 0.01 0.01 0.01 0.01 0.01 0.01 0.01 0.00 0.01 0.01
0.71 0.78 0.76 0.72 0.64 0.55 0.47 0.42 0.38 0.33 0.29 0.30 0.31 0.29 0.24 0.18 0.16 0.13 0.11 0.09 0.07 0.05 0.04 0.03 0.04 0.04 0.03 0.02 0.02 0.02 0.02 0.02 0.02 0.02 0.02 0.02 0.02 0.01 0.01 0.01 0.01 0.01 0.00
0.33 0.43 0.39 0.43 0.48 0.43 0.37 0.32 0.31 0.29 0.27 0.25 0.23 0.21 0.18 0.13 0.11 0.09 0.08 0.07 0.07 0.07 0.06 0.06 0.06 0.05 0.04 0.04 0.04 0.04 0.03 0.02 0.02 0.01 0.01 0.01 0.01 0.01 0.01 0.01 0.01 0.02 0.01
0.45 0.49 0.46 0.39 0.36 0.33 0.29 0.25 0.22 0.18 0.16 0.15 0.16 0.16 0.12 0.08 0.08 0.06 0.05 0.05 0.05 0.05 0.05 0.05 0.05 0.04 0.03 0.03 0.02 0.01 0.01 0.01 0.01 0.01 0.01 0.01 0.01 0.01 0.01 0.01 0.01 0.02 0.01
0.25 0.26 0.24 0.23 0.22 0.20 0.18 0.16 0.14 0.11 0.10 0.08 0.08 0.06 0.05 0.04 0.04 0.04 0.04 0.05 0.04 0.04 0.03 0.03 0.02 0.01 0.01 0.01 0.01 0.01 0.01 0.01 0.01 0.01 0.01 0.01 0.01 0.01 0.01 0.02 0.02 0.02 0.02
0.14 0.13 0.12 0.12 0.11 0.10 0.09 0.08 0.07 0.06 0.06 0.05 0.04 0.03 0.02 0.03 0.03 0.03 0.03 0.03 0.02 0.01 0.01 0.01 0.00 0.00 0.00 0.00 0.00 0.00 0.01 0.00 0.01 0.01 0.02 0.01 0.01 0.01 0.02 0.02 0.02 0.02 0.02
0.06 0.05 0.05 0.05 0.04 0.04 0.03 0.03 0.02 0.01 0.01 0.01 0.01 0.01 0.01 0.01 0.01 0.01 0.00 0.00 0.00 0.00 0.00 0.00 0.00 0.00 0.00 0.00 0.00 0.00 0.00 0.00 0.01 0.01 0.02 0.02 0.02 0.01 0.01 0.02 0.02 0.02 0.03
0.01 0.01 0.01 0.01 0.00 0.00 0.00 0.00 0.00 0.00 0.00 0.01 0.00 0.01 0.01 0.01 0.00 0.00 0.00 0.00 0.00 0.00 0.00 0.00 0.00 0.00 0.00 0.00 0.00 0.00 0.00 0.00 0.01 0.01 0.01 0.02 0.02 0.01 0.02 0.02 0.02 0.02 0.02
0.00 0.00 0.00 0.00 0.00 0.00 0.00 0.00 0.00 0.00 0.00 0.00 0.01 0.00 0.00 0.01 0.01 0.00 0.00 0.00 0.00 0.00 0.00 0.00 0.00 0.00 0.00 0.00 0.00 0.00 0.00 0.00 0.00 0.00 0.03 0.02 0.02 0.02 0.02 0.03 0.02 0.03 0.02

GFSGL_prec_precacc12_084.txt.gz
Total_Precipitation_Accumulation
0.00 0.00 0.00 0.00 0.00 0.00 0.00 0.00 0.00 0.00 0.00 0.00 0.00 0.00 0.04 0.08 0.09 0.08 0.06 0.05 0.08 0.09 0.10 0.10 0.09 0.10 0.11 0.10 0.10 0.11 0.09 0.07 0.06 0.03 0.02 0.00 0.00 0.00 0.00 0.00 0.00 0.00 0.00
0.10 0.01 0.00 0.00 0.00 0.00 0.00 0.00 0.00 0.00 0.00 0.00 0.00 0.01 0.03 0.05 0.09 0.10 0.08 0.06 0.08 0.12 0.15 0.22 0.23 0.23 0.21 0.17 0.15 0.15 0.14 0.13 0.14 0.11 0.06 0.04 0.02 0.00 0.00 0.00 0.00 0.00 0.00
0.02 0.02 0.01 0.00 0.00 0.00 0.00 0.00 0.00 0.00 0.00 0.00 0.00 0.00 0.00 0.00 0.02 0.09 0.13 0.14 0.17 0.17 0.20 0.23 0.26 0.30 0.28 0.26 0.27 0.25 0.21 0.19 0.17 0.16 0.10 0.04 0.03 0.01 0.00 0.00 0.00 0.00 0.00
0.00 0.00 0.00 0.00 0.00 0.00 0.00 0.00 0.00 0.00 0.00 0.00 0.00 0.00 0.01 0.01 0.00 0.00 0.02 0.02 0.04 0.07 0.14 0.19 0.19 0.18 0.16 0.14 0.13 0.11 0.10 0.12 0.11 0.13 0.13 0.08 0.05 0.03 0.02 0.02 0.01 0.00 0.00
0.00 0.00 0.00 0.02 0.00 0.00 0.00 0.00 0.00 0.00 0.00 0.00 0.00 0.01 0.03 0.05 0.05 0.05 0.04 0.03 0.02 0.02 0.04 0.05 0.05 0.10 0.11 0.09 0.09 0.08 0.10 0.12 0.11 0.11 0.12 0.11 0.09 0.08 0.07 0.05 0.04 0.02 0.01
0.00 0.00 0.00 0.00 0.00 0.00 0.01 0.01 0.00 0.00 0.00 0.01 0.01 0.00 0.01 0.02 0.03 0.02 0.02 0.01 0.02 0.03 0.04 0.04 0.07 0.14 0.11 0.14 0.14 0.14 0.10 0.09 0.10 0.13 0.16 0.19 0.15 0.08 0.05 0.06 0.06 0.06 0.05
0.00 0.00 0.00 0.00 0.00 0.00 0.02 0.01 0.02 0.06 0.02 0.01 0.02 0.02 0.01 0.02 0.04 0.03 0.03 0.02 0.04 0.05 0.05 0.05 0.05 0.07 0.11 0.04 0.08 0.12 0.12 0.16 0.16 0.16 0.19 0.21 0.18 0.17 0.19 0.20 0.17 0.13 0.08
0.00 0.00 0.00 0.00 0.00 0.00 0.01 0.00 0.01 0.03 0.04 0.04 0.04 0.06 0.05 0.06 0.07 0.06 0.08 0.03 0.03 0.04 0.05 0.06 0.07 0.08 0.11 0.11 0.08 0.12 0.15 0.18 0.21 0.24 0.26 0.26 0.25 0.23 0.18 0.16 0.13 0.08 0.03
0.00 0.00 0.00 0.00 0.00 0.00 0.00 0.00 0.00 0.01 0.02 0.03 0.06 0.06 0.06 0.07 0.13 0.10 0.10 0.05 0.08 0.09 0.10 0.14 0.19 0.16 0.36 0.33 0.23 0.22 0.25 0.24 0.27 0.24 0.19 0.17 0.16 0.14 0.11 0.10 0.08 0.04 0.02
0.00 0.00 0.00 0.00 0.00 0.00 0.00 0.00 0.01 0.02 0.03 0.02 0.03 0.04 0.10 0.07 0.17 0.14 0.13 0.08 0.11 0.13 0.14 0.18 0.33 0.21 0.36 0.22 0.14 0.11 0.16 0.19 0.19 0.20 0.18 0.14 0.11 0.09 0.07 0.06 0.04 0.02 0.01
0.00 0.00 0.01 0.01 0.01 0.02 0.04 0.02 0.01 0.01 0.02 0.03 0.04 0.05 0.08 0.14 0.19 0.21 0.17 0.11 0.11 0.16 0.19 0.20 0.26 0.37 0.21 0.18 0.16 0.11 0.16 0.17 0.17 0.15 0.12 0.12 0.11 0.08 0.07 0.05 0.03 0.01 0.00
0.00 0.00 0.02 0.06 0.05 0.04 0.03 0.04 0.04 0.03 0.04 0.03 0.04 0.08 0.08 0.11 0.22 0.20 0.17 0.19 0.24 0.17 0.21 0.21 0.30 0.36 0.21 0.18 0.19 0.18 0.19 0.18 0.16 0.16 0.14 0.11 0.07 0.04 0.02 0.01 0.01 0.00 0.00
0.01 0.02 0.04 0.07 0.07 0.08 0.10 0.08 0.07 0.08 0.08 0.08 0.08 0.09 0.10 0.10 0.17 0.22 0.17 0.16 0.15 0.11 0.13 0.22 0.29 0.26 0.17 0.14 0.14 0.12 0.10 0.10 0.10 0.10 0.09 0.06 0.02 0.01 0.00 0.00 0.00 0.00 0.00
0.02 0.02 0.02 0.06 0.11 0.08 0.08 0.07 0.08 0.10 0.14 0.19 0.24 0.25 0.28 0.30 0.29 0.29 0.27 0.24 0.24 0.21 0.23 0.26 0.24 0.20 0.18 0.18 0.18 0.15 0.11 0.08 0.06 0.05 0.04 0.04 0.02 0.01 0.01 0.00 0.00 0.00 0.00
0.06 0.07 0.08 0.07 0.07 0.07 0.08 0.15 0.16 0.21 0.32 0.33 0.37 0.41 0.41 0.45 0.43 0.36 0.28 0.22 0.20 0.22 0.20 0.18 0.18 0.19 0.19 0.16 0.12 0.08 0.06 0.05 0.05 0.04 0.05 0.04 0.02 0.01 0.00 0.00 0.00 0.00 0.00
0.10 0.11 0.16 0.15 0.15 0.16 0.16 0.21 0.27 0.28 0.29 0.29 0.35 0.38 0.52 0.58 0.62 0.51 0.42 0.36 0.31 0.28 0.27 0.28 0.27 0.22 0.17 0.13 0.10 0.08 0.06 0.05 0.04 0.02 0.01 0.01 0.00 0.00 0.00 0.00 0.00 0.00 0.00
0.18 0.19 0.18 0.16 0.18 0.20 0.23 0.26 0.34 0.49 0.57 0.64 0.71 0.77 0.68 0.67 0.62 0.56 0.48 0.42 0.35 0.27 0.22 0.20 0.18 0.16 0.12 0.08 0.06 0.04 0.04 0.02 0.01 0.01 0.01 0.01 0.01 0.01 0.01 0.00 0.00 0.01 0.01
0.79 0.85 0.82 0.85 0.81 0.76 0.73 0.73 0.72 0.68 0.72 0.80 0.72 0.58 0.49 0.44 0.38 0.32 0.26 0.20 0.18 0.15 0.13 0.11 0.09 0.06 0.03 0.02 0.01 0.01 0.01 0.01 0.01 0.01 0.01 0.01 0.01 0.01 0.01 0.01 0.01 0.01 0.01
0.66 0.74 0.75 0.75 0.75 0.70 0.63 0.59 0.54 0.48 0.41 0.41 0.38 0.36 0.34 0.28 0.24 0.21 0.18 0.13 0.11 0.09 0.07 0.05 0.04 0.03 0.02 0.02 0.02 0.02 0.02 0.02 0.02 0.02 0.02 0.02 0.02 0.02 0.01 0.01 0.01 0.01 0.01
0.34 0.42 0.38 0.41 0.47 0.47 0.45 0.41 0.39 0.35 0.32 0.31 0.29 0.28 0.25 0.17 0.16 0.14 0.12 0.10 0.08 0.07 0.05 0.04 0.03 0.03 0.03 0.03 0.03 0.03 0.03 0.02 0.02 0.01 0.01 0.01 0.01 0.01 0.02 0.01 0.01 0.02 0.01
0.39 0.43 0.40 0.36 0.36 0.36 0.34 0.30 0.27 0.22 0.20 0.18 0.20 0.19 0.13 0.10 0.10 0.08 0.06 0.05 0.04 0.03 0.03 0.03 0.03 0.03 0.03 0.02 0.02 0.01 0.01 0.01 0.01 0.01 0.01 0.01 0.01 0.01 0.01 0.01 0.02 0.02 0.02
0.22 0.23 0.22 0.22 0.22 0.21 0.21 0.19 0.18 0.16 0.15 0.13 0.13 0.10 0.07 0.05 0.04 0.03 0.03 0.03 0.03 0.02 0.01 0.02 0.01 0.01 0.01 0.01 0.01 0.01 0.01 0.01 0.01 0.01 0.01 0.01 0.01 0.01 0.01 0.02 0.02 0.02 0.02
0.12 0.12 0.11 0.11 0.11 0.11 0.10 0.10 0.09 0.09 0.08 0.07 0.05 0.04 0.02 0.02 0.02 0.02 0.02 0.02 0.01 0.01 0.00 0.00 0.00 0.00 0.00 0.00 0.00 0.00 0.01 0.00 0.01 0.01 0.01 0.01 0.01 0.01 0.02 0.02 0.02 0.02 0.02
0.06 0.05 0.05 0.05 0.04 0.04 0.03 0.02 0.02 0.01 0.01 0.01 0.01 0.01 0.01 0.01 0.01 0.01 0.01 0.00 0.00 0.01 0.00 0.00 0.00 0.00 0.00 0.00 0.00 0.00 0.00 0.00 0.01 0.01 0.01 0.02 0.01 0.01 0.01 0.02 0.02 0.02 0.02
0.01 0.00 0.00 0.00 0.00 0.00 0.00 0.00 0.00 0.00 0.00 0.00 0.01 0.01 0.01 0.01 0.01 0.01 0.01 0.00 0.00 0.00 0.00 0.00 0.00 0.00 0.00 0.00 0.00 0.00 0.00 0.00 0.00 0.00 0.01 0.01 0.01 0.01 0.02 0.02 0.02 0.03 0.02
0.00 0.00 0.00 0.00 0.00 0.00 0.00 0.00 0.00 0.00 0.00 0.01 0.01 0.01 0.00 0.00 0.00 0.00 0.00 0.00 0.00 0.00 0.00 0.00 0.00 0.00 0.00 0.00 0.00 0.00 0.00 0.00 0.00 0.00 0.01 0.01 0.02 0.02 0.02 0.03 0.02 0.03 0.02

GFSGL_prec_precacc12_087.txt.gz
Total_Precipitation_Accumulation
0.00 0.00 0.00 0.00 0.00 0.00 0.00 0.00 0.00 0.00 0.00 0.00 0.00 0.00 0.00 0.00 0.01 0.01 0.01 0.01 0.02 0.05 0.07 0.08 0.07 0.09 0.11 0.11 0.12 0.14 0.12 0.09 0.07 0.03 0.02 0.00 0.00 0.00 0.00 0.00 0.00 0.00 0.00
0.03 0.00 0.00 0.00 0.00 0.00 0.00 0.00 0.00 0.00 0.00 0.00 0.00 0.00 0.00 0.00 0.00 0.00 0.01 0.02 0.03 0.04 0.07 0.15 0.18 0.22 0.21 0.17 0.16 0.16 0.16 0.15 0.16 0.11 0.06 0.04 0.03 0.02 0.01 0.00 0.00 0.00 0.00
0.00 0.01 0.00 0.00 0.00 0.00 0.00 0.00 0.00 0.00 0.00 0.00 0.00 0.00 0.00 0.00 0.00 0.00 0.01 0.01 0.05 0.10 0.12 0.16 0.20 0.25 0.26 0.26 0.28 0.27 0.22 0.20 0.18 0.17 0.11 0.05 0.04 0.02 0.01 0.00 0.00 0.00 0.00
0.00 0.00 0.00 0.00 0.00 0.00 0.00 0.00 0.00 0.00 0.00 0.00 0.00 0.00 0.00 0.00 0.00 0.00 0.01 0.01 0.01 0.05 0.10 0.12 0.11 0.12 0.13 0.13 0.12 0.12 0.13 0.16 0.17 0.19 0.17 0.10 0.06 0.04 0.03 0.02 0.01 0.01 0.00
0.00 0.00 0.00 0.01 0.00 0.00 0.00 0.00 0.00 0.00 0.00 0.00 0.00 0.00 0.00 0.02 0.02 0.01 0.01 0.02 0.01 0.00 0.00 0.01 0.01 0.03 0.05 0.07 0.09 0.10 0.13 0.16 0.15 0.16 0.17 0.16 0.12 0.11 0.10 0.08 0.09 0.06 0.04
0.00 0.00 0.00 0.00 0.00 0.00 0.01 0.01 0.00 0.00 0.00 0.00 0.00 0.00 0.00 0.00 0.00 0.00 0.00 0.00 0.01 0.01 0.01 0.01 0.02 0.06 0.07 0.12 0.14 0.16 0.13 0.12 0.12 0.16 0.19 0.22 0.19 0.15 0.15 0.16 0.15 0.16 0.18
0.00 0.00 0.00 0.01 0.00 0.00 0.00 0.01 0.01 0.05 0.02 0.00 0.01 0.00 0.00 0.00 0.00 0.01 0.01 0.01 0.02 0.02 0.02 0.03 0.03 0.05 0.08 0.04 0.09 0.15 0.16 0.21 0.20 0.20 0.23 0.24 0.25 0.24 0.28 0.35 0.36 0.31 0.25
0.02 0.01 0.00 0.01 0.02 0.03 0.00 0.00 0.00 0.02 0.03 0.03 0.04 0.03 0.01 0.01 0.02 0.03 0.05 0.03 0.02 0.03 0.02 0.03 0.06 0.08 0.11 0.11 0.09 0.14 0.17 0.23 0.29 0.32 0.35 0.38 0.37 0.35 0.32 0.30 0.27 0.24 0.21
0.03 0.04 0.01 0.01 0.03 0.04 0.01 0.00 0.00 0.00 0.00 0.01 0.05 0.05 0.03 0.04 0.08 0.07 0.07 0.02 0.03 0.04 0.05 0.11 0.18 0.16 0.36 0.35 0.24 0.23 0.28 0.32 0.45 0.43 0.37 0.38 0.35 0.29 0.22 0.18 0.19 0.19 0.19
0.00 0.03 0.02 0.05 0.05 0.04 0.03 0.01 0.00 0.00 0.01 0.00 0.02 0.02 0.06 0.05 0.11 0.09 0.06 0.02 0.03 0.09 0.13 0.18 0.35 0.23 0.39 0.24 0.15 0.11 0.18 0.26 0.26 0.29 0.29 0.28 0.26 0.24 0.22 0.19 0.18 0.16 0.12
0.00 0.00 0.01 0.03 0.07 0.06 0.06 0.05 0.03 0.05 0.04 0.02 0.03 0.02 0.04 0.10 0.13 0.15 0.11 0.05 0.06 0.15 0.21 0.24 0.31 0.46 0.26 0.25 0.24 0.14 0.24 0.31 0.32 0.29 0.27 0.25 0.19 0.16 0.14 0.13 0.10 0.08 0.05
0.00 0.00 0.01 0.04 0.06 0.09 0.08 0.11 0.09 0.05 0.04 0.01 0.01 0.04 0.04 0.06 0.16 0.17 0.16 0.21 0.30 0.20 0.27 0.29 0.40 0.48 0.29 0.27 0.27 0.29 0.32 0.28 0.24 0.24 0.22 0.21 0.18 0.14 0.09 0.04 0.02 0.02 0.01
0.00 0.01 0.02 0.06 0.09 0.13 0.17 0.16 0.15 0.14 0.10 0.10 0.09 0.08 0.09 0.10 0.16 0.25 0.23 0.27 0.29 0.21 0.28 0.39 0.46 0.38 0.25 0.21 0.23 0.22 0.19 0.17 0.17 0.18 0.17 0.14 0.08 0.05 0.03 0.02 0.01 0.01 0.01
0.01 0.01 0.02 0.07 0.11 0.09 0.11 0.11 0.12 0.12 0.14 0.18 0.22 0.24 0.27 0.31 0.34 0.38 0.40 0.43 0.45 0.46 0.54 0.57 0.52 0.45 0.39 0.34 0.34 0.29 0.22 0.18 0.15 0.14 0.14 0.13 0.09 0.06 0.04 0.02 0.01 0.01 0.00
0.06 0.07 0.08 0.08 0.08 0.07 0.09 0.17 0.21 0.30 0.41 0.45 0.54 0.61 0.62 0.62 0.69 0.68 0.62 0.62 0.67 0.71 0.67 0.67 0.66 0.60 0.55 0.47 0.39 0.32 0.25 0.20 0.17 0.14 0.12 0.09 0.06 0.03 0.01 0.00 0.00 0.00 0.00
0.10 0.11 0.17 0.16 0.17 0.19 0.20 0.24 0.32 0.36 0.37 0.39 0.49 0.56 0.72 0.79 0.88 0.79 0.78 0.78 0.77 0.76 0.71 0.72 0.71 0.62 0.53 0.42 0.31 0.22 0.16 0.12 0.09 0.06 0.04 0.02 0.01 0.00 0.00 0.00 0.00 0.00 0.00
0.18 0.19 0.19 0.18 0.23 0.29 0.35 0.40 0.49 0.64 0.70 0.78 0.82 0.87 0.84 0.93 0.89 0.84 0.79 0.73 0.66 0.54 0.46 0.42 0.36 0.31 0.24 0.17 0.13 0.09 0.07 0.04 0.01 0.01 0.01 0.01 0.01 0.01 0.01 0.00 0.00 0.01 0.01
0.77 0.83 0.81 0.87 0.86 0.83 0.78 0.73 0.72 0.70 0.77 0.99 1.00 0.90 0.84 0.78 0.70 0.60 0.48 0.34 0.29 0.23 0.21 0.18 0.16 0.12 0.09 0.06 0.04 0.02 0.01 0.01 0.01 0.01 0.01 0.01 0.01 0.01 0.01 0.01 0.01 0.01 0.01
0.52 0.65 0.72 0.74 0.73 0.70 0.67 0.63 0.60 0.55 0.50 0.51 0.47 0.44 0.43 0.37 0.33 0.31 0.26 0.20 0.17 0.15 0.11 0.09 0.08 0.06 0.04 0.02 0.01 0.01 0.01 0.01 0.01 0.02 0.01 0.02 0.02 0.02 0.01 0.01 0.01 0.01 0.01
0.28 0.34 0.31 0.36 0.42 0.41 0.41 0.41 0.43 0.42 0.41 0.40 0.38 0.37 0.33 0.22 0.21 0.20 0.17 0.14 0.11 0.10 0.06 0.04 0.02 0.01 0.01 0.01 0.01 0.01 0.01 0.01 0.01 0.01 0.01 0.01 0.01 0.01 0.01 0.01 0.01 0.02 0.01
0.31 0.35 0.33 0.31 0.34 0.35 0.34 0.31 0.28 0.25 0.22 0.21 0.24 0.23 0.17 0.12 0.13 0.11 0.08 0.06 0.04 0.02 0.02 0.01 0.01 0.01 0.01 0.01 0.00 0.00 0.01 0.00 0.01 0.01 0.01 0.01 0.01 0.01 0.01 0.01 0.01 0.02 0.02
0.18 0.20 0.20 0.20 0.21 0.21 0.21 0.19 0.18 0.16 0.15 0.14 0.14 0.11 0.07 0.05 0.04 0.03 0.02 0.01 0.01 0.01 0.00 0.01 0.00 0.00 0.00 0.00 0.00 0.00 0.00 0.01 0.01 0.01 0.01 0.00 0.01 0.01 0.01 0.01 0.02 0.02 0.02
0.13 0.12 0.11 0.11 0.11 0.11 0.10 0.10 0.09 0.08 0.08 0.06 0.04 0.03 0.01 0.01 0.01 0.01 0.02 0.01 0.01 0.01 0.00 0.00 0.00 0.00 0.00 0.00 0.00 0.00 0.01 0.01 0.00 0.01 0.01 0.01 0.01 0.01 0.01 0.02 0.01 0.02 0.02
0.06 0.05 0.04 0.04 0.04 0.04 0.03 0.02 0.01 0.01 0.01 0.01 0.01 0.01 0.01 0.01 0.01 0.01 0.01 0.00 0.00 0.01 0.00 0.00 0.00 0.00 0.00 0.00 0.00 0.00 0.00 0.00 0.00 0.00 0.01 0.01 0.01 0.01 0.01 0.01 0.01 0.01 0.02
0.00 0.00 0.00 0.00 0.00 0.00 0.00 0.00 0.00 0.00 0.00 0.01 0.01 0.01 0.01 0.01 0.01 0.01 0.01 0.00 0.00 0.00 0.00 0.00 0.00 0.00 0.00 0.00 0.00 0.00 0.00 0.00 0.00 0.00 0.00 0.01 0.01 0.01 0.01 0.01 0.02 0.02 0.02
0.00 0.00 0.00 0.00 0.00 0.00 0.00 0.00 0.00 0.00 0.00 0.01 0.01 0.01 0.00 0.00 0.01 0.00 0.00 0.00 0.00 0.00 0.00 0.00 0.00 0.00 0.00 0.00 0.00 0.00 0.00 0.00 0.00 0.00 0.01 0.01 0.01 0.01 0.02 0.02 0.02 0.02 0.01

GFSGL_prec_precacc12_090.txt.gz
Total_Precipitation_Accumulation
0.00 0.00 0.00 0.00 0.00 0.00 0.00 0.00 0.00 0.00 0.00 0.00 0.00 0.00 0.00 0.00 0.01 0.01 0.01 0.01 0.02 0.04 0.05 0.05 0.03 0.05 0.07 0.07 0.08 0.12 0.11 0.10 0.10 0.03 0.02 0.00 0.00 0.00 0.00 0.00 0.00 0.00 0.01
0.00 0.00 0.00 0.00 0.00 0.00 0.00 0.00 0.00 0.00 0.00 0.00 0.00 0.00 0.00 0.00 0.00 0.00 0.00 0.00 0.01 0.01 0.01 0.03 0.01 0.03 0.04 0.08 0.10 0.15 0.15 0.15 0.16 0.12 0.06 0.04 0.02 0.01 0.01 0.00 0.00 0.01 0.00
0.00 0.00 0.00 0.00 0.00 0.00 0.00 0.00 0.00 0.00 0.00 0.00 0.00 0.00 0.00 0.00 0.00 0.00 0.00 0.00 0.00 0.00 0.00 0.01 0.01 0.06 0.09 0.15 0.17 0.18 0.21 0.20 0.18 0.17 0.11 0.05 0.04 0.02 0.01 0.00 0.00 0.00 0.00
0.00 0.00 0.00 0.00 0.00 0.00 0.00 0.00 0.00 0.00 0.00 0.00 0.00 0.00 0.00 0.00 0.00 0.00 0.00 0.00 0.00 0.00 0.00 0.01 0.01 0.04 0.05 0.08 0.09 0.09 0.12 0.15 0.16 0.19 0.18 0.10 0.06 0.04 0.03 0.03 0.02 0.01 0.01
0.01 0.00 0.00 0.01 0.00 0.00 0.00 0.00 0.00 0.00 0.00 0.00 0.00 0.00 0.00 0.00 0.00 0.00 0.00 0.00 0.00 0.00 0.00 0.00 0.00 0.01 0.01 0.02 0.04 0.05 0.08 0.11 0.14 0.16 0.17 0.16 0.12 0.11 0.10 0.09 0.09 0.07 0.05
0.03 0.01 0.02 0.01 0.02 0.02 0.01 0.01 0.00 0.00 0.00 0.00 0.00 0.00 0.01 0.00 0.00 0.00 0.00 0.00 0.00 0.00 0.00 0.00 0.00 0.02 0.03 0.05 0.06 0.09 0.09 0.11 0.13 0.16 0.20 0.22 0.19 0.15 0.15 0.17 0.15 0.18 0.22
0.11 0.12 0.06 0.07 0.06 0.04 0.06 0.03 0.01 0.04 0.01 0.00 0.00 0.00 0.00 0.00 0.00 0.00 0.00 0.00 0.00 0.00 0.00 0.00 0.00 0.01 0.03 0.02 0.06 0.14 0.16 0.21 0.21 0.21 0.24 0.25 0.26 0.25 0.29 0.37 0.40 0.38 0.34
0.11 0.15 0.12 0.07 0.08 0.09 0.05 0.03 0.03 0.04 0.03 0.02 0.02 0.02 0.00 0.00 0.01 0.02 0.02 0.01 0.00 0.01 0.00 0.00 0.02 0.04 0.05 0.06 0.05 0.13 0.17 0.24 0.31 0.34 0.40 0.45 0.44 0.43 0.41 0.40 0.40 0.43 0.41
0.04 0.08 0.07 0.07 0.10 0.13 0.08 0.04 0.02 0.02 0.04 0.03 0.06 0.06 0.03 0.03 0.04 0.05 0.03 0.01 0.01 0.02 0.02 0.03 0.06 0.04 0.19 0.20 0.14 0.21 0.31 0.38 0.54 0.55 0.49 0.53 0.53 0.44 0.32 0.27 0.30 0.30 0.32
0.00 0.04 0.04 0.07 0.10 0.11 0.12 0.11 0.08 0.05 0.07 0.08 0.06 0.05 0.05 0.05 0.08 0.07 0.05 0.02 0.03 0.05 0.06 0.09 0.25 0.16 0.30 0.21 0.15 0.11 0.19 0.28 0.29 0.34 0.35 0.36 0.35 0.33 0.34 0.30 0.27 0.26 0.24
0.00 0.00 0.01 0.03 0.08 0.07 0.10 0.11 0.10 0.14 0.13 0.09 0.04 0.03 0.05 0.10 0.12 0.15 0.10 0.05 0.05 0.11 0.16 0.19 0.27 0.46 0.26 0.28 0.29 0.18 0.32 0.45 0.48 0.40 0.34 0.35 0.32 0.27 0.25 0.21 0.16 0.12 0.09
0.00 0.00 0.01 0.04 0.06 0.08 0.09 0.12 0.12 0.13 0.12 0.08 0.06 0.07 0.08 0.08 0.17 0.17 0.15 0.18 0.21 0.13 0.22 0.29 0.44 0.59 0.37 0.37 0.40 0.47 0.54 0.46 0.37 0.38 0.39 0.38 0.34 0.29 0.21 0.13 0.07 0.04 0.03
0.00 0.00 0.01 0.04 0.07 0.10 0.13 0.15 0.16 0.19 0.18 0.18 0.18 0.16 0.16 0.17 0.20 0.30 0.25 0.30 0.34 0.26 0.35 0.52 0.59 0.51 0.37 0.34 0.39 0.42 0.40 0.38 0.42 0.44 0.42 0.36 0.27 0.20 0.15 0.13 0.10 0.08 0.06
0.01 0.01 0.02 0.05 0.09 0.09 0.10 0.11 0.12 0.15 0.19 0.28 0.35 0.37 0.36 0.34 0.34 0.36 0.43 0.53 0.63 0.71 0.90 0.94 0.78 0.68 0.65 0.69 0.80 0.77 0.70 0.65 0.64 0.63 0.61 0.56 0.44 0.30 0.19 0.11 0.06 0.03 0.01
0.05 0.06 0.07 0.07 0.07 0.07 0.09 0.17 0.21 0.32 0.46 0.53 0.65 0.75 0.77 0.83 0.93 0.86 0.74 0.73 0.77 0.87 0.89 0.94 0.94 0.93 0.94 0.93 0.90 0.86 0.80 0.71 0.60 0.50 0.40 0.29 0.19 0.10 0.04 0.01 0.00 0.00 0.00
0.09 0.11 0.16 0.16 0.17 0.18 0.19 0.24 0.33 0.37 0.38 0.40 0.50 0.58 0.78 0.96 1.10 1.05 1.07 1.07 1.10 1.14 1.10 1.13 1.14 1.02 0.90 0.79 0.67 0.56 0.44 0.33 0.25 0.17 0.11 0.06 0.03 0.01 0.00 0.00 0.00 0.00 0.00
0.16 0.18 0.18 0.17 0.22 0.28 0.33 0.39 0.50 0.63 0.65 0.70 0.77 0.83 0.84 0.96 0.94 0.91 0.86 0.82 0.79 0.67 0.61 0.60 0.55 0.47 0.39 0.30 0.24 0.19 0.16 0.10 0.05 0.03 0.01 0.01 0.01 0.00 0.00 0.00 0.00 0.01 0.01
0.49 0.59 0.60 0.68 0.71 0.68 0.67 0.67 0.68 0.68 0.75 0.95 1.02 0.97 0.91 0.85 0.77 0.67 0.58 0.43 0.41 0.35 0.31 0.28 0.25 0.20 0.15 0.11 0.08 0.05 0.03 0.02 0.01 0.00 0.00 0.01 0.01 0.01 0.01 0.01 0.01 0.01 0.01
0.25 0.36 0.42 0.50 0.58 0.61 0.61 0.59 0.56 0.52 0.47 0.50 0.47 0.44 0.46 0.39 0.35 0.34 0.30 0.24 0.23 0.20 0.16 0.14 0.12 0.09 0.06 0.03 0.01 0.01 0.01 0.01 0.01 0.01 0.01 0.01 0.01 0.01 0.01 0.01 0.01 0.01 0.01
0.14 0.20 0.20 0.25 0.31 0.33 0.35 0.36 0.37 0.37 0.37 0.37 0.36 0.38 0.36 0.24 0.23 0.23 0.21 0.17 0.14 0.13 0.09 0.06 0.03 0.01 0.01 0.00 0.01 0.01 0.01 0.00 0.00 0.00 0.00 0.00 0.01 0.01 0.01 0.01 0.01 0.01 0.01
0.14 0.17 0.17 0.17 0.21 0.25 0.26 0.25 0.24 0.21 0.20 0.19 0.23 0.24 0.17 0.13 0.15 0.13 0.10 0.07 0.05 0.03 0.02 0.01 0.01 0.00 0.00 0.00 0.00 0.00 0.00 0.00 0.00 0.00 0.00 0.00 0.00 0.00 0.00 0.01 0.01 0.01 0.01
0.11 0.12 0.13 0.15 0.17 0.17 0.19 0.18 0.17 0.16 0.15 0.14 0.15 0.12 0.07 0.06 0.04 0.03 0.01 0.01 0.01 0.01 0.00 0.00 0.00 0.00 0.00 0.00 0.00 0.00 0.00 0.00 0.00 0.00 0.00 0.00 0.00 0.00 0.00 0.01 0.01 0.01 0.01
0.09 0.09 0.10 0.11 0.11 0.11 0.11 0.10 0.09 0.08 0.07 0.06 0.04 0.03 0.01 0.01 0.01 0.01 0.01 0.01 0.00 0.00 0.00 0.00 0.00 0.00 0.00 0.00 0.00 0.00 0.00 0.00 0.00 0.00 0.00 0.00 0.00 0.00 0.00 0.01 0.01 0.01 0.01
0.06 0.06 0.05 0.05 0.04 0.03 0.03 0.02 0.01 0.01 0.01 0.01 0.01 0.00 0.01 0.01 0.00 0.00 0.00 0.00 0.00 0.00 0.00 0.00 0.00 0.00 0.00 0.00 0.00 0.00 0.00 0.00 0.00 0.00 0.00 0.00 0.00 0.00 0.00 0.00 0.01 0.01 0.01
0.00 0.00 0.00 0.00 0.00 0.00 0.00 0.00 0.00 0.00 0.00 0.00 0.01 0.01 0.01 0.01 0.00 0.00 0.00 0.00 0.00 0.00 0.00 0.00 0.00 0.00 0.00 0.00 0.00 0.00 0.00 0.00 0.00 0.00 0.00 0.00 0.00 0.00 0.01 0.01 0.01 0.01 0.01
0.00 0.00 0.00 0.00 0.00 0.00 0.00 0.00 0.00 0.00 0.00 0.01 0.01 0.00 0.00 0.00 0.00 0.00 0.00 0.00 0.00 0.00 0.00 0.00 0.00 0.00 0.00 0.00 0.00 0.00 0.00 0.00 0.00 0.00 0.00 0.00 0.01 0.01 0.01 0.01 0.01 0.01 0.01

GFSGL_prec_precacc12_093.txt.gz
Total_Precipitation_Accumulation
0.00 0.00 0.00 0.00 0.00 0.00 0.00 0.00 0.00 0.00 0.00 0.00 0.00 0.00 0.00 0.00 0.00 0.00 0.00 0.01 0.01 0.01 0.02 0.03 0.01 0.03 0.05 0.06 0.07 0.08 0.06 0.05 0.06 0.01 0.01 0.00 0.00 0.00 0.00 0.00 0.01 0.00 0.01
0.00 0.00 0.00 0.00 0.00 0.00 0.00 0.00 0.00 0.00 0.00 0.00 0.00 0.00 0.00 0.00 0.00 0.00 0.00 0.00 0.00 0.00 0.01 0.02 0.00 0.02 0.02 0.02 0.03 0.02 0.02 0.03 0.07 0.07 0.05 0.04 0.02 0.01 0.01 0.00 0.00 0.01 0.00
0.01 0.00 0.00 0.00 0.00 0.00 0.00 0.00 0.00 0.00 0.00 0.00 0.00 0.00 0.00 0.00 0.00 0.00 0.00 0.00 0.00 0.00 0.00 0.01 0.01 0.03 0.01 0.01 0.02 0.02 0.03 0.06 0.10 0.12 0.09 0.05 0.04 0.02 0.01 0.00 0.00 0.00 0.00
0.03 0.01 0.00 0.00 0.00 0.00 0.00 0.00 0.00 0.00 0.00 0.00 0.00 0.00 0.00 0.00 0.00 0.00 0.00 0.00 0.00 0.00 0.00 0.00 0.00 0.01 0.00 0.00 0.01 0.02 0.05 0.07 0.09 0.12 0.16 0.09 0.06 0.04 0.03 0.03 0.02 0.01 0.01
0.07 0.02 0.04 0.02 0.00 0.00 0.00 0.00 0.00 0.00 0.00 0.00 0.00 0.00 0.00 0.00 0.00 0.00 0.00 0.00 0.00 0.00 0.00 0.00 0.00 0.00 0.01 0.02 0.03 0.03 0.06 0.07 0.07 0.08 0.11 0.11 0.09 0.10 0.10 0.09 0.09 0.07 0.05
0.03 0.08 0.11 0.09 0.07 0.04 0.03 0.01 0.00 0.00 0.00 0.00 0.00 0.00 0.01 0.00 0.00 0.00 0.00 0.00 0.00 0.00 0.00 0.00 0.00 0.00 0.01 0.01 0.02 0.03 0.05 0.06 0.06 0.08 0.13 0.20 0.17 0.15 0.15 0.17 0.15 0.18 0.22
0.12 0.14 0.10 0.12 0.11 0.11 0.12 0.07 0.07 0.08 0.04 0.03 0.02 0.00 0.00 0.00 0.00 0.01 0.00 0.00 0.00 0.00 0.00 0.00 0.00 0.00 0.00 0.00 0.02 0.07 0.10 0.15 0.16 0.17 0.19 0.20 0.23 0.24 0.29 0.38 0.40 0.39 0.38
0.11 0.16 0.13 0.07 0.09 0.12 0.09 0.09 0.10 0.10 0.08 0.06 0.07 0.08 0.04 0.03 0.02 0.01 0.01 0.01 0.00 0.01 0.00 0.00 0.00 0.01 0.01 0.01 0.02 0.07 0.10 0.13 0.17 0.19 0.26 0.34 0.41 0.43 0.42 0.44 0.47 0.52 0.52
0.04 0.08 0.08 0.08 0.11 0.13 0.10 0.06 0.05 0.05 0.08 0.09 0.12 0.14 0.09 0.07 0.09 0.07 0.03 0.01 0.01 0.00 0.00 0.00 0.01 0.01 0.09 0.12 0.08 0.08 0.16 0.24 0.41 0.45 0.44 0.52 0.56 0.50 0.43 0.39 0.45 0.48 0.54
0.00 0.04 0.04 0.07 0.10 0.11 0.13 0.13 0.12 0.08 0.08 0.10 0.09 0.09 0.09 0.09 0.12 0.11 0.06 0.03 0.04 0.05 0.04 0.05 0.15 0.11 0.18 0.13 0.08 0.04 0.11 0.18 0.20 0.26 0.31 0.36 0.38 0.39 0.43 0.38 0.37 0.41 0.41
0.00 0.00 0.01 0.03 0.08 0.07 0.10 0.11 0.11 0.16 0.17 0.15 0.11 0.10 0.10 0.12 0.13 0.17 0.13 0.10 0.11 0.15 0.18 0.20 0.21 0.38 0.21 0.23 0.24 0.14 0.31 0.45 0.54 0.47 0.42 0.43 0.40 0.36 0.37 0.36 0.34 0.30 0.28
0.00 0.00 0.01 0.04 0.06 0.08 0.09 0.11 0.10 0.11 0.13 0.12 0.13 0.12 0.11 0.10 0.22 0.19 0.17 0.21 0.29 0.30 0.43 0.43 0.50 0.59 0.34 0.38 0.44 0.58 0.67 0.53 0.40 0.47 0.53 0.54 0.51 0.46 0.39 0.32 0.28 0.25 0.23
0.00 0.00 0.01 0.04 0.07 0.10 0.13 0.13 0.13 0.15 0.16 0.17 0.21 0.23 0.24 0.23 0.25 0.35 0.29 0.35 0.45 0.49 0.72 0.91 0.87 0.68 0.53 0.52 0.65 0.71 0.67 0.59 0.63 0.72 0.74 0.72 0.62 0.53 0.47 0.45 0.42 0.36 0.30
0.00 0.01 0.01 0.04 0.06 0.06 0.07 0.08 0.09 0.12 0.17 0.26 0.34 0.37 0.39 0.39 0.40 0.42 0.48 0.57 0.69 0.81 1.00 1.07 1.03 0.93 0.86 0.91 1.09 1.13 1.12 1.17 1.18 1.15 1.11 1.06 0.91 0.75 0.61 0.48 0.36 0.27 0.20
0.02 0.03 0.04 0.04 0.04 0.04 0.06 0.11 0.14 0.27 0.39 0.49 0.62 0.72 0.76 0.83 0.92 0.92 0.86 0.85 0.87 0.94 0.95 1.02 1.09 1.11 1.12 1.14 1.12 1.11 1.08 1.02 0.92 0.82 0.69 0.56 0.43 0.30 0.21 0.13 0.08 0.05 0.04
0.04 0.04 0.08 0.09 0.12 0.14 0.16 0.19 0.28 0.31 0.32 0.35 0.44 0.52 0.73 0.92 1.05 1.03 1.07 1.11 1.16 1.19 1.13 1.19 1.24 1.21 1.12 1.02 0.88 0.76 0.63 0.52 0.43 0.32 0.23 0.16 0.09 0.05 0.02 0.01 0.01 0.00 0.01
0.09 0.10 0.11 0.12 0.18 0.25 0.32 0.37 0.46 0.53 0.53 0.56 0.59 0.64 0.69 0.84 0.85 0.84 0.80 0.77 0.77 0.65 0.60 0.60 0.55 0.49 0.43 0.36 0.31 0.26 0.23 0.17 0.11 0.07 0.04 0.02 0.01 0.00 0.00 0.00 0.00 0.00 0.00
0.06 0.12 0.19 0.34 0.47 0.47 0.44 0.41 0.40 0.41 0.48 0.67 0.77 0.78 0.78 0.75 0.70 0.64 0.56 0.42 0.40 0.34 0.31 0.30 0.28 0.25 0.21 0.17 0.14 0.10 0.06 0.03 0.01 0.00 0.00 0.00 0.01 0.00 0.00 0.00 0.00 0.00 0.00
0.04 0.07 0.11 0.16 0.24 0.30 0.35 0.37 0.37 0.34 0.31 0.35 0.33 0.32 0.38 0.34 0.32 0.31 0.27 0.24 0.24 0.23 0.20 0.17 0.15 0.12 0.09 0.05 0.02 0.01 0.00 0.00 0.00 0.00 0.00 0.00 0.00 0.00 0.00 0.00 0.00 0.00 0.00
0.08 0.09 0.07 0.09 0.13 0.16 0.19 0.20 0.22 0.22 0.23 0.25 0.25 0.29 0.28 0.18 0.19 0.21 0.19 0.17 0.15 0.14 0.11 0.07 0.04 0.02 0.00 0.00 0.00 0.00 0.00 0.00 0.00 0.00 0.00 0.00 0.00 0.00 0.00 0.00 0.00 0.00 0.00
0.06 0.07 0.06 0.07 0.10 0.13 0.15 0.15 0.15 0.14 0.14 0.15 0.19 0.19 0.14 0.10 0.12 0.12 0.09 0.07 0.05 0.03 0.01 0.00 0.00 0.00 0.00 0.00 0.00 0.00 0.00 0.00 0.00 0.00 0.00 0.00 0.00 0.00 0.00 0.00 0.00 0.00 0.00
0.07 0.08 0.07 0.08 0.09 0.10 0.11 0.12 0.12 0.12 0.12 0.12 0.13 0.11 0.07 0.05 0.03 0.02 0.01 0.00 0.00 0.00 0.00 0.00 0.00 0.00 0.00 0.00 0.00 0.00 0.00 0.00 0.00 0.00 0.00 0.00 0.00 0.00 0.00 0.00 0.00 0.00 0.00
0.06 0.06 0.07 0.07 0.07 0.07 0.07 0.07 0.06 0.06 0.05 0.04 0.03 0.02 0.01 0.01 0.00 0.00 0.01 0.01 0.00 0.00 0.00 0.00 0.00 0.00 0.00 0.00 0.00 0.00 0.00 0.00 0.00 0.00 0.00 0.00 0.00 0.00 0.00 0.00 0.00 0.00 0.00
0.05 0.05 0.04 0.03 0.03 0.02 0.01 0.01 0.00 0.00 0.00 0.00 0.00 0.00 0.00 0.00 0.00 0.00 0.00 0.00 0.00 0.00 0.00 0.00 0.00 0.00 0.00 0.00 0.00 0.00 0.00 0.00 0.00 0.00 0.00 0.00 0.00 0.00 0.00 0.00 0.00 0.00 0.00
0.00 0.00 0.00 0.00 0.00 0.00 0.00 0.00 0.00 0.00 0.00 0.00 0.00 0.01 0.00 0.00 0.00 0.00 0.00 0.00 0.00 0.00 0.00 0.00 0.00 0.00 0.00 0.00 0.00 0.00 0.00 0.00 0.00 0.00 0.00 0.00 0.00 0.00 0.00 0.00 0.01 0.01 0.00
0.00 0.00 0.00 0.00 0.00 0.00 0.00 0.00 0.00 0.00 0.00 0.00 0.00 0.00 0.00 0.00 0.00 0.00 0.00 0.00 0.00 0.00 0.00 0.00 0.00 0.00 0.00 0.00 0.00 0.00 0.00 0.00 0.00 0.00 0.00 0.00 0.00 0.00 0.00 0.00 0.00 0.00 0.00

GFSGL_prec_precacc12_096.txt.gz
Total_Precipitation_Accumulation
0.00 0.00 0.00 0.00 0.00 0.00 0.00 0.00 0.00 0.00 0.00 0.00 0.00 0.00 0.00 0.00 0.00 0.00 0.01 0.01 0.01 0.00 0.00 0.01 0.00 0.01 0.01 0.02 0.03 0.04 0.04 0.05 0.06 0.01 0.00 0.00 0.00 0.01 0.00 0.00 0.01 0.01 0.01
0.00 0.00 0.00 0.00 0.00 0.00 0.00 0.00 0.00 0.00 0.00 0.00 0.00 0.00 0.00 0.00 0.00 0.00 0.00 0.00 0.01 0.01 0.00 0.00 0.00 0.01 0.01 0.00 0.01 0.02 0.02 0.02 0.03 0.01 0.00 0.00 0.01 0.01 0.01 0.00 0.00 0.01 0.00
0.01 0.00 0.00 0.00 0.00 0.00 0.00 0.00 0.00 0.00 0.00 0.00 0.00 0.00 0.00 0.00 0.00 0.00 0.00 0.00 0.00 0.00 0.00 0.00 0.00 0.00 0.00 0.00 0.01 0.02 0.01 0.02 0.02 0.02 0.01 0.01 0.01 0.01 0.01 0.00 0.00 0.00 0.00
0.06 0.06 0.02 0.01 0.00 0.00 0.00 0.00 0.00 0.00 0.00 0.00 0.00 0.00 0.00 0.00 0.00 0.00 0.00 0.00 0.00 0.00 0.00 0.00 0.00 0.00 0.00 0.00 0.00 0.01 0.03 0.05 0.07 0.08 0.05 0.03 0.01 0.00 0.00 0.01 0.00 0.00 0.00
0.13 0.05 0.05 0.03 0.01 0.00 0.00 0.00 0.00 0.00 0.00 0.00 0.00 0.00 0.00 0.00 0.00 0.00 0.00 0.00 0.00 0.00 0.00 0.00 0.00 0.00 0.00 0.00 0.01 0.01 0.04 0.05 0.06 0.05 0.05 0.05 0.03 0.04 0.03 0.03 0.05 0.05 0.04
0.06 0.10 0.13 0.10 0.08 0.05 0.04 0.02 0.01 0.00 0.00 0.00 0.00 0.00 0.01 0.00 0.00 0.00 0.00 0.00 0.00 0.00 0.00 0.00 0.00 0.00 0.00 0.00 0.00 0.02 0.03 0.04 0.03 0.04 0.03 0.03 0.04 0.07 0.09 0.11 0.10 0.11 0.17
0.13 0.15 0.11 0.13 0.11 0.11 0.12 0.07 0.08 0.07 0.03 0.03 0.03 0.01 0.00 0.00 0.00 0.00 0.00 0.00 0.00 0.00 0.00 0.00 0.00 0.00 0.00 0.00 0.01 0.04 0.05 0.05 0.06 0.05 0.05 0.04 0.08 0.08 0.10 0.17 0.23 0.26 0.31
0.11 0.16 0.14 0.08 0.09 0.12 0.10 0.09 0.10 0.10 0.07 0.06 0.09 0.12 0.09 0.07 0.06 0.03 0.02 0.01 0.01 0.01 0.00 0.00 0.00 0.00 0.00 0.00 0.01 0.04 0.05 0.07 0.10 0.11 0.14 0.20 0.20 0.21 0.24 0.29 0.36 0.48 0.53
0.04 0.08 0.08 0.08 0.11 0.14 0.10 0.07 0.07 0.07 0.09 0.10 0.14 0.17 0.13 0.11 0.17 0.09 0.05 0.04 0.06 0.04 0.01 0.00 0.01 0.00 0.01 0.03 0.02 0.02 0.06 0.14 0.28 0.33 0.34 0.41 0.43 0.40 0.34 0.31 0.41 0.52 0.63
0.00 0.04 0.04 0.07 0.10 0.11 0.13 0.13 0.13 0.08 0.09 0.12 0.15 0.15 0.16 0.11 0.18 0.15 0.11 0.09 0.11 0.08 0.06 0.07 0.20 0.14 0.09 0.07 0.04 0.01 0.04 0.11 0.12 0.15 0.19 0.27 0.30 0.33 0.41 0.34 0.33 0.40 0.47
0.00 0.00 0.01 0.03 0.08 0.07 0.10 0.11 0.11 0.16 0.17 0.16 0.16 0.14 0.12 0.14 0.14 0.19 0.14 0.14 0.20 0.23 0.21 0.19 0.19 0.33 0.21 0.22 0.29 0.27 0.47 0.62 0.60 0.46 0.38 0.40 0.37 0.34 0.36 0.38 0.36 0.37 0.40
0.00 0.00 0.00 0.02 0.06 0.08 0.09 0.10 0.10 0.11 0.13 0.12 0.14 0.14 0.14 0.14 0.27 0.21 0.18 0.22 0.35 0.39 0.58 0.60 0.67 0.75 0.58 0.66 0.78 1.00 1.09 0.94 0.77 0.79 0.81 0.78 0.71 0.63 0.56 0.48 0.43 0.42 0.43
0.00 0.00 0.00 0.01 0.03 0.06 0.08 0.11 0.12 0.14 0.14 0.16 0.20 0.21 0.23 0.23 0.24 0.34 0.28 0.34 0.47 0.53 0.77 0.95 0.89 0.73 0.61 0.62 0.76 0.88 0.92 0.92 1.07 1.20 1.23 1.18 1.08 0.99 0.89 0.83 0.76 0.67 0.57
0.00 0.00 0.00 0.01 0.01 0.02 0.03 0.05 0.07 0.08 0.11 0.16 0.21 0.25 0.25 0.24 0.26 0.29 0.36 0.47 0.61 0.78 1.00 1.07 1.05 0.95 0.90 0.96 1.11 1.14 1.15 1.26 1.35 1.42 1.44 1.38 1.22 1.03 0.87 0.73 0.59 0.48 0.37
0.00 0.00 0.00 0.01 0.01 0.01 0.02 0.06 0.09 0.18 0.24 0.28 0.36 0.42 0.44 0.50 0.67 0.73 0.72 0.76 0.81 0.88 0.90 0.97 1.04 1.06 1.09 1.12 1.14 1.14 1.11 1.06 0.98 0.91 0.80 0.69 0.58 0.46 0.36 0.26 0.19 0.13 0.09
0.00 0.00 0.01 0.02 0.03 0.04 0.05 0.08 0.15 0.17 0.19 0.21 0.26 0.32 0.46 0.59 0.71 0.79 0.89 0.94 0.98 1.01 0.97 1.02 1.07 1.06 1.01 0.94 0.83 0.73 0.62 0.52 0.46 0.37 0.30 0.24 0.17 0.11 0.06 0.02 0.01 0.01 0.01
0.00 0.01 0.01 0.03 0.06 0.10 0.14 0.16 0.21 0.26 0.26 0.32 0.35 0.36 0.40 0.53 0.53 0.51 0.49 0.49 0.52 0.46 0.44 0.47 0.44 0.40 0.37 0.32 0.29 0.25 0.23 0.19 0.14 0.09 0.05 0.03 0.01 0.01 0.01 0.00 0.00 0.00 0.00
0.02 0.03 0.03 0.05 0.10 0.13 0.12 0.10 0.10 0.14 0.19 0.37 0.53 0.56 0.56 0.52 0.47 0.43 0.37 0.27 0.27 0.24 0.23 0.22 0.22 0.21 0.19 0.17 0.15 0.11 0.07 0.03 0.01 0.01 0.01 0.00 0.00 0.00 0.00 0.00 0.00 0.00 0.00
0.03 0.05 0.05 0.06 0.07 0.08 0.11 0.12 0.14 0.14 0.14 0.19 0.18 0.18 0.23 0.20 0.18 0.18 0.15 0.15 0.16 0.17 0.15 0.14 0.14 0.12 0.10 0.06 0.02 0.01 0.00 0.00 0.00 0.00 0.00 0.00 0.00 0.00 0.00 0.00 0.00 0.00 0.00
0.04 0.04 0.03 0.04 0.05 0.05 0.05 0.06 0.09 0.11 0.13 0.14 0.14 0.17 0.17 0.10 0.11 0.12 0.12 0.11 0.10 0.11 0.09 0.07 0.04 0.02 0.00 0.00 0.00 0.00 0.00 0.00 0.00 0.00 0.00 0.00 0.00 0.00 0.00 0.00 0.00 0.00 0.00
0.04 0.04 0.04 0.04 0.06 0.06 0.06 0.06 0.07 0.06 0.07 0.08 0.11 0.12 0.09 0.06 0.09 0.08 0.07 0.05 0.04 0.03 0.01 0.00 0.00 0.00 0.00 0.00 0.00 0.00 0.00 0.00 0.00 0.00 0.00 0.00 0.00 0.00 0.00 0.00 0.00 0.00 0.00
0.05 0.06 0.05 0.06 0.07 0.06 0.07 0.07 0.07 0.06 0.06 0.06 0.07 0.06 0.03 0.03 0.02 0.01 0.01 0.00 0.00 0.00 0.00 0.00 0.00 0.00 0.00 0.00 0.00 0.00 0.00 0.00 0.00 0.00 0.00 0.00 0.00 0.00 0.00 0.00 0.00 0.00 0.00
0.06 0.05 0.06 0.06 0.06 0.06 0.05 0.05 0.04 0.03 0.02 0.01 0.01 0.00 0.00 0.00 0.00 0.00 0.00 0.00 0.00 0.00 0.00 0.00 0.00 0.00 0.00 0.00 0.00 0.00 0.00 0.00 0.00 0.00 0.00 0.00 0.00 0.00 0.00 0.00 0.00 0.00 0.00
0.04 0.04 0.03 0.03 0.02 0.01 0.01 0.01 0.00 0.00 0.00 0.00 0.00 0.00 0.00 0.00 0.00 0.00 0.00 0.00 0.00 0.00 0.00 0.00 0.00 0.00 0.00 0.00 0.00 0.00 0.00 0.00 0.00 0.00 0.00 0.00 0.00 0.00 0.00 0.00 0.00 0.00 0.00
0.00 0.00 0.00 0.00 0.00 0.00 0.00 0.00 0.00 0.00 0.00 0.00 0.00 0.00 0.00 0.00 0.00 0.00 0.00 0.00 0.00 0.00 0.00 0.00 0.00 0.00 0.00 0.00 0.00 0.00 0.00 0.00 0.00 0.00 0.00 0.00 0.00 0.00 0.00 0.00 0.00 0.00 0.00
0.00 0.00 0.00 0.00 0.00 0.00 0.00 0.00 0.00 0.00 0.00 0.00 0.00 0.00 0.00 0.00 0.00 0.00 0.00 0.00 0.00 0.00 0.00 0.00 0.00 0.00 0.00 0.00 0.00 0.00 0.00 0.00 0.00 0.00 0.00 0.00 0.00 0.00 0.00 0.00 0.00 0.00 0.00

GFSGL_prec_precacc12_099.txt.gz
Total_Precipitation_Accumulation
0.00 0.00 0.00 0.00 0.00 0.00 0.00 0.00 0.00 0.00 0.00 0.00 0.00 0.00 0.00 0.00 0.00 0.00 0.01 0.01 0.01 0.00 0.00 0.00 0.00 0.00 0.01 0.01 0.00 0.01 0.02 0.04 0.05 0.01 0.00 0.00 0.01 0.01 0.00 0.00 0.01 0.01 0.01
0.03 0.03 0.00 0.00 0.00 0.00 0.00 0.00 0.00 0.00 0.00 0.00 0.00 0.00 0.00 0.00 0.00 0.00 0.00 0.00 0.01 0.01 0.00 0.00 0.00 0.00 0.00 0.00 0.00 0.00 0.01 0.03 0.04 0.01 0.01 0.00 0.00 0.00 0.00 0.00 0.00 0.00 0.00
0.06 0.01 0.00 0.00 0.00 0.00 0.00 0.00 0.00 0.00 0.00 0.00 0.00 0.00 0.00 0.00 0.00 0.00 0.00 0.00 0.00 0.00 0.01 0.01 0.00 0.01 0.01 0.01 0.00 0.00 0.00 0.00 0.01 0.02 0.00 0.00 0.00 0.00 0.00 0.00 0.00 0.00 0.00
0.09 0.10 0.03 0.01 0.00 0.00 0.00 0.00 0.00 0.00 0.00 0.00 0.00 0.00 0.00 0.00 0.00 0.00 0.00 0.00 0.00 0.00 0.00 0.00 0.00 0.01 0.01 0.01 0.01 0.00 0.00 0.00 0.01 0.01 0.01 0.01 0.01 0.00 0.00 0.00 0.00 0.00 0.00
0.21 0.12 0.08 0.03 0.01 0.00 0.00 0.00 0.00 0.00 0.00 0.00 0.00 0.00 0.00 0.00 0.00 0.00 0.00 0.00 0.00 0.00 0.00 0.00 0.00 0.00 0.00 0.00 0.00 0.00 0.00 0.00 0.01 0.00 0.00 0.00 0.00 0.00 0.00 0.00 0.01 0.00 0.01
0.07 0.13 0.16 0.12 0.09 0.05 0.04 0.02 0.01 0.00 0.00 0.00 0.00 0.00 0.01 0.00 0.00 0.00 0.00 0.00 0.00 0.00 0.00 0.00 0.00 0.00 0.00 0.00 0.00 0.00 0.00 0.01 0.01 0.01 0.01 0.01 0.00 0.00 0.00 0.01 0.00 0.01 0.04
0.15 0.18 0.15 0.15 0.15 0.13 0.13 0.08 0.08 0.07 0.03 0.03 0.02 0.01 0.00 0.00 0.00 0.00 0.00 0.00 0.00 0.00 0.00 0.00 0.00 0.00 0.00 0.00 0.00 0.00 0.00 0.01 0.01 0.01 0.01 0.01 0.01 0.00 0.01 0.02 0.04 0.08 0.13
0.14 0.17 0.15 0.08 0.09 0.11 0.12 0.11 0.13 0.11 0.08 0.06 0.09 0.12 0.09 0.08 0.06 0.03 0.02 0.02 0.02 0.01 0.01 0.00 0.00 0.00 0.00 0.00 0.00 0.02 0.02 0.02 0.02 0.03 0.05 0.09 0.12 0.11 0.12 0.17 0.24 0.32 0.36
0.07 0.06 0.07 0.07 0.09 0.11 0.10 0.09 0.10 0.09 0.12 0.14 0.17 0.21 0.16 0.14 0.21 0.10 0.06 0.05 0.06 0.05 0.03 0.03 0.05 0.04 0.06 0.07 0.05 0.03 0.06 0.11 0.19 0.24 0.30 0.32 0.34 0.32 0.29 0.27 0.36 0.51 0.60
0.00 0.01 0.02 0.03 0.05 0.08 0.10 0.13 0.13 0.09 0.10 0.16 0.18 0.20 0.22 0.13 0.22 0.16 0.12 0.12 0.13 0.09 0.08 0.11 0.26 0.19 0.13 0.12 0.11 0.09 0.11 0.16 0.20 0.20 0.26 0.30 0.29 0.31 0.38 0.29 0.26 0.35 0.54
0.00 0.00 0.00 0.00 0.01 0.02 0.06 0.08 0.09 0.11 0.14 0.16 0.16 0.14 0.14 0.16 0.16 0.18 0.13 0.14 0.21 0.25 0.24 0.19 0.19 0.33 0.20 0.20 0.26 0.31 0.60 0.80 0.79 0.64 0.55 0.54 0.51 0.45 0.46 0.47 0.46 0.50 0.63
0.00 0.00 0.00 0.00 0.00 0.00 0.02 0.03 0.05 0.09 0.11 0.12 0.13 0.13 0.13 0.13 0.25 0.17 0.14 0.19 0.32 0.39 0.55 0.57 0.64 0.72 0.56 0.67 0.85 1.12 1.23 1.09 0.95 0.95 0.96 0.94 0.88 0.81 0.74 0.67 0.63 0.61 0.64
0.00 0.00 0.00 0.00 0.00 0.00 0.00 0.02 0.03 0.06 0.09 0.11 0.15 0.16 0.18 0.16 0.17 0.25 0.19 0.23 0.33 0.42 0.62 0.79 0.74 0.62 0.53 0.56 0.69 0.81 0.87 0.91 1.07 1.22 1.27 1.26 1.18 1.09 0.98 0.92 0.86 0.78 0.70
0.00 0.00 0.00 0.00 0.00 0.00 0.00 0.00 0.01 0.03 0.06 0.10 0.15 0.17 0.17 0.17 0.17 0.18 0.22 0.28 0.40 0.53 0.69 0.76 0.77 0.71 0.70 0.81 0.95 1.01 1.05 1.17 1.27 1.35 1.37 1.34 1.21 1.04 0.89 0.78 0.64 0.54 0.44
0.00 0.00 0.00 0.00 0.00 0.00 0.01 0.02 0.02 0.05 0.07 0.09 0.14 0.17 0.20 0.31 0.41 0.41 0.38 0.36 0.34 0.39 0.42 0.48 0.56 0.65 0.72 0.81 0.87 0.90 0.93 0.91 0.86 0.82 0.74 0.66 0.56 0.47 0.38 0.29 0.21 0.15 0.11
0.00 0.00 0.00 0.00 0.00 0.00 0.00 0.01 0.05 0.05 0.04 0.06 0.09 0.12 0.23 0.36 0.43 0.47 0.49 0.49 0.51 0.53 0.52 0.57 0.62 0.65 0.66 0.65 0.62 0.59 0.53 0.46 0.41 0.34 0.28 0.23 0.17 0.11 0.07 0.03 0.02 0.02 0.01
0.00 0.00 0.00 0.00 0.01 0.00 0.00 0.01 0.03 0.04 0.03 0.06 0.10 0.13 0.14 0.18 0.18 0.17 0.16 0.17 0.20 0.19 0.20 0.24 0.26 0.25 0.25 0.23 0.22 0.20 0.19 0.17 0.13 0.08 0.05 0.03 0.01 0.01 0.01 0.01 0.01 0.00 0.00
0.01 0.02 0.02 0.02 0.02 0.01 0.00 0.01 0.01 0.01 0.03 0.07 0.16 0.18 0.18 0.16 0.14 0.14 0.14 0.13 0.16 0.15 0.15 0.15 0.16 0.15 0.14 0.13 0.11 0.09 0.06 0.03 0.01 0.01 0.01 0.00 0.00 0.00 0.00 0.00 0.00 0.00 0.00
0.02 0.03 0.03 0.03 0.03 0.02 0.01 0.01 0.01 0.01 0.02 0.06 0.07 0.07 0.12 0.09 0.07 0.07 0.06 0.07 0.09 0.10 0.10 0.10 0.10 0.09 0.07 0.04 0.02 0.01 0.00 0.00 0.00 0.00 0.00 0.00 0.00 0.00 0.00 0.00 0.00 0.00 0.00
0.02 0.03 0.02 0.03 0.03 0.03 0.03 0.02 0.02 0.02 0.03 0.03 0.04 0.08 0.08 0.04 0.04 0.06 0.06 0.06 0.06 0.06 0.06 0.05 0.03 0.01 0.00 0.00 0.00 0.00 0.00 0.00 0.00 0.00 0.00 0.00 0.00 0.00 0.00 0.00 0.00 0.00 0.00
0.02 0.03 0.03 0.03 0.04 0.04 0.04 0.04 0.04 0.03 0.03 0.04 0.06 0.07 0.04 0.03 0.04 0.04 0.03 0.02 0.02 0.02 0.01 0.00 0.00 0.00 0.00 0.00 0.00 0.00 0.00 0.00 0.00 0.00 0.00 0.00 0.00 0.00 0.00 0.00 0.00 0.00 0.00
0.03 0.04 0.04 0.05 0.06 0.05 0.06 0.06 0.05 0.05 0.05 0.04 0.04 0.03 0.01 0.01 0.01 0.00 0.00 0.00 0.00 0.00 0.00 0.00 0.00 0.00 0.00 0.00 0.00 0.00 0.00 0.00 0.00 0.00 0.00 0.00 0.00 0.00 0.00 0.00 0.00 0.00 0.00
0.04 0.04 0.05 0.06 0.05 0.06 0.05 0.04 0.03 0.02 0.01 0.01 0.00 0.00 0.00 0.00 0.00 0.00 0.00 0.00 0.00 0.00 0.00 0.00 0.00 0.00 0.00 0.00 0.00 0.00 0.00 0.00 0.00 0.00 0.00 0.00 0.00 0.00 0.00 0.00 0.00 0.00 0.00
0.03 0.03 0.03 0.03 0.02 0.01 0.00 0.00 0.00 0.00 0.00 0.00 0.00 0.00 0.00 0.00 0.00 0.00 0.00 0.00 0.00 0.00 0.00 0.00 0.00 0.00 0.00 0.00 0.00 0.00 0.00 0.00 0.00 0.00 0.00 0.00 0.00 0.00 0.00 0.00 0.00 0.00 0.00
0.00 0.00 0.00 0.00 0.00 0.00 0.00 0.00 0.00 0.00 0.00 0.00 0.00 0.00 0.00 0.00 0.00 0.00 0.00 0.00 0.00 0.00 0.00 0.00 0.00 0.00 0.00 0.00 0.00 0.00 0.00 0.00 0.00 0.00 0.00 0.00 0.00 0.00 0.00 0.00 0.00 0.00 0.00
0.00 0.00 0.00 0.00 0.00 0.00 0.00 0.00 0.00 0.00 0.00 0.00 0.00 0.00 0.00 0.00 0.00 0.00 0.00 0.00 0.00 0.00 0.00 0.00 0.00 0.00 0.00 0.00 0.00 0.00 0.00 0.00 0.00 0.00 0.00 0.00 0.00 0.00 0.00 0.00 0.00 0.00 0.00

GFSGL_prec_precacc12_102.txt.gz
Total_Precipitation_Accumulation
0.01 0.01 0.00 0.00 0.00 0.00 0.00 0.00 0.00 0.00 0.00 0.00 0.00 0.00 0.00 0.00 0.00 0.01 0.02 0.02 0.03 0.02 0.03 0.06 0.05 0.03 0.03 0.01 0.01 0.01 0.02 0.03 0.03 0.00 0.00 0.00 0.01 0.01 0.00 0.00 0.01 0.01 0.00
0.04 0.03 0.01 0.00 0.00 0.00 0.00 0.00 0.00 0.00 0.00 0.00 0.00 0.00 0.00 0.00 0.00 0.00 0.00 0.00 0.01 0.01 0.00 0.00 0.01 0.01 0.01 0.00 0.01 0.01 0.01 0.04 0.05 0.02 0.02 0.01 0.01 0.01 0.00 0.00 0.00 0.00 0.00
0.06 0.01 0.00 0.00 0.00 0.00 0.00 0.00 0.00 0.00 0.00 0.00 0.00 0.00 0.00 0.00 0.00 0.00 0.00 0.00 0.00 0.00 0.01 0.01 0.01 0.01 0.01 0.01 0.00 0.00 0.00 0.00 0.02 0.03 0.01 0.02 0.02 0.01 0.02 0.01 0.01 0.00 0.00
0.14 0.16 0.05 0.01 0.00 0.00 0.00 0.00 0.00 0.00 0.00 0.00 0.00 0.00 0.00 0.00 0.00 0.00 0.00 0.00 0.00 0.00 0.00 0.00 0.01 0.01 0.01 0.02 0.02 0.01 0.01 0.01 0.01 0.01 0.01 0.00 0.01 0.00 0.02 0.01 0.01 0.01 0.00
0.35 0.23 0.13 0.04 0.02 0.00 0.00 0.00 0.00 0.00 0.00 0.00 0.00 0.00 0.00 0.00 0.00 0.00 0.00 0.00 0.00 0.00 0.00 0.00 0.00 0.00 0.00 0.00 0.00 0.00 0.01 0.01 0.01 0.01 0.00 0.00 0.00 0.01 0.02 0.01 0.02 0.01 0.01
0.12 0.17 0.16 0.13 0.08 0.04 0.03 0.02 0.01 0.00 0.00 0.00 0.00 0.00 0.00 0.00 0.00 0.00 0.00 0.00 0.00 0.00 0.00 0.00 0.00 0.00 0.00 0.00 0.00 0.00 0.00 0.00 0.00 0.00 0.00 0.00 0.00 0.00 0.00 0.01 0.01 0.01 0.01
0.07 0.08 0.09 0.12 0.13 0.14 0.11 0.06 0.08 0.06 0.03 0.03 0.02 0.01 0.00 0.00 0.00 0.00 0.00 0.00 0.00 0.00 0.00 0.00 0.00 0.00 0.00 0.00 0.00 0.00 0.00 0.00 0.00 0.00 0.01 0.01 0.00 0.00 0.00 0.01 0.01 0.02 0.05
0.06 0.05 0.06 0.05 0.05 0.08 0.11 0.12 0.14 0.10 0.07 0.06 0.09 0.12 0.11 0.09 0.07 0.03 0.03 0.02 0.02 0.01 0.01 0.01 0.02 0.02 0.03 0.03 0.00 0.00 0.00 0.00 0.01 0.01 0.01 0.04 0.09 0.08 0.08 0.13 0.17 0.18 0.19
0.11 0.09 0.11 0.11 0.06 0.04 0.04 0.05 0.08 0.09 0.09 0.12 0.16 0.20 0.19 0.16 0.23 0.09 0.05 0.05 0.07 0.06 0.08 0.10 0.08 0.05 0.10 0.12 0.09 0.07 0.12 0.29 0.39 0.38 0.50 0.45 0.40 0.36 0.34 0.33 0.48 0.70 0.74
0.11 0.07 0.05 0.06 0.04 0.01 0.01 0.03 0.06 0.04 0.05 0.09 0.14 0.18 0.24 0.12 0.23 0.15 0.12 0.11 0.14 0.11 0.10 0.13 0.31 0.19 0.12 0.10 0.10 0.09 0.12 0.19 0.26 0.23 0.29 0.32 0.30 0.28 0.32 0.24 0.25 0.41 0.67
0.02 0.03 0.01 0.01 0.00 0.00 0.00 0.00 0.01 0.02 0.04 0.09 0.14 0.13 0.12 0.14 0.17 0.16 0.11 0.14 0.21 0.25 0.22 0.18 0.19 0.32 0.17 0.20 0.29 0.39 0.67 0.86 0.86 0.74 0.65 0.58 0.48 0.42 0.42 0.44 0.45 0.52 0.68
0.01 0.00 0.00 0.00 0.00 0.00 0.00 0.00 0.00 0.00 0.03 0.05 0.09 0.09 0.09 0.09 0.18 0.13 0.11 0.16 0.30 0.37 0.51 0.50 0.57 0.61 0.49 0.59 0.75 0.97 1.05 0.98 0.88 0.86 0.84 0.79 0.74 0.68 0.65 0.60 0.58 0.59 0.63
0.01 0.01 0.00 0.00 0.00 0.00 0.00 0.00 0.00 0.00 0.01 0.02 0.05 0.08 0.10 0.08 0.09 0.13 0.09 0.11 0.20 0.31 0.49 0.61 0.57 0.47 0.40 0.43 0.53 0.61 0.66 0.70 0.83 0.97 1.03 1.04 1.00 0.94 0.87 0.81 0.77 0.71 0.65
0.00 0.00 0.00 0.00 0.00 0.00 0.00 0.00 0.00 0.00 0.00 0.00 0.01 0.03 0.05 0.05 0.07 0.07 0.08 0.09 0.13 0.20 0.29 0.37 0.50 0.47 0.44 0.45 0.49 0.53 0.58 0.70 0.78 0.86 0.90 0.92 0.87 0.81 0.75 0.69 0.59 0.52 0.42
0.00 0.00 0.00 0.00 0.00 0.00 0.01 0.02 0.02 0.03 0.01 0.01 0.01 0.01 0.01 0.04 0.06 0.11 0.16 0.18 0.18 0.18 0.18 0.21 0.28 0.31 0.32 0.35 0.36 0.36 0.37 0.41 0.43 0.46 0.46 0.46 0.44 0.41 0.35 0.28 0.20 0.15 0.11
0.00 0.00 0.00 0.00 0.00 0.00 0.00 0.01 0.03 0.03 0.01 0.01 0.01 0.02 0.04 0.05 0.04 0.06 0.08 0.12 0.13 0.12 0.10 0.13 0.18 0.25 0.29 0.29 0.27 0.25 0.25 0.24 0.25 0.22 0.21 0.18 0.15 0.11 0.07 0.03 0.02 0.02 0.01
0.01 0.01 0.01 0.01 0.01 0.00 0.00 0.00 0.02 0.01 0.01 0.02 0.02 0.03 0.03 0.04 0.02 0.02 0.02 0.02 0.03 0.02 0.03 0.05 0.07 0.08 0.10 0.11 0.11 0.11 0.11 0.10 0.09 0.06 0.04 0.03 0.01 0.01 0.01 0.01 0.01 0.00 0.00
0.01 0.02 0.02 0.02 0.02 0.01 0.01 0.01 0.01 0.01 0.01 0.02 0.03 0.04 0.04 0.03 0.02 0.02 0.01 0.00 0.02 0.02 0.04 0.05 0.06 0.07 0.07 0.07 0.07 0.06 0.04 0.02 0.01 0.01 0.01 0.00 0.00 0.00 0.00 0.00 0.00 0.00 0.00
0.01 0.01 0.02 0.02 0.02 0.02 0.01 0.01 0.01 0.01 0.01 0.02 0.02 0.01 0.04 0.03 0.02 0.02 0.01 0.02 0.03 0.04 0.05 0.05 0.06 0.05 0.05 0.03 0.02 0.01 0.00 0.00 0.00 0.00 0.00 0.00 0.00 0.00 0.00 0.00 0.00 0.00 0.00
0.01 0.01 0.01 0.02 0.02 0.02 0.02 0.02 0.02 0.02 0.02 0.02 0.02 0.04 0.03 0.01 0.01 0.02 0.02 0.02 0.02 0.03 0.03 0.02 0.02 0.01 0.00 0.00 0.00 0.00 0.00 0.00 0.00 0.00 0.00 0.00 0.00 0.00 0.00 0.00 0.00 0.00 0.00
0.01 0.01 0.01 0.01 0.02 0.03 0.03 0.03 0.03 0.03 0.03 0.03 0.04 0.05 0.03 0.01 0.02 0.02 0.01 0.01 0.01 0.00 0.00 0.00 0.00 0.00 0.00 0.00 0.00 0.00 0.00 0.00 0.00 0.00 0.00 0.00 0.00 0.00 0.00 0.00 0.00 0.00 0.00
0.02 0.02 0.02 0.02 0.03 0.03 0.04 0.04 0.04 0.04 0.04 0.03 0.03 0.02 0.01 0.01 0.00 0.00 0.00 0.00 0.00 0.00 0.00 0.00 0.00 0.00 0.00 0.00 0.00 0.00 0.00 0.00 0.00 0.00 0.00 0.00 0.00 0.00 0.00 0.00 0.00 0.00 0.00
0.02 0.02 0.02 0.03 0.03 0.03 0.03 0.03 0.03 0.02 0.01 0.00 0.00 0.00 0.00 0.00 0.00 0.00 0.00 0.00 0.00 0.00 0.00 0.00 0.00 0.00 0.00 0.00 0.00 0.00 0.00 0.00 0.00 0.00 0.00 0.00 0.00 0.00 0.00 0.00 0.00 0.00 0.00
0.01 0.01 0.01 0.01 0.00 0.00 0.00 0.00 0.00 0.00 0.00 0.00 0.00 0.00 0.00 0.00 0.00 0.00 0.00 0.00 0.00 0.00 0.00 0.00 0.00 0.00 0.00 0.00 0.00 0.00 0.00 0.00 0.00 0.00 0.00 0.00 0.00 0.00 0.00 0.00 0.00 0.00 0.00
0.00 0.00 0.00 0.00 0.00 0.00 0.00 0.00 0.00 0.00 0.00 0.00 0.00 0.00 0.00 0.00 0.00 0.00 0.00 0.00 0.00 0.00 0.00 0.00 0.00 0.00 0.00 0.00 0.00 0.00 0.00 0.00 0.00 0.00 0.00 0.00 0.00 0.00 0.00 0.00 0.00 0.00 0.00
0.00 0.00 0.00 0.00 0.00 0.00 0.00 0.00 0.00 0.00 0.00 0.00 0.00 0.00 0.00 0.00 0.00 0.00 0.00 0.00 0.00 0.00 0.00 0.00 0.00 0.00 0.00 0.00 0.00 0.00 0.00 0.00 0.00 0.00 0.00 0.00 0.00 0.00 0.00 0.00 0.00 0.00 0.00

GFSGL_prec_precacc12_105.txt.gz
Total_Precipitation_Accumulation
0.01 0.01 0.00 0.00 0.00 0.00 0.00 0.00 0.00 0.00 0.00 0.00 0.00 0.01 0.00 0.00 0.00 0.02 0.02 0.02 0.04 0.04 0.05 0.09 0.13 0.16 0.14 0.13 0.08 0.04 0.03 0.03 0.02 0.00 0.00 0.00 0.02 0.05 0.02 0.01 0.01 0.01 0.00
0.04 0.03 0.01 0.00 0.00 0.00 0.00 0.00 0.00 0.00 0.00 0.00 0.00 0.00 0.00 0.00 0.00 0.00 0.01 0.01 0.02 0.01 0.01 0.01 0.03 0.06 0.08 0.08 0.07 0.04 0.02 0.05 0.06 0.02 0.02 0.01 0.01 0.02 0.03 0.04 0.03 0.01 0.00
0.05 0.01 0.00 0.01 0.02 0.04 0.01 0.00 0.00 0.00 0.00 0.00 0.00 0.00 0.00 0.00 0.00 0.00 0.00 0.00 0.00 0.00 0.01 0.01 0.01 0.01 0.01 0.01 0.01 0.01 0.00 0.00 0.03 0.04 0.02 0.03 0.03 0.01 0.03 0.05 0.06 0.05 0.02
0.12 0.18 0.14 0.09 0.06 0.03 0.00 0.00 0.00 0.00 0.00 0.00 0.00 0.00 0.00 0.00 0.00 0.00 0.00 0.00 0.00 0.00 0.00 0.00 0.01 0.01 0.02 0.02 0.02 0.01 0.01 0.01 0.01 0.01 0.01 0.00 0.01 0.01 0.04 0.03 0.03 0.03 0.02
0.34 0.31 0.19 0.12 0.07 0.02 0.00 0.00 0.00 0.00 0.00 0.00 0.00 0.00 0.00 0.00 0.00 0.00 0.00 0.00 0.00 0.00 0.00 0.00 0.00 0.00 0.00 0.00 0.00 0.00 0.01 0.01 0.01 0.01 0.00 0.01 0.00 0.01 0.02 0.01 0.03 0.01 0.02
0.18 0.15 0.12 0.09 0.07 0.03 0.01 0.00 0.00 0.00 0.00 0.00 0.00 0.00 0.01 0.01 0.00 0.00 0.00 0.00 0.00 0.00 0.00 0.00 0.00 0.00 0.00 0.00 0.00 0.00 0.01 0.01 0.01 0.01 0.00 0.00 0.00 0.00 0.01 0.03 0.03 0.05 0.04
0.17 0.15 0.11 0.11 0.09 0.09 0.06 0.03 0.02 0.01 0.01 0.00 0.00 0.00 0.01 0.00 0.00 0.00 0.00 0.00 0.01 0.01 0.01 0.00 0.01 0.00 0.00 0.00 0.00 0.00 0.00 0.00 0.01 0.03 0.04 0.03 0.03 0.03 0.03 0.03 0.03 0.03 0.03
0.19 0.16 0.11 0.07 0.06 0.06 0.07 0.07 0.09 0.04 0.02 0.02 0.03 0.06 0.07 0.07 0.07 0.02 0.03 0.02 0.02 0.03 0.05 0.03 0.03 0.04 0.08 0.08 0.02 0.04 0.09 0.10 0.08 0.08 0.11 0.12 0.12 0.10 0.09 0.13 0.16 0.15 0.13
0.36 0.29 0.23 0.14 0.07 0.06 0.08 0.08 0.09 0.10 0.08 0.08 0.10 0.13 0.14 0.13 0.19 0.05 0.05 0.05 0.08 0.10 0.10 0.11 0.10 0.06 0.17 0.18 0.13 0.15 0.26 0.47 0.58 0.56 0.72 0.65 0.55 0.46 0.37 0.36 0.52 0.73 0.74
0.46 0.26 0.18 0.18 0.20 0.17 0.16 0.16 0.17 0.19 0.16 0.12 0.13 0.15 0.22 0.08 0.17 0.08 0.08 0.10 0.13 0.11 0.11 0.15 0.36 0.21 0.15 0.12 0.11 0.11 0.14 0.21 0.31 0.31 0.37 0.38 0.33 0.30 0.30 0.22 0.24 0.38 0.63
0.20 0.19 0.09 0.07 0.10 0.12 0.13 0.16 0.17 0.16 0.16 0.16 0.16 0.12 0.11 0.13 0.16 0.14 0.09 0.10 0.20 0.28 0.22 0.17 0.22 0.34 0.16 0.20 0.29 0.41 0.69 0.91 0.90 0.76 0.65 0.56 0.44 0.34 0.31 0.30 0.28 0.34 0.48
0.14 0.08 0.07 0.07 0.04 0.03 0.02 0.02 0.02 0.02 0.02 0.01 0.03 0.04 0.06 0.07 0.11 0.08 0.06 0.09 0.18 0.18 0.26 0.30 0.41 0.46 0.40 0.48 0.61 0.79 0.86 0.86 0.82 0.77 0.69 0.62 0.57 0.51 0.47 0.41 0.37 0.38 0.44
0.03 0.05 0.05 0.03 0.02 0.01 0.02 0.01 0.00 0.00 0.00 0.00 0.00 0.00 0.01 0.02 0.02 0.05 0.03 0.03 0.06 0.06 0.08 0.13 0.14 0.14 0.13 0.14 0.18 0.26 0.35 0.47 0.61 0.68 0.71 0.69 0.65 0.62 0.55 0.49 0.46 0.44 0.41
0.00 0.01 0.01 0.02 0.02 0.02 0.01 0.00 0.00 0.00 0.00 0.01 0.00 0.01 0.01 0.01 0.01 0.00 0.01 0.01 0.02 0.03 0.04 0.04 0.06 0.07 0.11 0.14 0.14 0.14 0.15 0.18 0.24 0.34 0.41 0.43 0.40 0.36 0.33 0.32 0.30 0.28 0.24
0.00 0.00 0.00 0.00 0.00 0.01 0.01 0.02 0.02 0.03 0.01 0.01 0.02 0.02 0.01 0.03 0.03 0.01 0.00 0.01 0.01 0.01 0.01 0.01 0.02 0.04 0.06 0.09 0.11 0.11 0.10 0.10 0.11 0.15 0.17 0.19 0.20 0.20 0.18 0.16 0.13 0.10 0.07
0.00 0.00 0.01 0.00 0.00 0.00 0.00 0.01 0.03 0.03 0.01 0.01 0.01 0.02 0.03 0.04 0.01 0.01 0.00 0.00 0.00 0.00 0.00 0.01 0.01 0.01 0.02 0.04 0.04 0.04 0.05 0.05 0.07 0.07 0.08 0.09 0.08 0.06 0.04 0.02 0.01 0.01 0.01
0.01 0.01 0.01 0.01 0.01 0.00 0.00 0.00 0.02 0.02 0.01 0.02 0.02 0.02 0.02 0.02 0.01 0.00 0.00 0.00 0.00 0.00 0.00 0.01 0.02 0.02 0.02 0.02 0.02 0.02 0.03 0.03 0.03 0.02 0.02 0.01 0.01 0.01 0.01 0.01 0.01 0.00 0.00
0.01 0.01 0.02 0.02 0.02 0.02 0.01 0.01 0.01 0.01 0.01 0.02 0.02 0.03 0.03 0.02 0.01 0.00 0.00 0.00 0.00 0.00 0.00 0.01 0.01 0.01 0.01 0.01 0.01 0.01 0.01 0.00 0.00 0.00 0.00 0.00 0.00 0.00 0.00 0.00 0.00 0.00 0.00
0.01 0.02 0.02 0.02 0.02 0.02 0.01 0.01 0.01 0.01 0.01 0.02 0.02 0.01 0.02 0.02 0.01 0.00 0.00 0.01 0.01 0.01 0.01 0.01 0.02 0.02 0.01 0.01 0.00 0.00 0.00 0.00 0.00 0.00 0.00 0.00 0.00 0.00 0.00 0.00 0.00 0.00 0.00
0.01 0.01 0.01 0.02 0.02 0.02 0.02 0.02 0.02 0.01 0.01 0.01 0.01 0.03 0.03 0.01 0.01 0.01 0.01 0.01 0.01 0.01 0.01 0.01 0.01 0.00 0.00 0.00 0.00 0.00 0.00 0.00 0.00 0.00 0.00 0.00 0.00 0.00 0.00 0.00 0.00 0.00 0.00
0.02 0.02 0.02 0.02 0.02 0.02 0.02 0.02 0.02 0.02 0.01 0.01 0.03 0.02 0.01 0.01 0.02 0.01 0.01 0.00 0.00 0.00 0.00 0.00 0.00 0.00 0.00 0.00 0.00 0.00 0.00 0.00 0.00 0.00 0.00 0.00 0.00 0.00 0.00 0.00 0.00 0.00 0.00
0.02 0.02 0.02 0.02 0.02 0.02 0.02 0.02 0.02 0.02 0.01 0.01 0.01 0.00 0.00 0.00 0.00 0.00 0.00 0.00 0.00 0.00 0.00 0.00 0.00 0.00 0.00 0.00 0.00 0.00 0.00 0.00 0.00 0.00 0.00 0.00 0.00 0.00 0.00 0.00 0.00 0.00 0.00
0.02 0.02 0.02 0.03 0.03 0.03 0.02 0.02 0.01 0.01 0.00 0.00 0.00 0.00 0.00 0.00 0.00 0.00 0.00 0.00 0.00 0.00 0.00 0.00 0.00 0.00 0.00 0.00 0.00 0.00 0.00 0.00 0.00 0.00 0.00 0.00 0.00 0.00 0.00 0.00 0.00 0.00 0.00
0.01 0.01 0.01 0.01 0.01 0.01 0.01 0.00 0.00 0.00 0.00 0.00 0.00 0.00 0.00 0.00 0.01 0.01 0.00 0.00 0.00 0.00 0.00 0.00 0.00 0.00 0.00 0.00 0.00 0.00 0.00 0.00 0.00 0.00 0.00 0.00 0.00 0.00 0.00 0.00 0.00 0.00 0.00
0.00 0.00 0.00 0.00 0.00 0.00 0.00 0.00 0.00 0.00 0.00 0.00 0.00 0.00 0.00 0.00 0.00 0.01 0.00 0.00 0.00 0.00 0.00 0.00 0.00 0.00 0.00 0.00 0.00 0.00 0.00 0.00 0.00 0.00 0.00 0.00 0.00 0.00 0.00 0.00 0.00 0.00 0.00
0.00 0.00 0.00 0.00 0.00 0.01 0.00 0.00 0.00 0.00 0.00 0.00 0.00 0.00 0.00 0.00 0.00 0.00 0.00 0.00 0.00 0.00 0.00 0.00 0.00 0.00 0.00 0.00 0.00 0.00 0.00 0.00 0.00 0.00 0.00 0.00 0.00 0.00 0.00 0.00 0.00 0.00 0.00

GFSGL_prec_precacc12_108.txt.gz
Total_Precipitation_Accumulation
0.01 0.03 0.01 0.00 0.00 0.00 0.00 0.00 0.00 0.00 0.00 0.00 0.00 0.01 0.01 0.01 0.00 0.01 0.01 0.01 0.04 0.04 0.08 0.16 0.20 0.20 0.17 0.17 0.18 0.15 0.09 0.05 0.03 0.00 0.00 0.00 0.02 0.07 0.03 0.02 0.03 0.05 0.02
0.05 0.06 0.01 0.01 0.01 0.01 0.01 0.00 0.00 0.00 0.00 0.00 0.00 0.01 0.00 0.00 0.00 0.01 0.01 0.00 0.01 0.01 0.01 0.01 0.03 0.06 0.10 0.14 0.19 0.20 0.15 0.11 0.09 0.02 0.02 0.01 0.01 0.02 0.03 0.05 0.04 0.03 0.02
0.05 0.03 0.01 0.02 0.06 0.06 0.05 0.01 0.01 0.00 0.00 0.00 0.00 0.00 0.01 0.00 0.00 0.01 0.01 0.01 0.00 0.00 0.00 0.01 0.01 0.01 0.02 0.02 0.03 0.04 0.03 0.02 0.03 0.03 0.02 0.03 0.03 0.02 0.04 0.05 0.06 0.05 0.03
0.10 0.14 0.14 0.11 0.09 0.08 0.08 0.00 0.02 0.00 0.00 0.00 0.00 0.00 0.00 0.00 0.00 0.00 0.00 0.00 0.00 0.01 0.01 0.01 0.01 0.01 0.02 0.02 0.03 0.02 0.01 0.01 0.01 0.01 0.00 0.00 0.01 0.01 0.05 0.03 0.04 0.03 0.04
0.33 0.34 0.21 0.14 0.10 0.08 0.06 0.03 0.02 0.00 0.00 0.00 0.00 0.01 0.01 0.00 0.00 0.00 0.00 0.00 0.00 0.00 0.00 0.00 0.00 0.00 0.00 0.00 0.00 0.01 0.02 0.02 0.01 0.01 0.00 0.01 0.00 0.01 0.02 0.01 0.03 0.01 0.02
0.25 0.21 0.19 0.16 0.11 0.09 0.05 0.03 0.01 0.00 0.00 0.00 0.00 0.01 0.02 0.01 0.01 0.00 0.00 0.01 0.00 0.00 0.00 0.00 0.00 0.00 0.00 0.00 0.00 0.00 0.01 0.02 0.02 0.01 0.00 0.00 0.00 0.00 0.01 0.03 0.04 0.06 0.04
0.23 0.22 0.19 0.18 0.15 0.13 0.09 0.04 0.02 0.01 0.01 0.01 0.01 0.01 0.01 0.00 0.01 0.00 0.00 0.01 0.03 0.03 0.02 0.02 0.02 0.02 0.01 0.00 0.00 0.00 0.00 0.00 0.03 0.05 0.04 0.03 0.04 0.03 0.04 0.04 0.04 0.06 0.08
0.29 0.26 0.20 0.16 0.15 0.13 0.10 0.09 0.10 0.04 0.03 0.02 0.01 0.02 0.02 0.03 0.03 0.01 0.02 0.01 0.02 0.04 0.06 0.04 0.05 0.05 0.11 0.10 0.02 0.05 0.11 0.14 0.15 0.19 0.24 0.23 0.19 0.13 0.12 0.18 0.21 0.19 0.18
0.53 0.47 0.43 0.32 0.24 0.19 0.15 0.10 0.10 0.11 0.08 0.07 0.07 0.09 0.10 0.08 0.11 0.03 0.03 0.01 0.03 0.07 0.09 0.11 0.10 0.07 0.22 0.21 0.14 0.17 0.35 0.57 0.68 0.65 0.77 0.68 0.59 0.50 0.41 0.43 0.61 0.77 0.74
0.69 0.57 0.68 0.65 0.55 0.50 0.45 0.35 0.29 0.30 0.30 0.23 0.16 0.13 0.18 0.06 0.13 0.04 0.04 0.04 0.07 0.08 0.08 0.10 0.24 0.14 0.15 0.12 0.12 0.15 0.24 0.30 0.38 0.36 0.43 0.44 0.38 0.32 0.31 0.23 0.28 0.41 0.61
0.44 0.61 0.53 0.52 0.55 0.51 0.57 0.49 0.44 0.49 0.50 0.52 0.51 0.35 0.26 0.23 0.23 0.21 0.18 0.17 0.20 0.24 0.22 0.21 0.27 0.39 0.26 0.26 0.28 0.34 0.56 0.72 0.78 0.71 0.65 0.53 0.40 0.30 0.26 0.24 0.23 0.25 0.36
0.33 0.30 0.36 0.38 0.34 0.33 0.28 0.24 0.20 0.20 0.20 0.22 0.26 0.32 0.29 0.23 0.21 0.19 0.17 0.19 0.23 0.20 0.20 0.18 0.20 0.21 0.14 0.16 0.21 0.29 0.35 0.34 0.32 0.30 0.28 0.29 0.31 0.30 0.27 0.23 0.22 0.21 0.23
0.12 0.15 0.18 0.19 0.25 0.23 0.16 0.11 0.07 0.04 0.03 0.02 0.03 0.04 0.07 0.06 0.04 0.03 0.03 0.02 0.01 0.01 0.01 0.01 0.02 0.01 0.01 0.01 0.03 0.04 0.05 0.06 0.08 0.10 0.13 0.17 0.18 0.16 0.13 0.11 0.11 0.12 0.14
0.02 0.04 0.04 0.06 0.07 0.09 0.11 0.13 0.11 0.08 0.04 0.02 0.01 0.01 0.01 0.01 0.02 0.01 0.01 0.01 0.00 0.00 0.00 0.00 0.00 0.00 0.00 0.01 0.01 0.01 0.02 0.01 0.01 0.02 0.04 0.06 0.07 0.07 0.07 0.07 0.07 0.07 0.07
0.00 0.00 0.00 0.00 0.01 0.02 0.03 0.04 0.05 0.08 0.06 0.06 0.07 0.05 0.04 0.05 0.05 0.02 0.02 0.01 0.01 0.00 0.01 0.01 0.01 0.01 0.01 0.01 0.00 0.00 0.00 0.00 0.01 0.01 0.02 0.02 0.02 0.03 0.03 0.02 0.02 0.02 0.01
0.00 0.01 0.01 0.01 0.00 0.00 0.00 0.01 0.02 0.03 0.01 0.01 0.01 0.02 0.03 0.03 0.01 0.01 0.00 0.00 0.00 0.00 0.00 0.01 0.01 0.01 0.01 0.01 0.00 0.00 0.00 0.00 0.00 0.00 0.00 0.00 0.00 0.00 0.01 0.01 0.01 0.00 0.00
0.01 0.01 0.01 0.01 0.01 0.01 0.01 0.01 0.02 0.02 0.01 0.01 0.01 0.01 0.01 0.02 0.00 0.00 0.00 0.00 0.00 0.00 0.00 0.01 0.01 0.01 0.00 0.00 0.00 0.00 0.00 0.00 0.00 0.00 0.00 0.00 0.00 0.00 0.00 0.00 0.00 0.00 0.00
0.02 0.01 0.02 0.03 0.02 0.02 0.02 0.02 0.02 0.02 0.01 0.02 0.02 0.02 0.02 0.01 0.00 0.00 0.00 0.00 0.00 0.00 0.00 0.00 0.01 0.00 0.00 0.00 0.00 0.00 0.00 0.00 0.00 0.00 0.00 0.00 0.00 0.00 0.00 0.00 0.00 0.00 0.00
0.01 0.02 0.03 0.02 0.02 0.02 0.02 0.02 0.02 0.01 0.02 0.03 0.03 0.02 0.02 0.01 0.00 0.00 0.00 0.00 0.00 0.00 0.00 0.00 0.00 0.00 0.00 0.00 0.00 0.00 0.00 0.00 0.00 0.00 0.00 0.00 0.00 0.00 0.00 0.00 0.00 0.00 0.00
0.01 0.01 0.02 0.02 0.02 0.02 0.02 0.02 0.02 0.02 0.01 0.01 0.01 0.03 0.03 0.01 0.01 0.00 0.00 0.00 0.00 0.00 0.00 0.00 0.00 0.00 0.00 0.00 0.00 0.00 0.00 0.00 0.00 0.00 0.00 0.00 0.00 0.00 0.00 0.00 0.00 0.00 0.00
0.03 0.02 0.02 0.02 0.03 0.03 0.03 0.03 0.02 0.02 0.02 0.02 0.02 0.01 0.01 0.00 0.00 0.00 0.00 0.00 0.00 0.00 0.00 0.00 0.00 0.00 0.00 0.00 0.00 0.00 0.00 0.00 0.00 0.00 0.00 0.00 0.00 0.00 0.00 0.00 0.00 0.00 0.00
0.02 0.02 0.02 0.02 0.02 0.03 0.03 0.03 0.03 0.02 0.02 0.01 0.01 0.00 0.00 0.00 0.00 0.00 0.00 0.00 0.00 0.00 0.00 0.00 0.00 0.00 0.00 0.00 0.00 0.00 0.00 0.00 0.00 0.00 0.00 0.00 0.00 0.00 0.00 0.00 0.00 0.00 0.00
0.02 0.03 0.02 0.03 0.03 0.03 0.02 0.02 0.02 0.01 0.00 0.00 0.00 0.00 0.00 0.00 0.00 0.00 0.00 0.00 0.00 0.00 0.00 0.00 0.00 0.00 0.00 0.00 0.00 0.00 0.00 0.00 0.00 0.00 0.00 0.00 0.00 0.00 0.00 0.00 0.00 0.00 0.00
0.01 0.02 0.01 0.01 0.01 0.01 0.01 0.01 0.00 0.00 0.00 0.00 0.00 0.00 0.00 0.01 0.01 0.00 0.01 0.01 0.01 0.01 0.01 0.00 0.00 0.00 0.00 0.00 0.00 0.00 0.00 0.00 0.00 0.00 0.00 0.00 0.00 0.00 0.00 0.00 0.00 0.00 0.00
0.01 0.01 0.01 0.01 0.01 0.01 0.01 0.00 0.00 0.01 0.00 0.00 0.01 0.01 0.01 0.00 0.01 0.01 0.01 0.00 0.00 0.00 0.00 0.00 0.00 0.00 0.00 0.00 0.00 0.00 0.00 0.00 0.00 0.00 0.00 0.00 0.00 0.00 0.00 0.00 0.00 0.00 0.00
0.00 0.00 0.01 0.01 0.01 0.01 0.01 0.01 0.01 0.01 0.01 0.01 0.01 0.01 0.00 0.00 0.00 0.00 0.00 0.00 0.00 0.00 0.00 0.00 0.00 0.00 0.00 0.00 0.00 0.00 0.00 0.00 0.00 0.00 0.00 0.00 0.01 0.00 0.00 0.00 0.00 0.00 0.00

GFSGL_prec_precacc12_111.txt.gz
Total_Precipitation_Accumulation
0.02 0.07 0.08 0.04 0.05 0.08 0.03 0.00 0.00 0.00 0.00 0.00 0.00 0.01 0.02 0.01 0.01 0.02 0.01 0.01 0.04 0.05 0.09 0.21 0.26 0.28 0.26 0.27 0.23 0.19 0.13 0.06 0.04 0.00 0.01 0.00 0.02 0.07 0.03 0.03 0.03 0.05 0.02
0.09 0.13 0.11 0.12 0.17 0.14 0.05 0.00 0.00 0.02 0.03 0.00 0.00 0.01 0.01 0.01 0.01 0.01 0.01 0.00 0.01 0.01 0.01 0.01 0.04 0.09 0.14 0.18 0.24 0.26 0.24 0.20 0.17 0.07 0.04 0.03 0.02 0.02 0.03 0.05 0.04 0.03 0.02
0.06 0.15 0.14 0.17 0.24 0.22 0.11 0.02 0.06 0.08 0.04 0.00 0.00 0.00 0.01 0.01 0.01 0.01 0.01 0.01 0.00 0.00 0.00 0.00 0.00 0.01 0.02 0.03 0.04 0.07 0.09 0.11 0.14 0.12 0.07 0.06 0.04 0.02 0.04 0.05 0.06 0.05 0.03
0.09 0.13 0.18 0.20 0.24 0.24 0.14 0.04 0.09 0.09 0.05 0.01 0.00 0.00 0.00 0.00 0.01 0.01 0.01 0.02 0.01 0.01 0.01 0.00 0.00 0.01 0.01 0.01 0.03 0.04 0.03 0.05 0.03 0.02 0.01 0.01 0.01 0.01 0.05 0.03 0.04 0.03 0.04
0.29 0.30 0.21 0.20 0.23 0.24 0.11 0.07 0.07 0.06 0.04 0.01 0.01 0.01 0.01 0.01 0.01 0.01 0.01 0.01 0.01 0.01 0.01 0.01 0.01 0.01 0.01 0.00 0.00 0.02 0.03 0.04 0.02 0.02 0.01 0.01 0.00 0.01 0.02 0.01 0.03 0.01 0.02
0.26 0.22 0.22 0.23 0.29 0.31 0.14 0.10 0.04 0.02 0.02 0.01 0.01 0.01 0.02 0.01 0.02 0.01 0.01 0.01 0.01 0.01 0.00 0.00 0.00 0.00 0.00 0.00 0.00 0.00 0.02 0.03 0.03 0.01 0.00 0.00 0.00 0.00 0.01 0.03 0.04 0.06 0.04
0.26 0.24 0.22 0.25 0.25 0.29 0.19 0.11 0.06 0.02 0.02 0.02 0.02 0.02 0.01 0.01 0.02 0.01 0.01 0.02 0.04 0.04 0.02 0.02 0.03 0.02 0.01 0.00 0.00 0.01 0.03 0.02 0.05 0.06 0.06 0.04 0.04 0.04 0.04 0.04 0.04 0.07 0.12
0.30 0.28 0.25 0.26 0.32 0.31 0.21 0.15 0.13 0.07 0.03 0.02 0.02 0.02 0.03 0.04 0.04 0.02 0.02 0.02 0.02 0.04 0.08 0.06 0.07 0.07 0.14 0.12 0.03 0.05 0.12 0.15 0.16 0.20 0.25 0.24 0.19 0.15 0.15 0.21 0.25 0.26 0.28
0.62 0.56 0.52 0.45 0.42 0.44 0.35 0.22 0.18 0.18 0.12 0.07 0.06 0.07 0.07 0.06 0.10 0.04 0.03 0.01 0.03 0.06 0.09 0.10 0.08 0.05 0.19 0.16 0.11 0.17 0.36 0.56 0.66 0.62 0.69 0.65 0.57 0.47 0.40 0.43 0.58 0.67 0.64
0.86 0.75 0.88 0.84 0.82 0.73 0.67 0.64 0.54 0.51 0.48 0.34 0.24 0.17 0.19 0.08 0.16 0.07 0.05 0.02 0.04 0.07 0.06 0.06 0.16 0.07 0.09 0.06 0.06 0.08 0.19 0.26 0.28 0.30 0.31 0.32 0.29 0.25 0.24 0.20 0.26 0.36 0.47
0.59 0.75 0.69 0.84 0.96 0.88 0.91 0.94 0.94 0.88 0.86 0.79 0.71 0.50 0.40 0.38 0.37 0.35 0.30 0.22 0.25 0.26 0.24 0.22 0.27 0.37 0.29 0.34 0.40 0.44 0.56 0.63 0.62 0.51 0.39 0.29 0.19 0.13 0.10 0.07 0.06 0.06 0.08
0.45 0.40 0.52 0.55 0.53 0.66 0.64 0.63 0.66 0.64 0.63 0.62 0.59 0.60 0.53 0.46 0.46 0.45 0.40 0.39 0.41 0.36 0.36 0.33 0.35 0.32 0.24 0.24 0.25 0.27 0.24 0.18 0.11 0.09 0.06 0.04 0.02 0.02 0.03 0.01 0.00 0.00 0.00
0.16 0.21 0.24 0.27 0.36 0.38 0.38 0.43 0.34 0.27 0.26 0.25 0.23 0.25 0.26 0.22 0.18 0.20 0.20 0.18 0.16 0.15 0.14 0.10 0.07 0.04 0.03 0.03 0.03 0.02 0.00 0.00 0.00 0.00 0.00 0.01 0.01 0.02 0.01 0.00 0.00 0.00 0.00
0.03 0.05 0.07 0.09 0.12 0.15 0.19 0.24 0.30 0.31 0.27 0.21 0.13 0.08 0.06 0.05 0.06 0.05 0.05 0.06 0.04 0.03 0.02 0.01 0.00 0.00 0.00 0.01 0.00 0.00 0.00 0.01 0.01 0.01 0.01 0.01 0.01 0.00 0.00 0.00 0.00 0.00 0.00
0.00 0.00 0.01 0.01 0.01 0.03 0.05 0.08 0.10 0.15 0.15 0.17 0.18 0.15 0.12 0.11 0.11 0.08 0.07 0.07 0.06 0.04 0.03 0.02 0.02 0.01 0.01 0.01 0.00 0.00 0.00 0.00 0.00 0.00 0.00 0.00 0.00 0.00 0.00 0.00 0.00 0.00 0.00
0.01 0.01 0.01 0.02 0.01 0.00 0.00 0.01 0.02 0.04 0.03 0.03 0.04 0.05 0.06 0.05 0.03 0.03 0.03 0.03 0.03 0.03 0.03 0.03 0.02 0.02 0.01 0.01 0.00 0.00 0.00 0.00 0.00 0.00 0.00 0.00 0.00 0.00 0.00 0.00 0.00 0.00 0.00
0.01 0.02 0.01 0.01 0.02 0.02 0.02 0.01 0.02 0.02 0.01 0.01 0.01 0.01 0.02 0.02 0.01 0.00 0.00 0.00 0.00 0.00 0.00 0.01 0.01 0.00 0.00 0.00 0.00 0.00 0.00 0.00 0.00 0.00 0.00 0.00 0.00 0.00 0.00 0.00 0.00 0.00 0.00
0.02 0.02 0.02 0.03 0.02 0.02 0.02 0.03 0.03 0.02 0.01 0.02 0.01 0.01 0.01 0.01 0.00 0.00 0.00 0.00 0.00 0.00 0.00 0.00 0.00 0.00 0.00 0.00 0.00 0.00 0.00 0.00 0.00 0.00 0.00 0.00 0.00 0.00 0.00 0.00 0.00 0.00 0.00
0.01 0.02 0.03 0.02 0.02 0.02 0.02 0.02 0.02 0.02 0.02 0.04 0.04 0.03 0.02 0.01 0.00 0.00 0.00 0.00 0.00 0.00 0.00 0.00 0.00 0.00 0.00 0.00 0.00 0.00 0.00 0.00 0.00 0.00 0.00 0.00 0.00 0.00 0.00 0.00 0.00 0.00 0.00
0.01 0.01 0.01 0.02 0.02 0.02 0.02 0.02 0.02 0.01 0.01 0.01 0.02 0.04 0.03 0.01 0.01 0.00 0.00 0.00 0.00 0.00 0.00 0.00 0.00 0.00 0.00 0.00 0.00 0.00 0.00 0.00 0.00 0.00 0.00 0.00 0.00 0.00 0.00 0.00 0.00 0.00 0.00
0.03 0.01 0.02 0.02 0.02 0.02 0.02 0.02 0.02 0.01 0.01 0.01 0.02 0.01 0.01 0.00 0.00 0.00 0.00 0.00 0.00 0.00 0.00 0.00 0.00 0.00 0.00 0.00 0.00 0.00 0.00 0.00 0.00 0.00 0.00 0.00 0.00 0.00 0.00 0.00 0.00 0.00 0.00
0.02 0.02 0.01 0.02 0.01 0.02 0.02 0.02 0.02 0.02 0.02 0.01 0.01 0.00 0.00 0.00 0.00 0.00 0.00 0.00 0.00 0.00 0.00 0.00 0.00 0.00 0.00 0.00 0.00 0.00 0.00 0.00 0.00 0.00 0.00 0.00 0.00 0.00 0.00 0.00 0.00 0.00 0.00
0.01 0.02 0.01 0.02 0.03 0.02 0.01 0.02 0.02 0.01 0.00 0.00 0.00 0.00 0.00 0.00 0.00 0.01 0.01 0.00 0.00 0.00 0.00 0.00 0.00 0.00 0.01 0.00 0.00 0.00 0.00 0.00 0.00 0.00 0.00 0.00 0.00 0.00 0.00 0.00 0.00 0.00 0.00
0.01 0.01 0.01 0.01 0.01 0.01 0.02 0.01 0.00 0.00 0.00 0.00 0.00 0.00 0.00 0.01 0.01 0.00 0.01 0.01 0.01 0.01 0.01 0.00 0.00 0.00 0.00 0.00 0.00 0.00 0.00 0.00 0.00 0.00 0.00 0.00 0.00 0.00 0.00 0.00 0.00 0.00 0.00
0.01 0.01 0.01 0.01 0.01 0.02 0.01 0.00 0.00 0.01 0.00 0.01 0.01 0.01 0.01 0.01 0.01 0.01 0.01 0.00 0.00 0.00 0.00 0.00 0.00 0.00 0.00 0.00 0.00 0.00 0.00 0.00 0.00 0.00 0.00 0.00 0.00 0.00 0.00 0.00 0.00 0.00 0.00
0.00 0.00 0.01 0.01 0.01 0.01 0.01 0.01 0.01 0.01 0.01 0.01 0.01 0.01 0.00 0.00 0.01 0.00 0.00 0.00 0.00 0.00 0.00 0.00 0.00 0.00 0.01 0.00 0.00 0.00 0.00 0.00 0.00 0.00 0.00 0.00 0.01 0.00 0.00 0.00 0.00 0.00 0.00

GFSGL_prec_precacc12_114.txt.gz
Total_Precipitation_Accumulation
0.02 0.08 0.10 0.06 0.10 0.14 0.08 0.02 0.01 0.02 0.02 0.02 0.00 0.01 0.02 0.02 0.00 0.01 0.00 0.01 0.02 0.03 0.06 0.16 0.22 0.25 0.26 0.30 0.26 0.20 0.13 0.06 0.03 0.00 0.01 0.01 0.02 0.07 0.04 0.03 0.04 0.06 0.02
0.10 0.17 0.17 0.20 0.28 0.23 0.14 0.05 0.03 0.04 0.06 0.02 0.01 0.00 0.01 0.02 0.01 0.01 0.01 0.01 0.01 0.01 0.01 0.01 0.04 0.12 0.17 0.23 0.30 0.32 0.28 0.20 0.16 0.06 0.04 0.05 0.05 0.05 0.05 0.05 0.04 0.04 0.02
0.06 0.17 0.22 0.26 0.37 0.39 0.29 0.12 0.12 0.15 0.08 0.03 0.03 0.02 0.01 0.01 0.02 0.02 0.02 0.01 0.00 0.00 0.00 0.00 0.00 0.01 0.03 0.07 0.13 0.18 0.17 0.18 0.19 0.20 0.16 0.12 0.13 0.11 0.09 0.07 0.06 0.05 0.03
0.03 0.07 0.20 0.27 0.36 0.40 0.33 0.18 0.21 0.18 0.09 0.04 0.01 0.02 0.01 0.02 0.02 0.03 0.04 0.03 0.01 0.01 0.01 0.01 0.01 0.01 0.01 0.01 0.04 0.08 0.11 0.11 0.12 0.12 0.13 0.10 0.09 0.08 0.10 0.07 0.05 0.03 0.03
0.16 0.20 0.18 0.21 0.30 0.36 0.28 0.21 0.18 0.15 0.10 0.06 0.04 0.02 0.02 0.02 0.03 0.04 0.03 0.02 0.02 0.02 0.02 0.02 0.01 0.02 0.01 0.01 0.01 0.02 0.05 0.06 0.05 0.05 0.06 0.04 0.02 0.01 0.01 0.01 0.01 0.01 0.02
0.21 0.19 0.24 0.23 0.30 0.39 0.28 0.28 0.19 0.12 0.06 0.05 0.04 0.02 0.02 0.01 0.04 0.03 0.03 0.03 0.02 0.02 0.02 0.01 0.01 0.02 0.01 0.01 0.01 0.01 0.02 0.04 0.03 0.02 0.01 0.00 0.00 0.00 0.01 0.02 0.03 0.05 0.04
0.25 0.24 0.22 0.25 0.30 0.34 0.31 0.27 0.22 0.15 0.07 0.04 0.04 0.02 0.01 0.01 0.03 0.02 0.02 0.03 0.05 0.05 0.03 0.03 0.03 0.03 0.02 0.00 0.00 0.01 0.03 0.04 0.05 0.06 0.05 0.04 0.04 0.04 0.03 0.03 0.03 0.06 0.11
0.42 0.32 0.26 0.29 0.41 0.51 0.42 0.34 0.30 0.22 0.09 0.04 0.02 0.02 0.02 0.03 0.04 0.02 0.03 0.02 0.03 0.05 0.08 0.05 0.05 0.05 0.11 0.09 0.03 0.05 0.12 0.15 0.16 0.20 0.25 0.23 0.16 0.12 0.12 0.17 0.21 0.25 0.31
0.77 0.65 0.57 0.46 0.51 0.55 0.60 0.52 0.47 0.45 0.33 0.16 0.08 0.07 0.06 0.05 0.11 0.08 0.04 0.01 0.04 0.08 0.06 0.05 0.07 0.05 0.18 0.14 0.07 0.13 0.28 0.32 0.37 0.38 0.39 0.39 0.35 0.29 0.26 0.31 0.39 0.42 0.42
0.93 0.94 1.03 1.00 0.95 0.97 0.91 0.97 0.95 0.80 0.70 0.54 0.35 0.26 0.24 0.11 0.20 0.17 0.14 0.04 0.04 0.05 0.06 0.07 0.16 0.09 0.15 0.11 0.07 0.09 0.18 0.21 0.21 0.25 0.26 0.26 0.23 0.20 0.21 0.16 0.20 0.26 0.26
0.63 0.85 0.82 0.96 1.10 1.07 1.17 1.18 1.32 1.43 1.30 1.15 1.02 0.79 0.65 0.64 0.61 0.59 0.55 0.40 0.35 0.29 0.25 0.22 0.26 0.35 0.29 0.33 0.37 0.37 0.50 0.53 0.52 0.41 0.34 0.28 0.22 0.14 0.08 0.04 0.02 0.02 0.02
0.44 0.41 0.53 0.57 0.56 0.74 0.77 0.83 0.91 0.88 0.93 0.98 0.87 0.87 0.79 0.69 0.70 0.71 0.71 0.71 0.64 0.48 0.44 0.37 0.39 0.35 0.29 0.33 0.37 0.44 0.43 0.33 0.23 0.18 0.15 0.13 0.09 0.06 0.04 0.02 0.02 0.01 0.00
0.14 0.20 0.24 0.28 0.37 0.39 0.41 0.48 0.45 0.45 0.42 0.41 0.40 0.40 0.41 0.39 0.39 0.43 0.42 0.40 0.35 0.31 0.29 0.26 0.23 0.20 0.20 0.22 0.24 0.24 0.24 0.20 0.15 0.11 0.08 0.04 0.01 0.01 0.01 0.00 0.00 0.00 0.00
0.03 0.05 0.07 0.09 0.12 0.15 0.21 0.27 0.33 0.37 0.36 0.32 0.27 0.23 0.20 0.17 0.16 0.16 0.18 0.21 0.21 0.19 0.17 0.14 0.09 0.06 0.04 0.05 0.06 0.06 0.03 0.02 0.02 0.01 0.01 0.00 0.00 0.00 0.00 0.00 0.00 0.00 0.00
0.00 0.01 0.02 0.01 0.01 0.03 0.06 0.08 0.11 0.17 0.18 0.21 0.26 0.25 0.22 0.24 0.26 0.22 0.20 0.19 0.18 0.16 0.12 0.08 0.06 0.04 0.02 0.01 0.00 0.00 0.00 0.00 0.00 0.00 0.00 0.00 0.00 0.00 0.00 0.00 0.00 0.00 0.00
0.00 0.01 0.02 0.02 0.01 0.00 0.00 0.01 0.02 0.04 0.03 0.05 0.06 0.08 0.12 0.12 0.10 0.09 0.09 0.09 0.11 0.12 0.12 0.13 0.13 0.11 0.08 0.06 0.03 0.01 0.00 0.00 0.00 0.00 0.00 0.00 0.00 0.00 0.00 0.00 0.00 0.00 0.00
0.01 0.01 0.01 0.01 0.02 0.03 0.02 0.01 0.02 0.01 0.01 0.01 0.01 0.02 0.02 0.03 0.02 0.02 0.02 0.02 0.01 0.01 0.01 0.02 0.02 0.01 0.01 0.01 0.01 0.01 0.00 0.00 0.00 0.00 0.00 0.00 0.00 0.00 0.00 0.00 0.00 0.00 0.00
0.02 0.02 0.02 0.02 0.02 0.02 0.02 0.03 0.02 0.02 0.01 0.02 0.02 0.01 0.01 0.00 0.00 0.00 0.00 0.00 0.00 0.00 0.00 0.00 0.00 0.00 0.00 0.00 0.00 0.00 0.00 0.00 0.00 0.00 0.00 0.00 0.00 0.00 0.00 0.00 0.00 0.00 0.00
0.01 0.02 0.03 0.02 0.02 0.02 0.02 0.02 0.02 0.02 0.02 0.03 0.04 0.03 0.01 0.01 0.00 0.00 0.00 0.00 0.00 0.00 0.00 0.00 0.00 0.00 0.00 0.00 0.00 0.00 0.00 0.00 0.00 0.00 0.00 0.00 0.00 0.00 0.00 0.00 0.00 0.00 0.00
0.01 0.01 0.01 0.02 0.02 0.02 0.02 0.02 0.02 0.01 0.01 0.02 0.02 0.04 0.03 0.01 0.01 0.00 0.00 0.00 0.00 0.00 0.00 0.00 0.00 0.00 0.00 0.00 0.00 0.00 0.00 0.00 0.00 0.00 0.00 0.00 0.00 0.00 0.00 0.00 0.00 0.00 0.00
0.03 0.01 0.01 0.01 0.02 0.02 0.02 0.02 0.02 0.01 0.01 0.02 0.02 0.01 0.01 0.01 0.01 0.00 0.00 0.00 0.01 0.00 0.00 0.00 0.00 0.00 0.00 0.00 0.00 0.00 0.00 0.00 0.00 0.00 0.00 0.00 0.00 0.00 0.00 0.00 0.00 0.00 0.00
0.02 0.02 0.01 0.02 0.01 0.02 0.02 0.03 0.02 0.02 0.02 0.01 0.01 0.00 0.00 0.00 0.00 0.00 0.00 0.00 0.00 0.00 0.00 0.00 0.00 0.00 0.00 0.00 0.00 0.00 0.00 0.00 0.00 0.00 0.00 0.00 0.00 0.00 0.00 0.00 0.00 0.00 0.00
0.01 0.02 0.01 0.02 0.03 0.02 0.01 0.02 0.02 0.02 0.01 0.00 0.00 0.00 0.00 0.00 0.00 0.01 0.01 0.00 0.00 0.00 0.00 0.00 0.00 0.00 0.01 0.00 0.00 0.00 0.00 0.00 0.00 0.00 0.00 0.00 0.00 0.00 0.00 0.00 0.00 0.00 0.00
0.01 0.01 0.01 0.01 0.01 0.01 0.02 0.01 0.00 0.00 0.00 0.00 0.00 0.00 0.00 0.00 0.00 0.00 0.00 0.01 0.00 0.00 0.00 0.00 0.00 0.00 0.00 0.00 0.00 0.00 0.00 0.00 0.00 0.00 0.00 0.00 0.00 0.00 0.00 0.00 0.00 0.00 0.00
0.00 0.00 0.01 0.01 0.01 0.02 0.02 0.01 0.00 0.01 0.01 0.01 0.01 0.01 0.01 0.01 0.01 0.00 0.00 0.00 0.00 0.00 0.00 0.00 0.00 0.00 0.00 0.00 0.00 0.00 0.00 0.00 0.00 0.00 0.00 0.00 0.00 0.00 0.00 0.00 0.00 0.00 0.00
0.00 0.00 0.00 0.00 0.01 0.01 0.01 0.02 0.02 0.01 0.01 0.01 0.01 0.01 0.01 0.00 0.01 0.00 0.00 0.00 0.00 0.00 0.00 0.00 0.00 0.00 0.00 0.00 0.00 0.00 0.00 0.00 0.00 0.00 0.00 0.00 0.00 0.00 0.00 0.00 0.00 0.00 0.00

GFSGL_prec_precacc12_120.txt.gz
Total_Precipitation_Accumulation
0.02 0.07 0.10 0.06 0.10 0.15 0.10 0.08 0.11 0.15 0.16 0.13 0.09 0.05 0.02 0.03 0.02 0.01 0.01 0.02 0.01 0.02 0.02 0.06 0.07 0.08 0.12 0.19 0.21 0.17 0.13 0.10 0.07 0.07 0.06 0.06 0.03 0.01 0.01 0.02 0.02 0.02 0.02
0.10 0.17 0.18 0.21 0.29 0.25 0.18 0.12 0.12 0.13 0.18 0.15 0.14 0.06 0.02 0.03 0.03 0.02 0.01 0.01 0.01 0.01 0.01 0.01 0.02 0.08 0.10 0.10 0.15 0.23 0.25 0.23 0.21 0.14 0.08 0.07 0.05 0.05 0.04 0.03 0.02 0.02 0.02
0.06 0.17 0.23 0.27 0.35 0.38 0.31 0.20 0.22 0.25 0.25 0.22 0.17 0.11 0.07 0.06 0.05 0.03 0.02 0.02 0.02 0.01 0.01 0.01 0.01 0.02 0.07 0.14 0.19 0.24 0.27 0.33 0.32 0.34 0.26 0.16 0.14 0.12 0.12 0.09 0.05 0.05 0.05
0.02 0.03 0.10 0.20 0.34 0.39 0.37 0.31 0.33 0.33 0.28 0.24 0.21 0.18 0.19 0.13 0.08 0.07 0.05 0.05 0.02 0.01 0.01 0.02 0.03 0.03 0.05 0.08 0.12 0.19 0.28 0.43 0.49 0.48 0.41 0.31 0.25 0.24 0.26 0.20 0.16 0.12 0.16
0.05 0.04 0.05 0.08 0.22 0.34 0.36 0.33 0.31 0.34 0.32 0.26 0.19 0.15 0.14 0.12 0.11 0.08 0.05 0.04 0.04 0.03 0.02 0.02 0.02 0.07 0.13 0.11 0.13 0.14 0.19 0.24 0.31 0.33 0.41 0.36 0.24 0.23 0.24 0.18 0.19 0.20 0.37
0.06 0.07 0.10 0.13 0.23 0.32 0.25 0.29 0.24 0.23 0.26 0.32 0.38 0.34 0.22 0.15 0.16 0.10 0.07 0.04 0.03 0.03 0.03 0.02 0.02 0.05 0.04 0.10 0.15 0.14 0.11 0.12 0.16 0.15 0.13 0.12 0.07 0.07 0.10 0.15 0.14 0.25 0.29
0.08 0.07 0.08 0.13 0.23 0.30 0.30 0.36 0.33 0.31 0.33 0.29 0.28 0.32 0.44 0.48 0.42 0.25 0.12 0.05 0.04 0.03 0.04 0.04 0.03 0.03 0.04 0.02 0.07 0.09 0.12 0.10 0.06 0.05 0.07 0.05 0.04 0.04 0.05 0.08 0.07 0.07 0.11
0.19 0.14 0.12 0.19 0.31 0.46 0.42 0.38 0.47 0.48 0.40 0.43 0.46 0.34 0.23 0.27 0.31 0.19 0.14 0.05 0.04 0.04 0.07 0.07 0.05 0.05 0.07 0.06 0.03 0.03 0.03 0.04 0.05 0.03 0.02 0.04 0.05 0.07 0.07 0.08 0.08 0.12 0.18
0.36 0.31 0.31 0.27 0.36 0.42 0.56 0.63 0.59 0.60 0.70 0.70 0.63 0.62 0.49 0.31 0.27 0.28 0.20 0.07 0.06 0.06 0.06 0.07 0.08 0.05 0.10 0.10 0.03 0.05 0.06 0.07 0.11 0.12 0.11 0.14 0.12 0.09 0.08 0.08 0.07 0.10 0.13
0.35 0.46 0.46 0.47 0.55 0.63 0.70 0.83 1.03 1.02 0.89 0.87 0.87 0.81 0.78 0.58 0.61 0.56 0.40 0.19 0.14 0.10 0.10 0.10 0.15 0.11 0.16 0.11 0.06 0.04 0.08 0.09 0.07 0.10 0.11 0.10 0.10 0.11 0.14 0.09 0.09 0.13 0.14
0.21 0.27 0.32 0.48 0.62 0.67 0.76 0.94 1.13 1.27 1.36 1.22 1.09 0.98 0.90 0.93 0.96 0.99 1.00 0.77 0.62 0.39 0.28 0.24 0.25 0.38 0.31 0.33 0.36 0.28 0.42 0.40 0.37 0.27 0.21 0.18 0.16 0.14 0.13 0.13 0.15 0.21 0.24
0.12 0.11 0.17 0.20 0.24 0.44 0.52 0.62 0.77 0.81 0.94 1.04 1.01 1.02 1.01 1.00 1.02 1.02 1.09 1.19 1.09 0.73 0.62 0.54 0.63 0.64 0.56 0.60 0.62 0.70 0.68 0.49 0.30 0.26 0.23 0.21 0.18 0.15 0.15 0.15 0.18 0.24 0.28
0.04 0.06 0.06 0.09 0.13 0.16 0.26 0.38 0.38 0.42 0.44 0.47 0.50 0.54 0.59 0.63 0.69 0.80 0.85 0.87 0.87 0.77 0.74 0.74 0.71 0.60 0.56 0.59 0.60 0.61 0.57 0.46 0.40 0.40 0.37 0.31 0.22 0.17 0.17 0.17 0.16 0.16 0.16
0.01 0.02 0.02 0.03 0.05 0.07 0.09 0.14 0.23 0.31 0.32 0.31 0.28 0.26 0.25 0.25 0.28 0.32 0.39 0.47 0.53 0.54 0.53 0.49 0.43 0.37 0.36 0.37 0.41 0.45 0.43 0.40 0.36 0.31 0.27 0.25 0.17 0.10 0.09 0.08 0.07 0.05 0.04
0.00 0.01 0.02 0.00 0.00 0.01 0.03 0.06 0.09 0.16 0.16 0.18 0.23 0.23 0.22 0.26 0.31 0.27 0.27 0.28 0.31 0.34 0.30 0.26 0.24 0.22 0.21 0.20 0.20 0.21 0.22 0.23 0.21 0.20 0.17 0.12 0.05 0.02 0.01 0.00 0.00 0.00 0.00
0.00 0.01 0.02 0.03 0.01 0.00 0.00 0.01 0.02 0.04 0.03 0.05 0.07 0.09 0.13 0.15 0.12 0.10 0.11 0.12 0.15 0.17 0.18 0.21 0.24 0.24 0.22 0.21 0.19 0.17 0.14 0.11 0.09 0.06 0.04 0.04 0.02 0.01 0.01 0.01 0.01 0.01 0.01
0.01 0.01 0.01 0.01 0.02 0.02 0.01 0.00 0.00 0.00 0.00 0.01 0.02 0.02 0.03 0.03 0.02 0.02 0.02 0.02 0.02 0.02 0.03 0.05 0.06 0.08 0.09 0.10 0.11 0.11 0.11 0.11 0.09 0.08 0.06 0.04 0.03 0.02 0.02 0.02 0.02 0.01 0.01
0.01 0.01 0.01 0.01 0.01 0.01 0.01 0.01 0.01 0.01 0.01 0.01 0.02 0.01 0.01 0.00 0.00 0.00 0.00 0.00 0.00 0.00 0.00 0.01 0.01 0.01 0.01 0.01 0.02 0.02 0.02 0.02 0.02 0.01 0.01 0.01 0.01 0.01 0.01 0.01 0.01 0.00 0.00
0.00 0.01 0.01 0.01 0.01 0.01 0.00 0.00 0.00 0.01 0.01 0.02 0.02 0.02 0.01 0.00 0.00 0.00 0.00 0.00 0.00 0.00 0.00 0.00 0.00 0.00 0.00 0.00 0.00 0.00 0.00 0.00 0.00 0.00 0.00 0.00 0.00 0.00 0.00 0.00 0.00 0.00 0.00
0.01 0.00 0.00 0.00 0.00 0.01 0.00 0.00 0.00 0.00 0.01 0.01 0.01 0.03 0.01 0.00 0.00 0.00 0.00 0.00 0.00 0.00 0.00 0.00 0.00 0.00 0.00 0.00 0.00 0.00 0.00 0.00 0.00 0.00 0.00 0.00 0.00 0.00 0.00 0.00 0.00 0.00 0.00
0.01 0.00 0.00 0.00 0.00 0.01 0.01 0.01 0.00 0.00 0.01 0.01 0.01 0.01 0.00 0.00 0.01 0.00 0.00 0.00 0.01 0.00 0.00 0.00 0.00 0.00 0.00 0.00 0.00 0.00 0.00 0.00 0.00 0.00 0.00 0.00 0.00 0.00 0.00 0.00 0.00 0.00 0.00
0.01 0.01 0.00 0.01 0.00 0.00 0.01 0.02 0.01 0.01 0.01 0.01 0.01 0.00 0.00 0.00 0.00 0.00 0.00 0.00 0.00 0.00 0.00 0.00 0.00 0.00 0.00 0.00 0.00 0.00 0.00 0.00 0.00 0.00 0.00 0.00 0.00 0.00 0.00 0.00 0.00 0.00 0.00
0.00 0.00 0.00 0.01 0.01 0.00 0.00 0.01 0.01 0.01 0.00 0.00 0.00 0.00 0.00 0.00 0.00 0.00 0.00 0.00 0.00 0.00 0.00 0.00 0.00 0.00 0.00 0.00 0.00 0.00 0.00 0.00 0.00 0.00 0.00 0.00 0.00 0.00 0.00 0.00 0.00 0.00 0.00
0.00 0.00 0.00 0.01 0.01 0.01 0.01 0.01 0.00 0.00 0.00 0.00 0.00 0.00 0.00 0.00 0.00 0.00 0.00 0.00 0.00 0.00 0.00 0.00 0.00 0.00 0.00 0.00 0.00 0.00 0.00 0.00 0.00 0.00 0.00 0.00 0.00 0.00 0.00 0.00 0.00 0.00 0.00
0.00 0.00 0.00 0.00 0.01 0.02 0.02 0.01 0.00 0.00 0.01 0.01 0.01 0.01 0.01 0.01 0.00 0.00 0.00 0.00 0.00 0.00 0.00 0.00 0.00 0.00 0.00 0.00 0.00 0.00 0.00 0.00 0.00 0.00 0.00 0.00 0.00 0.00 0.00 0.00 0.00 0.00 0.00
0.00 0.00 0.00 0.00 0.00 0.00 0.01 0.01 0.01 0.01 0.00 0.01 0.00 0.01 0.01 0.00 0.00 0.00 0.00 0.00 0.00 0.00 0.00 0.00 0.00 0.00 0.00 0.00 0.00 0.00 0.00 0.00 0.00 0.00 0.00 0.00 0.00 0.00 0.00 0.00 0.00 0.00 0.00

GFSGL_prec_precacc12_123.txt.gz
Total_Precipitation_Accumulation
0.02 0.03 0.03 0.02 0.05 0.07 0.07 0.07 0.12 0.17 0.22 0.18 0.15 0.10 0.04 0.05 0.06 0.05 0.03 0.03 0.02 0.03 0.02 0.01 0.01 0.01 0.03 0.09 0.15 0.13 0.10 0.09 0.08 0.09 0.11 0.14 0.16 0.12 0.11 0.06 0.04 0.03 0.02
0.03 0.07 0.08 0.10 0.13 0.13 0.15 0.12 0.13 0.12 0.16 0.20 0.21 0.13 0.07 0.06 0.05 0.05 0.03 0.03 0.03 0.02 0.03 0.02 0.02 0.06 0.05 0.05 0.10 0.16 0.15 0.13 0.14 0.13 0.12 0.16 0.10 0.08 0.08 0.07 0.04 0.03 0.02
0.00 0.04 0.10 0.12 0.17 0.23 0.26 0.20 0.18 0.19 0.23 0.23 0.19 0.14 0.10 0.09 0.07 0.06 0.08 0.04 0.04 0.03 0.03 0.01 0.01 0.02 0.06 0.12 0.18 0.21 0.21 0.26 0.25 0.29 0.29 0.25 0.22 0.17 0.15 0.10 0.06 0.05 0.05
0.00 0.00 0.05 0.10 0.19 0.24 0.32 0.29 0.27 0.27 0.27 0.26 0.24 0.22 0.23 0.17 0.11 0.11 0.09 0.06 0.05 0.04 0.02 0.02 0.03 0.03 0.05 0.07 0.10 0.17 0.26 0.40 0.48 0.54 0.55 0.45 0.32 0.27 0.28 0.21 0.16 0.13 0.17
0.02 0.02 0.01 0.03 0.09 0.18 0.31 0.31 0.27 0.30 0.30 0.27 0.21 0.18 0.20 0.22 0.22 0.15 0.09 0.07 0.08 0.06 0.03 0.02 0.02 0.06 0.12 0.10 0.12 0.14 0.19 0.23 0.32 0.38 0.51 0.51 0.38 0.31 0.28 0.20 0.22 0.26 0.45
0.04 0.03 0.03 0.03 0.03 0.10 0.16 0.22 0.22 0.21 0.26 0.36 0.45 0.49 0.42 0.28 0.25 0.15 0.11 0.06 0.05 0.06 0.06 0.04 0.02 0.05 0.04 0.10 0.15 0.15 0.12 0.13 0.17 0.19 0.20 0.22 0.17 0.20 0.27 0.34 0.31 0.45 0.43
0.03 0.02 0.02 0.03 0.10 0.12 0.20 0.28 0.29 0.30 0.32 0.29 0.30 0.37 0.61 0.70 0.71 0.65 0.51 0.34 0.27 0.22 0.11 0.06 0.04 0.03 0.05 0.02 0.08 0.11 0.13 0.13 0.09 0.05 0.07 0.08 0.07 0.06 0.12 0.22 0.25 0.28 0.19
0.13 0.08 0.06 0.08 0.12 0.25 0.28 0.29 0.41 0.44 0.39 0.42 0.45 0.35 0.25 0.30 0.43 0.52 0.61 0.63 0.69 0.57 0.28 0.09 0.04 0.04 0.05 0.04 0.02 0.03 0.03 0.04 0.06 0.05 0.01 0.01 0.02 0.03 0.05 0.07 0.11 0.19 0.21
0.20 0.21 0.22 0.14 0.17 0.17 0.35 0.49 0.48 0.49 0.62 0.66 0.61 0.61 0.49 0.34 0.35 0.38 0.39 0.29 0.29 0.27 0.16 0.10 0.10 0.07 0.14 0.13 0.04 0.04 0.04 0.04 0.07 0.08 0.07 0.08 0.07 0.04 0.04 0.04 0.05 0.09 0.13
0.18 0.28 0.25 0.28 0.28 0.41 0.48 0.55 0.77 0.81 0.69 0.73 0.75 0.73 0.74 0.62 0.73 0.78 0.75 0.62 0.54 0.45 0.30 0.19 0.21 0.18 0.27 0.18 0.08 0.03 0.03 0.03 0.02 0.04 0.06 0.07 0.06 0.07 0.11 0.06 0.05 0.09 0.12
0.06 0.14 0.16 0.16 0.21 0.30 0.42 0.49 0.64 0.88 1.00 0.94 0.88 0.83 0.74 0.76 0.81 0.90 1.07 1.02 0.88 0.63 0.43 0.33 0.32 0.41 0.33 0.33 0.34 0.25 0.37 0.28 0.22 0.16 0.15 0.16 0.14 0.13 0.13 0.13 0.15 0.21 0.24
0.00 0.00 0.01 0.02 0.05 0.11 0.15 0.23 0.31 0.37 0.51 0.63 0.68 0.75 0.77 0.78 0.79 0.81 0.94 1.11 1.11 0.88 0.74 0.56 0.59 0.60 0.51 0.56 0.58 0.72 0.76 0.62 0.43 0.35 0.28 0.23 0.19 0.16 0.16 0.16 0.20 0.26 0.30
0.00 0.00 0.00 0.01 0.01 0.02 0.03 0.05 0.11 0.19 0.21 0.25 0.30 0.33 0.39 0.47 0.57 0.67 0.75 0.81 0.87 0.86 0.92 0.97 0.93 0.77 0.65 0.68 0.74 0.77 0.73 0.61 0.57 0.55 0.52 0.44 0.30 0.24 0.24 0.25 0.24 0.24 0.24
0.01 0.00 0.00 0.00 0.00 0.00 0.01 0.02 0.04 0.08 0.10 0.13 0.16 0.19 0.20 0.21 0.24 0.29 0.36 0.43 0.53 0.58 0.63 0.64 0.61 0.57 0.54 0.54 0.58 0.63 0.62 0.60 0.57 0.53 0.49 0.49 0.44 0.36 0.31 0.25 0.21 0.19 0.16
0.00 0.01 0.01 0.00 0.00 0.00 0.01 0.02 0.04 0.09 0.08 0.09 0.12 0.13 0.15 0.20 0.26 0.22 0.21 0.24 0.27 0.31 0.28 0.26 0.26 0.27 0.28 0.30 0.31 0.34 0.39 0.44 0.43 0.42 0.38 0.33 0.26 0.21 0.18 0.16 0.14 0.11 0.09
0.00 0.01 0.01 0.02 0.00 0.00 0.00 0.00 0.01 0.03 0.02 0.03 0.05 0.06 0.10 0.12 0.09 0.08 0.08 0.09 0.11 0.14 0.16 0.19 0.23 0.24 0.24 0.25 0.25 0.25 0.23 0.21 0.21 0.20 0.19 0.17 0.15 0.11 0.08 0.05 0.04 0.04 0.04
0.01 0.01 0.00 0.01 0.01 0.01 0.00 0.00 0.00 0.00 0.00 0.01 0.02 0.02 0.02 0.02 0.02 0.02 0.02 0.02 0.02 0.02 0.03 0.04 0.07 0.08 0.10 0.11 0.13 0.14 0.16 0.17 0.16 0.15 0.13 0.11 0.09 0.07 0.06 0.05 0.04 0.03 0.03
0.00 0.01 0.01 0.01 0.01 0.00 0.01 0.00 0.00 0.00 0.00 0.01 0.01 0.01 0.01 0.00 0.00 0.00 0.00 0.00 0.00 0.00 0.00 0.01 0.01 0.01 0.01 0.02 0.02 0.02 0.03 0.04 0.04 0.05 0.05 0.05 0.04 0.03 0.02 0.02 0.01 0.01 0.01
0.00 0.00 0.00 0.01 0.01 0.00 0.00 0.00 0.00 0.00 0.00 0.01 0.00 0.00 0.00 0.00 0.00 0.00 0.00 0.00 0.00 0.00 0.00 0.00 0.00 0.00 0.00 0.00 0.00 0.00 0.00 0.00 0.00 0.00 0.00 0.00 0.00 0.00 0.00 0.00 0.00 0.00 0.00
0.00 0.00 0.00 0.00 0.00 0.00 0.00 0.00 0.00 0.00 0.00 0.01 0.00 0.01 0.00 0.00 0.00 0.00 0.00 0.00 0.00 0.00 0.00 0.00 0.00 0.00 0.00 0.00 0.00 0.00 0.00 0.00 0.00 0.00 0.00 0.00 0.00 0.00 0.00 0.00 0.00 0.00 0.00
0.01 0.00 0.00 0.00 0.00 0.01 0.01 0.00 0.00 0.00 0.01 0.01 0.01 0.01 0.00 0.00 0.01 0.00 0.00 0.00 0.00 0.00 0.00 0.00 0.00 0.00 0.00 0.00 0.00 0.00 0.00 0.00 0.00 0.00 0.00 0.00 0.00 0.00 0.00 0.00 0.00 0.00 0.00
0.00 0.00 0.00 0.01 0.00 0.01 0.01 0.01 0.01 0.00 0.00 0.00 0.01 0.00 0.00 0.00 0.00 0.00 0.00 0.00 0.01 0.00 0.00 0.00 0.00 0.00 0.00 0.00 0.00 0.00 0.00 0.00 0.00 0.00 0.00 0.00 0.00 0.00 0.00 0.00 0.00 0.00 0.00
0.00 0.00 0.00 0.00 0.00 0.00 0.01 0.01 0.01 0.01 0.00 0.00 0.00 0.00 0.00 0.00 0.00 0.00 0.00 0.00 0.00 0.00 0.00 0.00 0.00 0.00 0.00 0.00 0.00 0.00 0.00 0.00 0.00 0.00 0.00 0.00 0.00 0.00 0.00 0.00 0.00 0.00 0.00
0.00 0.00 0.00 0.00 0.01 0.01 0.01 0.01 0.00 0.00 0.00 0.00 0.00 0.00 0.00 0.00 0.00 0.00 0.00 0.00 0.00 0.00 0.00 0.00 0.00 0.00 0.00 0.00 0.00 0.00 0.00 0.00 0.00 0.00 0.00 0.00 0.00 0.00 0.00 0.00 0.00 0.00 0.00
0.00 0.00 0.00 0.00 0.00 0.01 0.02 0.01 0.00 0.00 0.01 0.01 0.01 0.01 0.01 0.01 0.00 0.00 0.00 0.00 0.00 0.00 0.00 0.00 0.00 0.00 0.00 0.00 0.00 0.00 0.00 0.00 0.00 0.00 0.00 0.00 0.00 0.00 0.00 0.00 0.00 0.00 0.00
0.00 0.00 0.00 0.00 0.00 0.00 0.00 0.01 0.01 0.01 0.01 0.01 0.00 0.01 0.01 0.00 0.00 0.00 0.00 0.00 0.00 0.00 0.00 0.00 0.00 0.00 0.00 0.00 0.00 0.00 0.00 0.00 0.00 0.00 0.00 0.00 0.00 0.00 0.00 0.00 0.00 0.00 0.00

GFSGL_prec_precacc12_126.txt.gz
Total_Precipitation_Accumulation
0.02 0.02 0.01 0.00 0.00 0.01 0.03 0.06 0.11 0.15 0.22 0.20 0.18 0.15 0.07 0.07 0.07 0.07 0.04 0.04 0.03 0.05 0.06 0.05 0.04 0.02 0.01 0.06 0.12 0.12 0.10 0.10 0.09 0.09 0.11 0.15 0.20 0.21 0.23 0.17 0.11 0.06 0.03
0.02 0.03 0.02 0.03 0.03 0.03 0.05 0.07 0.10 0.10 0.14 0.20 0.25 0.19 0.13 0.10 0.08 0.06 0.04 0.03 0.04 0.07 0.09 0.06 0.04 0.04 0.04 0.02 0.04 0.10 0.11 0.12 0.14 0.13 0.12 0.15 0.10 0.08 0.14 0.17 0.14 0.10 0.06
0.05 0.02 0.04 0.05 0.04 0.05 0.09 0.11 0.13 0.13 0.19 0.22 0.18 0.15 0.15 0.14 0.13 0.10 0.13 0.10 0.10 0.09 0.08 0.06 0.05 0.04 0.06 0.08 0.09 0.09 0.13 0.20 0.20 0.20 0.20 0.17 0.14 0.13 0.14 0.11 0.11 0.10 0.09
0.02 0.01 0.01 0.03 0.07 0.08 0.12 0.14 0.15 0.19 0.23 0.25 0.25 0.23 0.25 0.19 0.14 0.14 0.10 0.09 0.09 0.09 0.08 0.06 0.05 0.04 0.05 0.07 0.09 0.12 0.18 0.34 0.40 0.44 0.44 0.38 0.27 0.23 0.26 0.21 0.19 0.18 0.24
0.00 0.00 0.00 0.01 0.02 0.06 0.14 0.16 0.17 0.22 0.25 0.23 0.21 0.20 0.22 0.22 0.21 0.14 0.07 0.06 0.08 0.08 0.08 0.07 0.05 0.09 0.13 0.10 0.12 0.13 0.16 0.21 0.29 0.34 0.47 0.49 0.41 0.35 0.32 0.24 0.27 0.32 0.52
0.01 0.01 0.00 0.01 0.01 0.01 0.02 0.04 0.07 0.12 0.22 0.33 0.44 0.51 0.43 0.30 0.29 0.14 0.09 0.05 0.04 0.06 0.07 0.06 0.07 0.10 0.08 0.11 0.14 0.14 0.11 0.12 0.17 0.19 0.20 0.22 0.17 0.22 0.33 0.45 0.42 0.57 0.50
0.00 0.00 0.01 0.00 0.00 0.01 0.03 0.11 0.13 0.17 0.27 0.27 0.30 0.42 0.67 0.82 0.86 0.78 0.63 0.44 0.37 0.38 0.37 0.33 0.24 0.19 0.17 0.09 0.10 0.11 0.13 0.13 0.09 0.05 0.06 0.07 0.06 0.07 0.15 0.32 0.42 0.44 0.30
0.01 0.03 0.02 0.02 0.02 0.02 0.04 0.07 0.20 0.28 0.33 0.40 0.45 0.35 0.24 0.29 0.43 0.54 0.71 0.84 0.92 0.79 0.72 0.66 0.67 0.63 0.55 0.44 0.12 0.03 0.03 0.05 0.06 0.05 0.01 0.01 0.02 0.02 0.04 0.07 0.13 0.27 0.28
0.01 0.04 0.06 0.05 0.03 0.03 0.09 0.19 0.18 0.22 0.40 0.56 0.57 0.59 0.48 0.32 0.31 0.33 0.39 0.33 0.36 0.37 0.33 0.30 0.28 0.28 0.36 0.30 0.13 0.05 0.03 0.04 0.09 0.09 0.08 0.11 0.08 0.05 0.02 0.01 0.02 0.07 0.13
0.01 0.02 0.06 0.06 0.10 0.16 0.23 0.21 0.35 0.51 0.47 0.52 0.63 0.64 0.65 0.59 0.66 0.67 0.66 0.65 0.64 0.56 0.42 0.31 0.33 0.30 0.34 0.20 0.10 0.05 0.05 0.02 0.01 0.02 0.04 0.05 0.05 0.06 0.11 0.06 0.03 0.05 0.08
0.00 0.00 0.01 0.04 0.08 0.12 0.17 0.25 0.25 0.33 0.56 0.58 0.58 0.54 0.49 0.50 0.55 0.65 0.81 0.84 0.81 0.68 0.60 0.55 0.54 0.62 0.48 0.46 0.44 0.32 0.41 0.31 0.22 0.10 0.06 0.05 0.04 0.04 0.08 0.12 0.15 0.21 0.24
0.00 0.00 0.00 0.00 0.02 0.03 0.03 0.03 0.06 0.13 0.21 0.28 0.40 0.48 0.51 0.54 0.55 0.55 0.62 0.80 0.88 0.77 0.71 0.65 0.70 0.72 0.63 0.62 0.61 0.74 0.74 0.57 0.43 0.41 0.33 0.29 0.24 0.20 0.18 0.16 0.20 0.27 0.33
0.00 0.00 0.00 0.00 0.00 0.00 0.00 0.00 0.01 0.02 0.05 0.09 0.13 0.18 0.24 0.30 0.37 0.44 0.53 0.60 0.68 0.70 0.79 0.87 0.86 0.73 0.63 0.66 0.75 0.79 0.73 0.58 0.56 0.58 0.59 0.56 0.42 0.35 0.35 0.34 0.30 0.27 0.28
0.00 0.00 0.00 0.00 0.00 0.00 0.00 0.00 0.01 0.02 0.01 0.01 0.02 0.04 0.06 0.09 0.14 0.18 0.23 0.28 0.36 0.43 0.49 0.53 0.56 0.55 0.57 0.60 0.66 0.77 0.83 0.88 0.86 0.78 0.69 0.65 0.59 0.50 0.43 0.38 0.35 0.33 0.28
0.00 0.00 0.00 0.00 0.00 0.00 0.00 0.02 0.02 0.07 0.05 0.04 0.05 0.04 0.05 0.08 0.11 0.08 0.08 0.11 0.14 0.19 0.20 0.21 0.23 0.27 0.31 0.36 0.40 0.46 0.56 0.64 0.67 0.70 0.66 0.58 0.47 0.40 0.36 0.35 0.34 0.30 0.28
0.00 0.00 0.01 0.01 0.00 0.00 0.00 0.00 0.01 0.02 0.01 0.02 0.02 0.02 0.04 0.06 0.02 0.01 0.02 0.03 0.04 0.05 0.06 0.09 0.12 0.15 0.18 0.23 0.26 0.29 0.30 0.31 0.35 0.35 0.36 0.34 0.31 0.27 0.22 0.19 0.17 0.18 0.18
0.01 0.01 0.00 0.00 0.00 0.00 0.00 0.00 0.00 0.00 0.00 0.00 0.01 0.01 0.01 0.01 0.00 0.00 0.00 0.00 0.01 0.01 0.02 0.03 0.05 0.07 0.10 0.11 0.13 0.15 0.18 0.22 0.22 0.22 0.22 0.21 0.19 0.17 0.15 0.14 0.13 0.12 0.10
0.00 0.00 0.01 0.01 0.01 0.00 0.00 0.00 0.00 0.00 0.00 0.00 0.00 0.00 0.01 0.00 0.00 0.00 0.00 0.00 0.00 0.00 0.00 0.01 0.01 0.01 0.01 0.02 0.02 0.03 0.04 0.05 0.06 0.08 0.09 0.10 0.10 0.09 0.08 0.07 0.06 0.05 0.04
0.00 0.00 0.00 0.00 0.01 0.00 0.00 0.00 0.00 0.00 0.00 0.01 0.00 0.00 0.00 0.00 0.00 0.00 0.00 0.00 0.00 0.00 0.00 0.00 0.00 0.00 0.00 0.00 0.00 0.00 0.00 0.00 0.00 0.00 0.00 0.01 0.01 0.01 0.01 0.01 0.01 0.01 0.01
0.00 0.00 0.00 0.00 0.00 0.00 0.00 0.00 0.00 0.00 0.00 0.00 0.00 0.01 0.00 0.00 0.00 0.00 0.00 0.00 0.00 0.01 0.00 0.00 0.00 0.00 0.00 0.00 0.00 0.00 0.00 0.00 0.00 0.00 0.00 0.00 0.00 0.00 0.00 0.00 0.00 0.00 0.00
0.00 0.00 0.00 0.00 0.00 0.01 0.01 0.01 0.00 0.00 0.00 0.00 0.01 0.01 0.00 0.00 0.00 0.00 0.00 0.00 0.01 0.01 0.01 0.00 0.00 0.00 0.00 0.00 0.00 0.00 0.00 0.00 0.00 0.00 0.00 0.00 0.00 0.00 0.00 0.00 0.00 0.00 0.00
0.00 0.00 0.00 0.00 0.00 0.01 0.01 0.01 0.01 0.00 0.01 0.01 0.01 0.00 0.00 0.00 0.00 0.00 0.00 0.00 0.01 0.00 0.00 0.00 0.00 0.00 0.00 0.00 0.00 0.00 0.00 0.00 0.00 0.00 0.00 0.00 0.00 0.00 0.00 0.00 0.00 0.00 0.00
0.00 0.00 0.00 0.00 0.00 0.00 0.01 0.01 0.01 0.01 0.00 0.01 0.00 0.00 0.00 0.00 0.00 0.00 0.00 0.00 0.00 0.00 0.00 0.00 0.00 0.00 0.00 0.00 0.00 0.00 0.00 0.00 0.00 0.01 0.00 0.00 0.00 0.00 0.00 0.00 0.00 0.00 0.00
0.00 0.00 0.00 0.00 0.01 0.01 0.01 0.01 0.01 0.01 0.01 0.01 0.01 0.01 0.01 0.01 0.01 0.01 0.01 0.00 0.00 0.00 0.00 0.00 0.00 0.00 0.00 0.00 0.00 0.00 0.00 0.00 0.00 0.00 0.00 0.00 0.00 0.00 0.00 0.00 0.00 0.00 0.00
0.00 0.00 0.00 0.00 0.00 0.01 0.01 0.01 0.01 0.01 0.01 0.01 0.01 0.01 0.01 0.01 0.01 0.01 0.01 0.00 0.00 0.00 0.00 0.00 0.00 0.00 0.00 0.00 0.00 0.00 0.00 0.00 0.00 0.00 0.00 0.00 0.00 0.00 0.00 0.00 0.00 0.00 0.00
0.00 0.00 0.00 0.00 0.00 0.01 0.01 0.01 0.01 0.01 0.01 0.01 0.01 0.01 0.01 0.01 0.01 0.01 0.01 0.01 0.00 0.00 0.00 0.00 0.00 0.00 0.00 0.00 0.00 0.00 0.00 0.00 0.00 0.00 0.00 0.00 0.00 0.00 0.00 0.00 0.00 0.00 0.00

GFSGL_prec_precacc12_129.txt.gz
Total_Precipitation_Accumulation
0.06 0.05 0.03 0.03 0.03 0.02 0.01 0.02 0.06 0.08 0.14 0.15 0.16 0.16 0.09 0.10 0.11 0.09 0.07 0.07 0.06 0.07 0.07 0.06 0.08 0.07 0.05 0.03 0.03 0.08 0.08 0.09 0.09 0.09 0.11 0.15 0.21 0.22 0.23 0.17 0.15 0.09 0.07
0.09 0.05 0.04 0.01 0.01 0.01 0.01 0.02 0.04 0.03 0.05 0.13 0.20 0.19 0.16 0.12 0.10 0.10 0.07 0.06 0.07 0.09 0.12 0.11 0.09 0.10 0.08 0.07 0.04 0.07 0.10 0.10 0.13 0.13 0.12 0.15 0.11 0.08 0.12 0.16 0.17 0.15 0.12
0.06 0.03 0.03 0.04 0.03 0.03 0.03 0.03 0.06 0.05 0.06 0.10 0.11 0.11 0.13 0.16 0.15 0.14 0.17 0.14 0.13 0.11 0.11 0.11 0.10 0.09 0.08 0.08 0.07 0.04 0.06 0.15 0.15 0.16 0.17 0.14 0.13 0.11 0.10 0.07 0.09 0.14 0.18
0.15 0.06 0.03 0.02 0.04 0.05 0.05 0.05 0.06 0.07 0.10 0.13 0.16 0.17 0.18 0.19 0.15 0.15 0.12 0.10 0.13 0.16 0.15 0.12 0.11 0.09 0.07 0.08 0.06 0.06 0.06 0.11 0.18 0.28 0.31 0.27 0.18 0.12 0.11 0.08 0.11 0.13 0.20
0.08 0.08 0.01 0.00 0.01 0.02 0.05 0.07 0.08 0.11 0.13 0.13 0.15 0.20 0.25 0.26 0.26 0.16 0.09 0.09 0.12 0.14 0.16 0.18 0.17 0.16 0.14 0.09 0.10 0.09 0.10 0.13 0.18 0.23 0.34 0.36 0.32 0.27 0.22 0.16 0.19 0.25 0.43
0.01 0.00 0.00 0.00 0.00 0.00 0.00 0.01 0.02 0.03 0.06 0.16 0.33 0.45 0.44 0.31 0.37 0.21 0.14 0.08 0.05 0.08 0.09 0.09 0.12 0.18 0.12 0.13 0.16 0.15 0.10 0.11 0.15 0.15 0.16 0.19 0.16 0.21 0.31 0.42 0.41 0.57 0.48
0.00 0.00 0.00 0.00 0.00 0.00 0.00 0.00 0.00 0.01 0.02 0.04 0.13 0.33 0.66 0.82 0.87 0.78 0.65 0.46 0.39 0.40 0.39 0.36 0.26 0.24 0.24 0.13 0.19 0.23 0.26 0.26 0.17 0.09 0.06 0.06 0.07 0.07 0.15 0.33 0.45 0.48 0.31
0.00 0.00 0.00 0.00 0.00 0.00 0.00 0.00 0.00 0.01 0.05 0.09 0.18 0.24 0.21 0.28 0.41 0.54 0.72 0.87 0.97 0.85 0.78 0.71 0.73 0.70 0.65 0.58 0.44 0.40 0.34 0.32 0.28 0.19 0.06 0.02 0.02 0.03 0.05 0.07 0.13 0.29 0.35
0.00 0.00 0.01 0.00 0.01 0.00 0.00 0.01 0.02 0.02 0.07 0.21 0.35 0.42 0.42 0.30 0.28 0.30 0.34 0.30 0.36 0.39 0.37 0.35 0.36 0.36 0.47 0.44 0.35 0.36 0.32 0.30 0.31 0.24 0.18 0.17 0.13 0.08 0.06 0.03 0.03 0.06 0.10
0.00 0.00 0.01 0.00 0.01 0.01 0.02 0.02 0.01 0.02 0.04 0.06 0.14 0.29 0.45 0.51 0.58 0.58 0.58 0.58 0.58 0.51 0.39 0.32 0.36 0.34 0.44 0.33 0.24 0.22 0.21 0.18 0.17 0.16 0.13 0.09 0.08 0.10 0.17 0.11 0.04 0.05 0.05
0.00 0.00 0.00 0.00 0.01 0.01 0.01 0.02 0.02 0.04 0.07 0.17 0.24 0.29 0.30 0.34 0.40 0.48 0.59 0.60 0.57 0.53 0.50 0.47 0.50 0.58 0.50 0.50 0.51 0.47 0.57 0.46 0.38 0.24 0.19 0.15 0.08 0.04 0.06 0.08 0.07 0.10 0.13
0.00 0.00 0.00 0.00 0.00 0.00 0.00 0.00 0.01 0.03 0.04 0.06 0.11 0.18 0.24 0.29 0.31 0.34 0.40 0.54 0.61 0.52 0.50 0.48 0.55 0.59 0.56 0.60 0.66 0.82 0.85 0.72 0.57 0.53 0.45 0.38 0.31 0.23 0.18 0.15 0.16 0.19 0.25
0.00 0.00 0.00 0.00 0.00 0.00 0.00 0.00 0.00 0.00 0.01 0.01 0.01 0.02 0.04 0.08 0.15 0.23 0.29 0.36 0.46 0.48 0.52 0.56 0.56 0.51 0.47 0.56 0.69 0.79 0.79 0.70 0.69 0.69 0.64 0.59 0.51 0.46 0.41 0.41 0.38 0.37 0.38
0.00 0.00 0.00 0.00 0.00 0.00 0.00 0.00 0.01 0.02 0.01 0.01 0.01 0.02 0.01 0.01 0.03 0.06 0.10 0.15 0.23 0.30 0.35 0.38 0.39 0.40 0.40 0.43 0.51 0.63 0.74 0.85 0.92 0.92 0.87 0.82 0.78 0.69 0.62 0.58 0.56 0.55 0.48
0.00 0.00 0.00 0.00 0.00 0.00 0.00 0.01 0.01 0.05 0.04 0.04 0.05 0.04 0.05 0.06 0.06 0.03 0.02 0.04 0.06 0.09 0.12 0.14 0.17 0.21 0.24 0.28 0.31 0.39 0.51 0.62 0.68 0.78 0.83 0.83 0.77 0.68 0.63 0.61 0.57 0.50 0.46
0.00 0.00 0.00 0.00 0.00 0.00 0.00 0.00 0.00 0.01 0.00 0.01 0.02 0.02 0.03 0.04 0.01 0.00 0.00 0.00 0.01 0.01 0.02 0.03 0.05 0.08 0.11 0.15 0.18 0.23 0.26 0.30 0.37 0.40 0.43 0.45 0.46 0.46 0.45 0.43 0.42 0.41 0.40
0.00 0.00 0.00 0.00 0.00 0.00 0.00 0.00 0.00 0.00 0.00 0.00 0.00 0.00 0.01 0.01 0.00 0.00 0.00 0.00 0.00 0.00 0.01 0.01 0.03 0.04 0.05 0.06 0.08 0.10 0.14 0.20 0.23 0.24 0.27 0.28 0.29 0.29 0.29 0.29 0.29 0.28 0.26
0.00 0.00 0.00 0.01 0.00 0.00 0.00 0.00 0.00 0.00 0.00 0.00 0.00 0.00 0.00 0.00 0.00 0.00 0.00 0.00 0.00 0.00 0.00 0.01 0.01 0.01 0.01 0.01 0.02 0.03 0.05 0.06 0.08 0.10 0.13 0.15 0.17 0.17 0.18 0.18 0.18 0.17 0.16
0.00 0.00 0.00 0.00 0.00 0.00 0.00 0.00 0.00 0.01 0.01 0.01 0.00 0.00 0.00 0.00 0.00 0.00 0.00 0.00 0.01 0.00 0.01 0.00 0.01 0.01 0.00 0.00 0.01 0.01 0.01 0.01 0.00 0.01 0.01 0.02 0.03 0.04 0.07 0.08 0.09 0.09 0.09
0.00 0.00 0.00 0.00 0.00 0.01 0.00 0.00 0.00 0.00 0.01 0.01 0.00 0.00 0.00 0.00 0.00 0.00 0.01 0.01 0.01 0.01 0.01 0.01 0.00 0.01 0.00 0.00 0.01 0.01 0.01 0.00 0.00 0.00 0.01 0.01 0.01 0.00 0.00 0.01 0.01 0.01 0.02
0.00 0.00 0.00 0.00 0.00 0.01 0.01 0.01 0.01 0.01 0.01 0.00 0.01 0.01 0.00 0.00 0.00 0.00 0.00 0.01 0.01 0.01 0.01 0.01 0.01 0.00 0.00 0.00 0.00 0.01 0.01 0.01 0.01 0.01 0.01 0.00 0.00 0.00 0.00 0.00 0.00 0.00 0.00
0.00 0.00 0.00 0.00 0.00 0.01 0.01 0.01 0.01 0.01 0.01 0.01 0.01 0.00 0.00 0.00 0.00 0.00 0.00 0.01 0.01 0.01 0.00 0.01 0.00 0.00 0.00 0.00 0.00 0.00 0.01 0.01 0.01 0.01 0.01 0.01 0.00 0.00 0.00 0.00 0.00 0.00 0.00
0.00 0.00 0.00 0.00 0.00 0.00 0.01 0.01 0.01 0.01 0.01 0.01 0.01 0.01 0.01 0.01 0.01 0.01 0.01 0.01 0.01 0.01 0.01 0.00 0.00 0.00 0.00 0.00 0.00 0.00 0.00 0.01 0.01 0.01 0.01 0.01 0.00 0.00 0.00 0.00 0.00 0.00 0.00
0.00 0.00 0.00 0.00 0.00 0.00 0.01 0.01 0.01 0.01 0.01 0.01 0.01 0.01 0.01 0.01 0.01 0.01 0.01 0.01 0.01 0.01 0.01 0.01 0.00 0.00 0.00 0.00 0.00 0.00 0.00 0.00 0.00 0.00 0.01 0.00 0.00 0.00 0.00 0.00 0.00 0.00 0.00
0.00 0.00 0.00 0.00 0.00 0.01 0.01 0.01 0.01 0.01 0.01 0.01 0.02 0.02 0.02 0.02 0.01 0.01 0.02 0.01 0.01 0.01 0.01 0.01 0.01 0.00 0.00 0.00 0.00 0.00 0.00 0.00 0.00 0.00 0.00 0.00 0.00 0.00 0.00 0.00 0.00 0.00 0.00
0.00 0.00 0.00 0.01 0.01 0.01 0.01 0.01 0.01 0.01 0.01 0.01 0.01 0.02 0.02 0.02 0.01 0.01 0.01 0.01 0.01 0.01 0.01 0.01 0.01 0.00 0.00 0.00 0.00 0.00 0.00 0.00 0.00 0.00 0.00 0.00 0.00 0.00 0.00 0.00 0.00 0.00 0.00

GFSGL_prec_precacc12_135.txt.gz
Total_Precipitation_Accumulation
0.78 0.52 0.55 0.32 0.42 0.20 0.13 0.10 0.22 0.31 0.49 0.56 0.53 0.42 0.38 0.29 0.25 0.18 0.12 0.10 0.15 0.18 0.22 0.23 0.26 0.37 0.42 0.43 0.42 0.38 0.29 0.25 0.18 0.07 0.08 0.13 0.12 0.13 0.14 0.13 0.13 0.08 0.06
1.02 0.65 0.46 0.20 0.16 0.19 0.12 0.10 0.08 0.12 0.13 0.17 0.22 0.33 0.29 0.18 0.14 0.12 0.12 0.11 0.11 0.15 0.18 0.19 0.17 0.22 0.36 0.49 0.51 0.54 0.55 0.56 0.45 0.25 0.17 0.15 0.16 0.11 0.10 0.13 0.15 0.14 0.10
0.48 0.59 0.35 0.14 0.04 0.04 0.13 0.15 0.07 0.11 0.08 0.07 0.11 0.16 0.18 0.15 0.13 0.14 0.16 0.15 0.16 0.17 0.21 0.25 0.23 0.22 0.25 0.33 0.41 0.45 0.35 0.28 0.30 0.24 0.11 0.12 0.12 0.11 0.08 0.06 0.08 0.11 0.15
0.40 0.25 0.42 0.23 0.05 0.03 0.03 0.09 0.08 0.04 0.09 0.12 0.09 0.09 0.09 0.10 0.08 0.06 0.07 0.09 0.13 0.18 0.24 0.24 0.23 0.23 0.19 0.17 0.16 0.17 0.17 0.21 0.25 0.22 0.14 0.11 0.12 0.10 0.11 0.07 0.09 0.08 0.11
0.42 0.36 0.19 0.11 0.04 0.02 0.01 0.02 0.01 0.03 0.05 0.07 0.11 0.11 0.10 0.09 0.10 0.07 0.06 0.07 0.09 0.14 0.22 0.28 0.32 0.37 0.33 0.23 0.20 0.19 0.25 0.33 0.37 0.37 0.35 0.30 0.25 0.20 0.16 0.12 0.10 0.09 0.13
0.05 0.10 0.14 0.05 0.03 0.01 0.00 0.00 0.01 0.01 0.01 0.03 0.06 0.10 0.11 0.12 0.23 0.16 0.20 0.22 0.21 0.18 0.18 0.21 0.28 0.36 0.25 0.24 0.26 0.26 0.24 0.23 0.23 0.23 0.21 0.19 0.15 0.12 0.11 0.14 0.14 0.20 0.19
0.02 0.01 0.00 0.01 0.01 0.01 0.00 0.00 0.00 0.00 0.00 0.00 0.02 0.06 0.08 0.14 0.19 0.16 0.17 0.16 0.21 0.31 0.46 0.48 0.40 0.40 0.39 0.24 0.30 0.33 0.36 0.45 0.41 0.34 0.31 0.28 0.23 0.22 0.26 0.30 0.30 0.25 0.15
0.00 0.00 0.00 0.00 0.00 0.00 0.00 0.00 0.00 0.00 0.00 0.00 0.00 0.00 0.00 0.00 0.01 0.04 0.15 0.25 0.28 0.30 0.52 0.65 0.72 0.72 0.65 0.57 0.45 0.41 0.37 0.38 0.40 0.40 0.40 0.37 0.34 0.32 0.32 0.24 0.20 0.26 0.31
0.00 0.00 0.00 0.00 0.00 0.00 0.00 0.00 0.00 0.00 0.00 0.00 0.00 0.00 0.00 0.00 0.00 0.00 0.02 0.04 0.09 0.16 0.23 0.27 0.30 0.32 0.40 0.37 0.33 0.36 0.33 0.36 0.41 0.44 0.46 0.52 0.47 0.39 0.32 0.27 0.27 0.29 0.24
0.00 0.01 0.00 0.00 0.00 0.01 0.00 0.01 0.00 0.01 0.01 0.01 0.01 0.01 0.01 0.00 0.00 0.00 0.01 0.05 0.11 0.13 0.16 0.19 0.23 0.23 0.26 0.21 0.20 0.24 0.27 0.28 0.31 0.32 0.35 0.36 0.36 0.39 0.52 0.52 0.49 0.36 0.22
0.00 0.00 0.00 0.00 0.01 0.01 0.00 0.01 0.01 0.01 0.01 0.01 0.01 0.01 0.01 0.01 0.00 0.00 0.00 0.01 0.04 0.10 0.19 0.25 0.29 0.32 0.27 0.28 0.29 0.31 0.40 0.41 0.45 0.34 0.29 0.28 0.23 0.24 0.32 0.42 0.49 0.56 0.47
0.00 0.00 0.00 0.00 0.00 0.00 0.00 0.00 0.00 0.00 0.00 0.00 0.00 0.01 0.01 0.01 0.00 0.00 0.00 0.00 0.01 0.03 0.07 0.16 0.20 0.23 0.25 0.27 0.32 0.43 0.47 0.44 0.44 0.49 0.50 0.48 0.46 0.46 0.45 0.40 0.41 0.48 0.48
0.00 0.00 0.00 0.00 0.00 0.00 0.00 0.00 0.00 0.00 0.00 0.00 0.00 0.01 0.01 0.01 0.01 0.00 0.00 0.00 0.00 0.01 0.04 0.06 0.09 0.12 0.15 0.18 0.25 0.32 0.37 0.38 0.41 0.44 0.47 0.53 0.57 0.55 0.50 0.52 0.53 0.52 0.53
0.00 0.00 0.00 0.00 0.00 0.00 0.00 0.00 0.00 0.01 0.00 0.00 0.01 0.01 0.01 0.01 0.01 0.01 0.01 0.00 0.00 0.01 0.02 0.03 0.04 0.05 0.07 0.12 0.16 0.21 0.30 0.41 0.49 0.54 0.55 0.54 0.54 0.53 0.53 0.56 0.59 0.64 0.63
0.00 0.00 0.00 0.00 0.00 0.00 0.00 0.00 0.00 0.01 0.01 0.01 0.01 0.02 0.03 0.03 0.02 0.01 0.01 0.00 0.01 0.00 0.01 0.01 0.02 0.03 0.04 0.06 0.09 0.13 0.19 0.24 0.30 0.39 0.47 0.53 0.57 0.57 0.59 0.62 0.63 0.63 0.67
0.00 0.00 0.00 0.00 0.00 0.00 0.00 0.00 0.00 0.00 0.00 0.00 0.00 0.01 0.01 0.01 0.00 0.00 0.00 0.00 0.00 0.00 0.00 0.01 0.01 0.02 0.03 0.03 0.05 0.07 0.09 0.13 0.18 0.22 0.26 0.30 0.34 0.39 0.44 0.48 0.51 0.54 0.57
0.00 0.00 0.00 0.00 0.00 0.00 0.00 0.00 0.00 0.00 0.00 0.00 0.00 0.00 0.00 0.00 0.00 0.00 0.00 0.00 0.00 0.00 0.01 0.01 0.02 0.01 0.01 0.01 0.02 0.04 0.07 0.09 0.12 0.14 0.17 0.20 0.24 0.25 0.27 0.29 0.31 0.34 0.37
0.00 0.00 0.00 0.00 0.00 0.00 0.00 0.00 0.00 0.00 0.00 0.00 0.00 0.00 0.00 0.00 0.00 0.00 0.00 0.00 0.00 0.00 0.00 0.01 0.01 0.01 0.01 0.00 0.01 0.02 0.04 0.04 0.05 0.09 0.11 0.15 0.18 0.19 0.21 0.22 0.23 0.24 0.24
0.00 0.00 0.00 0.00 0.00 0.00 0.00 0.00 0.00 0.00 0.00 0.00 0.00 0.00 0.00 0.00 0.00 0.00 0.00 0.01 0.01 0.01 0.00 0.00 0.01 0.01 0.00 0.00 0.02 0.02 0.02 0.02 0.02 0.05 0.05 0.06 0.09 0.11 0.13 0.15 0.17 0.17 0.17
0.00 0.00 0.00 0.00 0.00 0.00 0.00 0.00 0.00 0.00 0.00 0.01 0.01 0.01 0.00 0.00 0.00 0.00 0.01 0.01 0.01 0.01 0.01 0.01 0.01 0.01 0.01 0.01 0.01 0.01 0.02 0.01 0.01 0.02 0.04 0.04 0.04 0.04 0.05 0.05 0.07 0.09 0.09
0.00 0.00 0.00 0.00 0.00 0.00 0.01 0.01 0.01 0.01 0.01 0.01 0.01 0.02 0.00 0.00 0.01 0.00 0.01 0.01 0.01 0.01 0.01 0.01 0.01 0.01 0.00 0.01 0.01 0.01 0.01 0.01 0.01 0.02 0.04 0.04 0.05 0.05 0.04 0.03 0.03 0.03 0.05
0.00 0.00 0.00 0.00 0.00 0.00 0.01 0.01 0.01 0.01 0.01 0.01 0.01 0.01 0.00 0.01 0.01 0.01 0.01 0.02 0.01 0.01 0.01 0.01 0.01 0.00 0.00 0.00 0.01 0.01 0.01 0.01 0.01 0.01 0.02 0.02 0.03 0.03 0.04 0.02 0.01 0.01 0.02
0.00 0.00 0.00 0.00 0.00 0.00 0.00 0.01 0.01 0.01 0.01 0.01 0.01 0.01 0.01 0.02 0.02 0.02 0.02 0.02 0.01 0.01 0.01 0.01 0.01 0.01 0.00 0.00 0.00 0.00 0.00 0.01 0.01 0.02 0.01 0.02 0.02 0.01 0.02 0.01 0.00 0.00 0.01
0.00 0.00 0.00 0.00 0.00 0.00 0.01 0.01 0.01 0.01 0.01 0.01 0.02 0.02 0.02 0.02 0.02 0.02 0.02 0.02 0.01 0.01 0.01 0.01 0.01 0.01 0.00 0.00 0.00 0.00 0.00 0.00 0.01 0.00 0.01 0.02 0.01 0.01 0.01 0.00 0.01 0.00 0.00
0.00 0.01 0.00 0.01 0.01 0.01 0.01 0.01 0.01 0.01 0.01 0.02 0.02 0.02 0.02 0.02 0.02 0.02 0.02 0.02 0.02 0.02 0.01 0.01 0.02 0.01 0.00 0.01 0.00 0.00 0.00 0.00 0.00 0.00 0.01 0.02 0.01 0.01 0.00 0.00 0.00 0.00 0.00
0.01 0.00 0.01 0.01 0.01 0.02 0.02 0.02 0.01 0.01 0.01 0.01 0.01 0.02 0.02 0.02 0.01 0.02 0.02 0.02 0.02 0.01 0.01 0.01 0.01 0.01 0.01 0.01 0.00 0.00 0.00 0.00 0.00 0.00 0.00 0.01 0.00 0.00 0.00 0.00 0.00 0.00 0.00

GFSGL_prec_precacc12_138.txt.gz
Total_Precipitation_Accumulation
0.88 0.69 0.72 0.49 0.65 0.43 0.32 0.25 0.32 0.39 0.54 0.64 0.62 0.65 0.71 0.64 0.62 0.66 0.66 0.84 1.22 1.44 1.21 0.89 0.49 0.45 0.53 0.61 0.59 0.55 0.47 0.44 0.43 0.28 0.18 0.16 0.12 0.07 0.06 0.06 0.08 0.05 0.06
1.38 1.05 0.87 0.88 1.05 0.57 0.33 0.21 0.12 0.19 0.28 0.25 0.23 0.33 0.44 0.46 0.50 0.49 0.60 0.56 0.49 0.53 0.62 0.49 0.24 0.21 0.36 0.52 0.56 0.63 0.69 0.71 0.69 0.48 0.30 0.34 0.40 0.24 0.13 0.08 0.08 0.09 0.07
0.81 1.15 0.91 0.62 0.52 0.62 0.30 0.20 0.07 0.12 0.21 0.16 0.11 0.16 0.23 0.26 0.29 0.36 0.41 0.36 0.44 0.33 0.31 0.28 0.22 0.20 0.24 0.34 0.42 0.47 0.37 0.36 0.41 0.38 0.32 0.33 0.23 0.13 0.08 0.06 0.07 0.10 0.13
0.59 0.48 1.00 0.90 0.23 0.13 0.18 0.12 0.11 0.04 0.09 0.13 0.08 0.08 0.10 0.14 0.20 0.24 0.23 0.16 0.15 0.19 0.21 0.22 0.21 0.22 0.18 0.18 0.17 0.18 0.18 0.22 0.28 0.28 0.22 0.16 0.16 0.22 0.34 0.30 0.19 0.11 0.09
0.44 0.38 0.23 0.30 0.17 0.07 0.03 0.02 0.02 0.03 0.04 0.06 0.09 0.10 0.10 0.10 0.11 0.10 0.10 0.10 0.09 0.11 0.17 0.22 0.28 0.33 0.31 0.24 0.20 0.19 0.26 0.34 0.40 0.42 0.40 0.34 0.28 0.26 0.28 0.29 0.26 0.16 0.13
0.05 0.11 0.16 0.08 0.04 0.02 0.01 0.00 0.01 0.00 0.01 0.02 0.03 0.07 0.09 0.10 0.17 0.15 0.20 0.21 0.20 0.17 0.16 0.19 0.23 0.29 0.21 0.22 0.25 0.26 0.24 0.25 0.29 0.37 0.40 0.37 0.28 0.24 0.23 0.28 0.28 0.33 0.28
0.02 0.01 0.01 0.02 0.02 0.02 0.00 0.00 0.00 0.00 0.00 0.00 0.00 0.00 0.02 0.02 0.02 0.02 0.04 0.05 0.09 0.15 0.19 0.20 0.20 0.23 0.26 0.16 0.28 0.33 0.37 0.46 0.42 0.35 0.35 0.35 0.33 0.32 0.34 0.28 0.23 0.19 0.10
0.00 0.00 0.00 0.00 0.00 0.00 0.00 0.00 0.00 0.00 0.00 0.00 0.00 0.00 0.00 0.00 0.00 0.01 0.03 0.04 0.05 0.08 0.07 0.08 0.09 0.12 0.16 0.18 0.35 0.40 0.36 0.37 0.39 0.40 0.41 0.38 0.37 0.36 0.39 0.33 0.26 0.25 0.25
0.00 0.00 0.00 0.00 0.00 0.00 0.00 0.00 0.00 0.00 0.00 0.00 0.00 0.00 0.00 0.00 0.00 0.00 0.00 0.00 0.00 0.03 0.04 0.06 0.09 0.10 0.16 0.17 0.23 0.33 0.33 0.35 0.38 0.42 0.44 0.47 0.43 0.37 0.32 0.27 0.28 0.28 0.22
0.00 0.00 0.00 0.00 0.00 0.00 0.00 0.00 0.00 0.00 0.00 0.00 0.01 0.01 0.00 0.00 0.00 0.00 0.00 0.00 0.00 0.00 0.01 0.03 0.06 0.08 0.13 0.16 0.16 0.21 0.25 0.28 0.30 0.31 0.33 0.35 0.34 0.38 0.50 0.50 0.49 0.35 0.25
0.00 0.00 0.00 0.00 0.00 0.00 0.00 0.00 0.00 0.00 0.00 0.00 0.00 0.01 0.00 0.00 0.00 0.00 0.00 0.00 0.00 0.01 0.01 0.02 0.04 0.07 0.08 0.10 0.14 0.19 0.27 0.28 0.33 0.29 0.26 0.25 0.22 0.24 0.31 0.40 0.47 0.55 0.47
0.00 0.00 0.00 0.00 0.00 0.00 0.00 0.00 0.00 0.00 0.00 0.00 0.00 0.00 0.00 0.00 0.00 0.00 0.00 0.00 0.00 0.01 0.02 0.02 0.01 0.02 0.04 0.09 0.14 0.20 0.25 0.27 0.25 0.28 0.31 0.30 0.32 0.37 0.38 0.37 0.40 0.47 0.48
0.00 0.00 0.00 0.00 0.00 0.00 0.00 0.00 0.00 0.00 0.00 0.00 0.00 0.00 0.00 0.00 0.00 0.00 0.00 0.00 0.00 0.00 0.01 0.01 0.00 0.00 0.00 0.01 0.03 0.08 0.14 0.21 0.27 0.31 0.33 0.37 0.43 0.44 0.39 0.42 0.47 0.49 0.51
0.00 0.00 0.00 0.00 0.00 0.00 0.00 0.00 0.00 0.00 0.00 0.00 0.00 0.01 0.01 0.00 0.01 0.01 0.00 0.00 0.00 0.00 0.00 0.00 0.00 0.00 0.00 0.00 0.01 0.02 0.06 0.11 0.20 0.29 0.36 0.38 0.38 0.39 0.41 0.43 0.45 0.50 0.51
0.00 0.00 0.00 0.00 0.00 0.00 0.00 0.00 0.00 0.01 0.00 0.00 0.01 0.01 0.02 0.01 0.01 0.01 0.00 0.00 0.01 0.00 0.00 0.00 0.00 0.00 0.00 0.00 0.01 0.01 0.02 0.03 0.06 0.12 0.20 0.30 0.36 0.38 0.40 0.42 0.43 0.45 0.48
0.00 0.00 0.00 0.00 0.00 0.00 0.00 0.00 0.00 0.00 0.00 0.00 0.00 0.00 0.00 0.01 0.00 0.00 0.00 0.00 0.00 0.00 0.00 0.01 0.01 0.01 0.01 0.01 0.01 0.02 0.02 0.03 0.05 0.07 0.09 0.13 0.18 0.24 0.30 0.34 0.38 0.40 0.43
0.00 0.00 0.00 0.00 0.00 0.00 0.00 0.00 0.00 0.00 0.00 0.00 0.00 0.00 0.00 0.00 0.00 0.00 0.00 0.00 0.00 0.00 0.00 0.01 0.01 0.01 0.01 0.01 0.01 0.02 0.04 0.04 0.06 0.07 0.09 0.11 0.14 0.16 0.17 0.20 0.23 0.26 0.30
0.00 0.00 0.00 0.00 0.00 0.00 0.00 0.00 0.00 0.00 0.00 0.00 0.00 0.00 0.00 0.00 0.00 0.00 0.00 0.00 0.00 0.00 0.00 0.01 0.01 0.01 0.00 0.00 0.01 0.02 0.03 0.03 0.04 0.06 0.07 0.10 0.13 0.14 0.15 0.17 0.19 0.21 0.23
0.00 0.00 0.00 0.00 0.00 0.00 0.00 0.00 0.00 0.00 0.00 0.00 0.00 0.00 0.00 0.00 0.00 0.00 0.00 0.00 0.00 0.00 0.00 0.00 0.01 0.01 0.00 0.00 0.01 0.02 0.02 0.02 0.02 0.04 0.05 0.06 0.09 0.11 0.12 0.14 0.16 0.17 0.19
0.00 0.00 0.00 0.00 0.00 0.00 0.00 0.00 0.00 0.00 0.00 0.00 0.00 0.01 0.00 0.00 0.00 0.00 0.00 0.00 0.00 0.00 0.01 0.00 0.00 0.01 0.00 0.00 0.01 0.01 0.01 0.01 0.01 0.02 0.04 0.04 0.04 0.05 0.06 0.06 0.08 0.11 0.12
0.00 0.00 0.00 0.00 0.00 0.00 0.00 0.00 0.00 0.00 0.00 0.00 0.00 0.01 0.00 0.00 0.01 0.00 0.00 0.01 0.01 0.01 0.01 0.01 0.01 0.01 0.00 0.00 0.01 0.01 0.01 0.01 0.00 0.02 0.03 0.04 0.05 0.05 0.04 0.04 0.04 0.05 0.08
0.00 0.00 0.00 0.00 0.00 0.00 0.00 0.00 0.00 0.00 0.00 0.00 0.00 0.00 0.00 0.01 0.01 0.01 0.01 0.01 0.01 0.01 0.01 0.01 0.01 0.00 0.00 0.00 0.01 0.01 0.01 0.01 0.01 0.01 0.01 0.02 0.03 0.03 0.04 0.02 0.02 0.02 0.04
0.00 0.00 0.00 0.00 0.00 0.00 0.00 0.00 0.00 0.00 0.00 0.00 0.01 0.01 0.01 0.01 0.01 0.01 0.01 0.01 0.01 0.01 0.01 0.01 0.01 0.01 0.00 0.00 0.00 0.00 0.00 0.00 0.01 0.01 0.01 0.02 0.02 0.01 0.02 0.01 0.01 0.01 0.02
0.00 0.00 0.00 0.00 0.00 0.00 0.00 0.00 0.00 0.00 0.00 0.01 0.01 0.01 0.01 0.01 0.01 0.02 0.02 0.01 0.01 0.01 0.01 0.01 0.01 0.01 0.00 0.00 0.00 0.00 0.00 0.00 0.00 0.00 0.01 0.03 0.02 0.01 0.01 0.01 0.01 0.00 0.00
0.00 0.00 0.00 0.00 0.00 0.01 0.01 0.01 0.01 0.01 0.01 0.01 0.01 0.01 0.01 0.01 0.01 0.01 0.02 0.01 0.01 0.01 0.01 0.01 0.01 0.01 0.00 0.01 0.00 0.00 0.00 0.00 0.00 0.00 0.00 0.02 0.02 0.01 0.00 0.00 0.00 0.00 0.00
0.00 0.00 0.01 0.01 0.01 0.01 0.01 0.01 0.01 0.01 0.01 0.01 0.01 0.01 0.02 0.02 0.01 0.02 0.02 0.01 0.01 0.00 0.01 0.01 0.01 0.01 0.01 0.01 0.00 0.00 0.00 0.00 0.00 0.00 0.00 0.01 0.00 0.00 0.00 0.00 0.00 0.00 0.00

GFSGL_prec_precacc12_141.txt.gz
Total_Precipitation_Accumulation
0.89 0.74 0.74 0.50 0.65 0.44 0.39 0.36 0.45 0.50 0.67 0.73 0.67 0.66 0.71 0.63 0.68 0.84 0.82 1.06 1.43 1.59 1.40 1.26 1.24 1.35 1.14 1.17 1.23 1.02 0.68 0.56 0.52 0.32 0.21 0.19 0.12 0.09 0.08 0.08 0.08 0.06 0.06
1.43 1.17 1.00 1.01 1.23 0.73 0.61 0.48 0.47 0.51 0.41 0.33 0.29 0.35 0.44 0.51 0.60 0.64 0.77 0.72 0.69 0.74 0.84 0.88 0.90 0.86 0.93 1.08 1.16 1.23 0.89 0.75 0.73 0.52 0.37 0.39 0.44 0.35 0.28 0.23 0.16 0.14 0.07
0.85 1.28 1.04 0.86 1.06 1.26 0.94 0.81 0.35 0.34 0.29 0.28 0.17 0.21 0.26 0.27 0.35 0.44 0.49 0.54 0.62 0.71 0.80 0.76 0.68 0.59 0.57 0.58 0.61 0.62 0.43 0.34 0.40 0.37 0.32 0.34 0.27 0.17 0.11 0.06 0.05 0.04 0.04
0.47 0.45 1.11 1.07 0.35 0.47 0.90 0.64 0.31 0.13 0.19 0.31 0.14 0.11 0.09 0.13 0.21 0.32 0.37 0.33 0.31 0.36 0.39 0.44 0.40 0.34 0.28 0.28 0.25 0.22 0.18 0.21 0.26 0.26 0.20 0.16 0.16 0.23 0.35 0.37 0.24 0.12 0.08
0.36 0.30 0.23 0.37 0.28 0.09 0.08 0.20 0.18 0.05 0.07 0.20 0.08 0.06 0.05 0.05 0.05 0.07 0.11 0.16 0.17 0.15 0.16 0.18 0.21 0.25 0.23 0.19 0.17 0.17 0.24 0.32 0.38 0.40 0.39 0.34 0.28 0.26 0.30 0.34 0.32 0.21 0.12
0.04 0.10 0.16 0.08 0.08 0.07 0.03 0.01 0.01 0.00 0.00 0.01 0.02 0.04 0.07 0.07 0.08 0.07 0.15 0.17 0.18 0.14 0.13 0.14 0.17 0.20 0.15 0.16 0.20 0.22 0.22 0.23 0.27 0.36 0.39 0.37 0.28 0.24 0.24 0.29 0.30 0.31 0.27
0.02 0.01 0.01 0.02 0.02 0.02 0.02 0.01 0.01 0.01 0.00 0.00 0.00 0.00 0.01 0.01 0.01 0.01 0.01 0.03 0.06 0.11 0.15 0.16 0.16 0.17 0.17 0.11 0.15 0.17 0.21 0.31 0.32 0.31 0.34 0.35 0.33 0.32 0.34 0.27 0.21 0.18 0.10
0.00 0.00 0.00 0.00 0.00 0.00 0.00 0.00 0.00 0.00 0.00 0.00 0.00 0.00 0.00 0.00 0.00 0.00 0.00 0.00 0.00 0.00 0.00 0.00 0.01 0.03 0.03 0.03 0.02 0.03 0.05 0.10 0.17 0.25 0.37 0.37 0.37 0.35 0.39 0.33 0.26 0.23 0.17
0.00 0.00 0.00 0.00 0.00 0.00 0.00 0.00 0.00 0.00 0.00 0.00 0.00 0.00 0.00 0.00 0.00 0.00 0.00 0.00 0.00 0.00 0.00 0.00 0.01 0.01 0.02 0.01 0.00 0.02 0.04 0.09 0.16 0.27 0.34 0.39 0.38 0.33 0.28 0.25 0.26 0.27 0.19
0.00 0.00 0.00 0.00 0.00 0.00 0.00 0.00 0.00 0.00 0.00 0.00 0.00 0.00 0.00 0.00 0.00 0.00 0.00 0.00 0.00 0.00 0.00 0.00 0.00 0.00 0.00 0.01 0.00 0.04 0.08 0.12 0.14 0.17 0.24 0.29 0.30 0.33 0.40 0.43 0.47 0.34 0.24
0.00 0.00 0.00 0.00 0.00 0.00 0.00 0.00 0.00 0.00 0.00 0.00 0.00 0.00 0.00 0.00 0.00 0.00 0.00 0.00 0.00 0.00 0.00 0.01 0.00 0.00 0.00 0.00 0.00 0.01 0.05 0.08 0.12 0.13 0.12 0.15 0.16 0.21 0.27 0.35 0.43 0.50 0.44
0.00 0.00 0.00 0.00 0.00 0.00 0.00 0.00 0.00 0.00 0.00 0.00 0.00 0.00 0.00 0.00 0.00 0.00 0.00 0.00 0.00 0.00 0.01 0.01 0.00 0.00 0.00 0.00 0.00 0.00 0.02 0.05 0.08 0.11 0.13 0.15 0.18 0.27 0.30 0.29 0.33 0.41 0.42
0.00 0.00 0.00 0.00 0.00 0.00 0.00 0.00 0.00 0.00 0.00 0.00 0.00 0.00 0.00 0.00 0.00 0.00 0.00 0.00 0.00 0.00 0.01 0.01 0.00 0.00 0.00 0.00 0.00 0.00 0.00 0.01 0.04 0.08 0.13 0.16 0.18 0.19 0.21 0.26 0.31 0.34 0.37
0.00 0.00 0.00 0.00 0.00 0.00 0.00 0.00 0.00 0.00 0.00 0.00 0.00 0.00 0.00 0.00 0.01 0.00 0.00 0.00 0.00 0.00 0.00 0.00 0.00 0.00 0.00 0.00 0.00 0.00 0.00 0.01 0.03 0.05 0.08 0.10 0.13 0.15 0.18 0.21 0.24 0.28 0.31
0.00 0.00 0.00 0.00 0.00 0.00 0.00 0.00 0.00 0.01 0.01 0.00 0.00 0.00 0.00 0.00 0.00 0.00 0.00 0.00 0.00 0.00 0.00 0.00 0.00 0.00 0.00 0.00 0.00 0.00 0.00 0.00 0.01 0.02 0.02 0.04 0.06 0.10 0.13 0.16 0.20 0.25 0.30
0.00 0.00 0.00 0.00 0.00 0.00 0.00 0.00 0.00 0.00 0.01 0.00 0.00 0.00 0.00 0.00 0.00 0.00 0.00 0.00 0.00 0.00 0.00 0.00 0.00 0.00 0.00 0.00 0.01 0.01 0.00 0.01 0.02 0.02 0.02 0.03 0.03 0.05 0.07 0.10 0.13 0.17 0.21
0.00 0.00 0.00 0.00 0.00 0.00 0.00 0.00 0.00 0.00 0.00 0.00 0.00 0.00 0.00 0.00 0.00 0.00 0.00 0.00 0.00 0.00 0.00 0.01 0.01 0.01 0.00 0.00 0.00 0.01 0.02 0.02 0.02 0.03 0.03 0.04 0.04 0.04 0.04 0.06 0.07 0.10 0.14
0.00 0.00 0.00 0.00 0.00 0.00 0.00 0.00 0.00 0.00 0.00 0.00 0.00 0.00 0.00 0.00 0.00 0.00 0.00 0.00 0.00 0.00 0.00 0.00 0.01 0.01 0.00 0.00 0.01 0.01 0.02 0.01 0.02 0.03 0.04 0.05 0.06 0.06 0.06 0.07 0.08 0.10 0.11
0.00 0.00 0.00 0.00 0.00 0.00 0.00 0.00 0.00 0.00 0.00 0.00 0.00 0.00 0.00 0.00 0.00 0.00 0.00 0.00 0.00 0.00 0.00 0.00 0.00 0.01 0.00 0.00 0.01 0.01 0.02 0.01 0.02 0.03 0.04 0.05 0.07 0.08 0.07 0.08 0.09 0.10 0.11
0.00 0.00 0.00 0.00 0.00 0.00 0.00 0.00 0.00 0.00 0.00 0.00 0.00 0.01 0.00 0.00 0.00 0.00 0.00 0.00 0.00 0.00 0.00 0.00 0.00 0.01 0.00 0.00 0.00 0.01 0.01 0.01 0.01 0.02 0.04 0.04 0.04 0.05 0.06 0.06 0.07 0.10 0.10
0.00 0.00 0.00 0.00 0.00 0.00 0.00 0.00 0.00 0.00 0.00 0.00 0.00 0.00 0.00 0.00 0.00 0.00 0.00 0.00 0.00 0.00 0.00 0.00 0.00 0.00 0.00 0.00 0.00 0.00 0.00 0.00 0.00 0.01 0.03 0.04 0.05 0.05 0.04 0.04 0.04 0.05 0.08
0.00 0.00 0.00 0.00 0.00 0.00 0.00 0.00 0.00 0.00 0.00 0.00 0.00 0.00 0.00 0.00 0.01 0.00 0.00 0.01 0.01 0.00 0.01 0.00 0.01 0.00 0.00 0.00 0.01 0.01 0.00 0.00 0.00 0.00 0.00 0.02 0.03 0.03 0.04 0.02 0.02 0.03 0.04
0.00 0.00 0.00 0.00 0.00 0.00 0.00 0.00 0.00 0.00 0.00 0.00 0.00 0.00 0.00 0.01 0.01 0.01 0.01 0.01 0.00 0.00 0.01 0.00 0.00 0.00 0.00 0.00 0.00 0.00 0.00 0.00 0.00 0.01 0.01 0.01 0.02 0.01 0.02 0.01 0.01 0.01 0.03
0.00 0.00 0.00 0.00 0.00 0.00 0.00 0.00 0.00 0.00 0.00 0.00 0.00 0.01 0.01 0.00 0.01 0.01 0.01 0.01 0.00 0.00 0.01 0.00 0.01 0.01 0.00 0.00 0.00 0.00 0.00 0.00 0.00 0.00 0.01 0.03 0.02 0.01 0.00 0.00 0.01 0.00 0.00
0.00 0.00 0.00 0.00 0.00 0.00 0.00 0.00 0.00 0.01 0.01 0.01 0.01 0.01 0.01 0.01 0.01 0.01 0.01 0.01 0.01 0.01 0.00 0.00 0.01 0.00 0.00 0.01 0.00 0.00 0.00 0.00 0.00 0.00 0.00 0.02 0.02 0.00 0.00 0.00 0.01 0.00 0.00
0.00 0.00 0.00 0.00 0.00 0.01 0.01 0.02 0.01 0.01 0.01 0.01 0.01 0.00 0.01 0.02 0.01 0.01 0.02 0.02 0.02 0.00 0.00 0.00 0.00 0.00 0.00 0.01 0.00 0.00 0.00 0.00 0.00 0.00 0.00 0.01 0.00 0.00 0.00 0.00 0.00 0.00 0.00

GFSGL_prec_precacc12_144.txt.gz
Total_Precipitation_Accumulation
0.67 0.58 0.72 0.51 0.60 0.42 0.31 0.31 0.39 0.48 0.67 0.76 0.72 0.72 0.76 0.64 0.68 0.84 0.90 1.11 1.39 1.55 1.46 1.45 1.62 1.76 1.56 1.35 1.26 1.03 0.84 0.85 0.89 0.58 0.40 0.34 0.21 0.10 0.11 0.11 0.09 0.06 0.06
1.37 1.17 1.02 1.10 1.27 0.75 0.65 0.53 0.60 0.66 0.60 0.49 0.48 0.51 0.57 0.58 0.62 0.64 0.82 0.82 0.77 0.82 0.91 0.93 1.01 1.06 1.11 1.18 1.21 1.22 1.19 1.22 1.20 1.05 0.80 0.81 0.66 0.35 0.28 0.23 0.16 0.14 0.08
0.79 1.19 0.95 0.88 1.14 1.44 1.25 1.13 0.84 0.76 0.73 0.75 0.52 0.46 0.38 0.35 0.40 0.45 0.50 0.55 0.62 0.69 0.78 0.72 0.67 0.64 0.65 0.62 0.60 0.58 0.59 0.61 0.66 0.68 0.72 0.68 0.39 0.17 0.11 0.06 0.05 0.04 0.03
0.43 0.43 1.05 1.03 0.35 0.52 1.04 0.84 0.65 0.52 0.66 0.97 0.88 0.74 0.50 0.27 0.28 0.35 0.38 0.36 0.37 0.42 0.43 0.46 0.50 0.48 0.42 0.40 0.43 0.43 0.39 0.39 0.38 0.37 0.31 0.25 0.21 0.24 0.35 0.37 0.24 0.12 0.07
0.21 0.19 0.17 0.35 0.27 0.08 0.09 0.25 0.24 0.15 0.26 0.74 0.66 0.50 0.37 0.19 0.09 0.06 0.09 0.16 0.22 0.19 0.14 0.13 0.15 0.18 0.18 0.17 0.15 0.13 0.15 0.16 0.16 0.20 0.35 0.36 0.30 0.27 0.30 0.34 0.32 0.21 0.11
0.01 0.06 0.11 0.07 0.07 0.07 0.04 0.03 0.03 0.00 0.01 0.05 0.03 0.03 0.06 0.02 0.02 0.02 0.02 0.03 0.03 0.03 0.04 0.06 0.06 0.08 0.08 0.10 0.15 0.17 0.16 0.16 0.19 0.26 0.35 0.35 0.27 0.24 0.24 0.29 0.30 0.30 0.23
0.01 0.00 0.01 0.02 0.02 0.03 0.02 0.01 0.02 0.02 0.00 0.00 0.00 0.00 0.00 0.00 0.00 0.00 0.01 0.01 0.02 0.03 0.03 0.02 0.03 0.05 0.06 0.07 0.10 0.13 0.17 0.23 0.19 0.15 0.17 0.23 0.25 0.26 0.26 0.19 0.20 0.18 0.11
0.00 0.00 0.00 0.00 0.00 0.00 0.00 0.00 0.00 0.00 0.00 0.00 0.00 0.00 0.00 0.00 0.00 0.00 0.00 0.00 0.00 0.00 0.00 0.00 0.00 0.00 0.00 0.00 0.00 0.00 0.01 0.04 0.07 0.08 0.09 0.09 0.15 0.22 0.31 0.29 0.24 0.23 0.17
0.00 0.00 0.00 0.00 0.00 0.00 0.00 0.00 0.00 0.00 0.00 0.00 0.00 0.00 0.00 0.00 0.00 0.00 0.00 0.00 0.00 0.00 0.00 0.00 0.00 0.00 0.00 0.00 0.00 0.00 0.00 0.00 0.00 0.00 0.00 0.01 0.04 0.10 0.17 0.18 0.20 0.23 0.18
0.00 0.00 0.00 0.00 0.00 0.00 0.00 0.00 0.00 0.00 0.00 0.00 0.00 0.00 0.00 0.00 0.00 0.00 0.00 0.00 0.00 0.00 0.00 0.00 0.00 0.00 0.00 0.00 0.00 0.00 0.01 0.01 0.00 0.00 0.00 0.00 0.02 0.06 0.16 0.20 0.26 0.24 0.20
0.00 0.00 0.00 0.00 0.00 0.00 0.00 0.00 0.00 0.00 0.00 0.00 0.00 0.00 0.00 0.00 0.00 0.00 0.00 0.00 0.00 0.00 0.00 0.00 0.00 0.00 0.00 0.00 0.00 0.00 0.01 0.00 0.00 0.00 0.00 0.00 0.02 0.06 0.12 0.16 0.18 0.25 0.28
0.00 0.00 0.00 0.00 0.00 0.00 0.00 0.00 0.00 0.00 0.00 0.00 0.00 0.00 0.00 0.00 0.00 0.00 0.00 0.00 0.00 0.00 0.01 0.01 0.00 0.00 0.00 0.00 0.00 0.00 0.00 0.00 0.00 0.00 0.00 0.01 0.02 0.05 0.09 0.12 0.16 0.20 0.24
0.00 0.00 0.00 0.00 0.00 0.00 0.00 0.00 0.00 0.00 0.00 0.00 0.00 0.00 0.00 0.00 0.00 0.00 0.00 0.00 0.00 0.00 0.00 0.00 0.00 0.00 0.00 0.00 0.00 0.00 0.00 0.00 0.00 0.01 0.01 0.01 0.01 0.02 0.04 0.06 0.11 0.16 0.22
0.00 0.00 0.00 0.00 0.00 0.00 0.00 0.00 0.00 0.00 0.00 0.00 0.00 0.00 0.00 0.00 0.01 0.00 0.00 0.00 0.00 0.00 0.00 0.00 0.00 0.00 0.00 0.00 0.00 0.00 0.00 0.00 0.01 0.01 0.01 0.00 0.00 0.00 0.01 0.02 0.05 0.09 0.12
0.00 0.00 0.00 0.00 0.00 0.00 0.00 0.00 0.00 0.02 0.01 0.00 0.00 0.00 0.00 0.00 0.00 0.00 0.00 0.00 0.00 0.00 0.00 0.00 0.00 0.00 0.00 0.00 0.00 0.00 0.00 0.00 0.00 0.01 0.01 0.01 0.00 0.00 0.00 0.01 0.02 0.04 0.07
0.00 0.00 0.00 0.00 0.00 0.00 0.00 0.00 0.00 0.00 0.01 0.00 0.00 0.00 0.00 0.00 0.00 0.00 0.00 0.00 0.00 0.00 0.00 0.00 0.00 0.00 0.00 0.00 0.00 0.00 0.00 0.00 0.01 0.01 0.01 0.01 0.01 0.01 0.01 0.01 0.02 0.04 0.06
0.00 0.00 0.00 0.00 0.00 0.00 0.00 0.00 0.00 0.00 0.00 0.00 0.00 0.00 0.00 0.00 0.00 0.00 0.00 0.00 0.00 0.00 0.00 0.00 0.00 0.00 0.00 0.00 0.00 0.00 0.01 0.01 0.01 0.01 0.01 0.02 0.03 0.01 0.01 0.02 0.02 0.03 0.04
0.00 0.00 0.00 0.00 0.00 0.00 0.00 0.00 0.00 0.00 0.00 0.00 0.00 0.00 0.00 0.00 0.00 0.00 0.00 0.00 0.00 0.00 0.00 0.00 0.00 0.00 0.00 0.00 0.00 0.00 0.01 0.00 0.00 0.01 0.01 0.02 0.03 0.03 0.03 0.03 0.03 0.05 0.05
0.00 0.00 0.00 0.00 0.00 0.00 0.00 0.00 0.00 0.00 0.00 0.00 0.00 0.00 0.00 0.00 0.00 0.00 0.00 0.00 0.00 0.00 0.00 0.00 0.00 0.00 0.00 0.00 0.00 0.00 0.01 0.00 0.00 0.01 0.01 0.02 0.03 0.04 0.04 0.04 0.05 0.05 0.05
0.00 0.00 0.00 0.00 0.00 0.00 0.00 0.00 0.00 0.00 0.00 0.00 0.00 0.00 0.00 0.00 0.00 0.00 0.00 0.00 0.00 0.00 0.00 0.00 0.00 0.00 0.00 0.00 0.00 0.00 0.00 0.00 0.00 0.01 0.01 0.02 0.03 0.04 0.05 0.05 0.05 0.07 0.07
0.00 0.00 0.00 0.00 0.00 0.00 0.00 0.00 0.00 0.00 0.00 0.00 0.00 0.00 0.00 0.00 0.00 0.00 0.00 0.00 0.00 0.00 0.00 0.00 0.00 0.00 0.00 0.00 0.00 0.00 0.00 0.00 0.00 0.00 0.01 0.02 0.03 0.04 0.04 0.04 0.04 0.05 0.08
0.00 0.00 0.00 0.00 0.00 0.00 0.00 0.00 0.00 0.00 0.00 0.00 0.00 0.00 0.00 0.00 0.00 0.00 0.00 0.00 0.00 0.00 0.00 0.00 0.00 0.00 0.00 0.00 0.00 0.00 0.00 0.00 0.00 0.00 0.00 0.00 0.01 0.02 0.03 0.02 0.02 0.03 0.04
0.00 0.00 0.00 0.00 0.00 0.00 0.00 0.00 0.00 0.00 0.00 0.00 0.00 0.00 0.00 0.00 0.00 0.00 0.00 0.00 0.00 0.00 0.00 0.00 0.00 0.00 0.00 0.00 0.00 0.00 0.00 0.00 0.00 0.00 0.00 0.01 0.01 0.01 0.02 0.01 0.01 0.02 0.03
0.00 0.00 0.00 0.00 0.00 0.00 0.00 0.00 0.00 0.00 0.00 0.00 0.00 0.00 0.00 0.00 0.00 0.00 0.00 0.00 0.00 0.00 0.00 0.00 0.01 0.01 0.00 0.00 0.00 0.00 0.00 0.00 0.00 0.00 0.01 0.02 0.01 0.01 0.00 0.00 0.00 0.00 0.00
0.00 0.00 0.00 0.00 0.00 0.00 0.00 0.00 0.00 0.00 0.00 0.00 0.00 0.00 0.00 0.00 0.00 0.00 0.00 0.00 0.00 0.01 0.00 0.00 0.01 0.01 0.01 0.01 0.00 0.00 0.00 0.00 0.00 0.00 0.00 0.01 0.01 0.00 0.00 0.00 0.00 0.00 0.00
0.00 0.00 0.00 0.00 0.00 0.00 0.00 0.01 0.01 0.01 0.00 0.00 0.00 0.00 0.00 0.01 0.00 0.00 0.01 0.01 0.01 0.00 0.00 0.00 0.00 0.01 0.01 0.01 0.00 0.00 0.00 0.00 0.00 0.00 0.00 0.00 0.00 0.00 0.00 0.00 0.00 0.00 0.00

GFSGL_prec_precacc12_147.txt.gz
Total_Precipitation_Accumulation
0.18 0.28 0.27 0.27 0.31 0.31 0.31 0.31 0.31 0.30 0.32 0.30 0.27 0.41 0.56 0.53 0.66 0.84 0.88 1.12 1.37 1.50 1.37 1.36 1.60 1.83 1.64 1.54 1.46 1.25 1.03 0.88 0.90 0.63 0.39 0.34 0.27 0.14 0.15 0.14 0.11 0.07 0.07
0.52 0.61 0.62 0.92 1.15 0.64 0.65 0.56 0.62 0.65 0.57 0.39 0.34 0.33 0.48 0.64 0.74 0.79 0.88 0.87 0.80 0.85 0.94 0.95 1.02 1.09 1.13 1.15 1.27 1.45 1.41 1.13 0.98 0.96 0.82 0.79 0.80 0.61 0.45 0.31 0.20 0.16 0.10
0.43 0.72 0.72 0.78 1.12 1.43 1.17 1.04 0.86 0.80 0.87 0.97 0.73 0.59 0.54 0.56 0.59 0.59 0.58 0.64 0.71 0.86 0.87 0.88 0.88 0.80 0.81 0.81 0.75 0.67 0.68 0.76 0.83 0.80 0.88 0.82 0.62 0.44 0.34 0.27 0.24 0.17 0.07
0.21 0.26 0.72 0.86 0.33 0.52 1.04 0.77 0.61 0.59 0.80 1.22 1.39 1.40 1.15 0.86 0.88 0.75 0.60 0.68 0.58 0.66 0.57 0.49 0.59 0.67 0.62 0.59 0.61 0.57 0.48 0.44 0.43 0.49 0.48 0.43 0.37 0.39 0.47 0.50 0.36 0.25 0.18
0.02 0.02 0.05 0.26 0.25 0.08 0.09 0.25 0.24 0.16 0.31 0.88 0.92 0.99 0.82 0.60 0.52 0.24 0.23 0.39 0.55 0.32 0.18 0.14 0.13 0.13 0.13 0.12 0.11 0.13 0.19 0.24 0.26 0.26 0.27 0.27 0.27 0.27 0.31 0.34 0.32 0.22 0.11
0.00 0.01 0.02 0.03 0.05 0.07 0.04 0.03 0.03 0.00 0.02 0.07 0.05 0.09 0.26 0.20 0.11 0.04 0.02 0.04 0.04 0.02 0.01 0.00 0.00 0.01 0.03 0.03 0.03 0.02 0.01 0.03 0.08 0.16 0.21 0.20 0.15 0.15 0.20 0.27 0.29 0.28 0.22
0.00 0.00 0.00 0.01 0.01 0.01 0.02 0.01 0.02 0.02 0.00 0.00 0.00 0.00 0.00 0.01 0.01 0.02 0.00 0.00 0.00 0.00 0.00 0.00 0.00 0.00 0.00 0.00 0.00 0.01 0.01 0.02 0.02 0.03 0.05 0.08 0.11 0.11 0.11 0.09 0.11 0.13 0.09
0.00 0.00 0.00 0.00 0.00 0.00 0.00 0.00 0.00 0.00 0.00 0.00 0.00 0.00 0.00 0.00 0.00 0.00 0.00 0.00 0.00 0.00 0.00 0.00 0.00 0.00 0.00 0.00 0.00 0.00 0.00 0.00 0.00 0.01 0.02 0.02 0.04 0.05 0.08 0.11 0.10 0.11 0.08
0.00 0.00 0.00 0.00 0.00 0.00 0.00 0.00 0.00 0.00 0.00 0.00 0.00 0.00 0.00 0.00 0.00 0.00 0.00 0.00 0.00 0.00 0.00 0.00 0.00 0.00 0.00 0.00 0.00 0.00 0.00 0.00 0.00 0.00 0.00 0.00 0.00 0.00 0.00 0.01 0.02 0.02 0.03
0.00 0.00 0.00 0.00 0.00 0.00 0.00 0.00 0.00 0.00 0.00 0.00 0.00 0.00 0.00 0.00 0.00 0.00 0.00 0.00 0.00 0.00 0.00 0.00 0.00 0.00 0.00 0.00 0.00 0.00 0.01 0.01 0.00 0.00 0.00 0.00 0.00 0.00 0.00 0.00 0.02 0.02 0.06
0.00 0.00 0.00 0.00 0.00 0.00 0.00 0.00 0.00 0.00 0.00 0.00 0.00 0.00 0.00 0.00 0.00 0.00 0.00 0.00 0.00 0.00 0.00 0.00 0.00 0.00 0.00 0.00 0.00 0.00 0.01 0.00 0.00 0.00 0.00 0.00 0.00 0.00 0.00 0.00 0.00 0.02 0.04
0.00 0.00 0.00 0.00 0.00 0.00 0.00 0.00 0.00 0.00 0.00 0.00 0.00 0.00 0.00 0.00 0.00 0.00 0.00 0.00 0.00 0.00 0.00 0.00 0.00 0.00 0.00 0.00 0.00 0.00 0.00 0.00 0.00 0.00 0.00 0.00 0.00 0.00 0.00 0.00 0.00 0.00 0.02
0.00 0.00 0.00 0.00 0.00 0.00 0.00 0.00 0.00 0.00 0.00 0.00 0.00 0.00 0.00 0.00 0.00 0.00 0.00 0.00 0.00 0.00 0.00 0.00 0.00 0.00 0.00 0.00 0.00 0.00 0.00 0.00 0.00 0.01 0.01 0.00 0.00 0.00 0.00 0.00 0.00 0.00 0.01
0.00 0.00 0.00 0.00 0.00 0.00 0.00 0.00 0.00 0.00 0.00 0.00 0.00 0.00 0.00 0.00 0.01 0.00 0.00 0.00 0.00 0.00 0.00 0.00 0.00 0.00 0.00 0.00 0.00 0.00 0.00 0.00 0.01 0.01 0.01 0.00 0.00 0.00 0.00 0.00 0.00 0.00 0.00
0.00 0.00 0.00 0.00 0.00 0.00 0.00 0.00 0.00 0.02 0.01 0.00 0.00 0.00 0.00 0.00 0.01 0.00 0.00 0.00 0.00 0.00 0.00 0.00 0.00 0.00 0.00 0.00 0.00 0.00 0.00 0.00 0.00 0.00 0.01 0.01 0.00 0.00 0.00 0.00 0.00 0.00 0.00
0.00 0.00 0.00 0.00 0.00 0.00 0.00 0.00 0.00 0.00 0.01 0.00 0.00 0.00 0.00 0.00 0.00 0.00 0.00 0.00 0.00 0.00 0.00 0.00 0.00 0.00 0.00 0.00 0.00 0.00 0.00 0.00 0.00 0.00 0.00 0.01 0.01 0.01 0.00 0.00 0.00 0.00 0.01
0.00 0.00 0.00 0.00 0.00 0.00 0.00 0.00 0.00 0.00 0.00 0.00 0.00 0.00 0.00 0.00 0.00 0.00 0.00 0.00 0.00 0.00 0.00 0.00 0.00 0.00 0.00 0.00 0.00 0.00 0.00 0.00 0.00 0.00 0.00 0.01 0.01 0.00 0.00 0.00 0.01 0.01 0.01
0.00 0.00 0.00 0.00 0.00 0.00 0.00 0.00 0.00 0.00 0.00 0.00 0.00 0.00 0.00 0.00 0.00 0.00 0.00 0.00 0.00 0.00 0.00 0.00 0.00 0.00 0.00 0.00 0.00 0.00 0.00 0.00 0.00 0.00 0.00 0.00 0.01 0.01 0.01 0.01 0.01 0.02 0.02
0.00 0.00 0.00 0.00 0.00 0.00 0.00 0.00 0.00 0.00 0.00 0.00 0.00 0.00 0.00 0.00 0.00 0.00 0.00 0.00 0.00 0.00 0.00 0.00 0.00 0.00 0.00 0.00 0.00 0.00 0.00 0.00 0.00 0.00 0.00 0.00 0.01 0.01 0.01 0.01 0.01 0.01 0.02
0.00 0.00 0.00 0.00 0.00 0.00 0.00 0.00 0.00 0.00 0.00 0.00 0.00 0.00 0.00 0.00 0.00 0.00 0.00 0.00 0.00 0.00 0.00 0.00 0.00 0.00 0.00 0.00 0.00 0.00 0.00 0.00 0.00 0.00 0.00 0.00 0.00 0.01 0.01 0.02 0.02 0.03 0.03
0.00 0.00 0.00 0.00 0.00 0.00 0.00 0.00 0.00 0.00 0.00 0.00 0.00 0.00 0.00 0.00 0.00 0.00 0.00 0.00 0.00 0.00 0.00 0.00 0.00 0.00 0.00 0.00 0.00 0.00 0.00 0.00 0.00 0.00 0.00 0.00 0.01 0.00 0.00 0.01 0.02 0.02 0.03
0.00 0.00 0.00 0.00 0.00 0.00 0.00 0.00 0.00 0.00 0.00 0.00 0.00 0.00 0.00 0.00 0.00 0.00 0.00 0.00 0.00 0.00 0.00 0.00 0.00 0.00 0.00 0.00 0.00 0.00 0.00 0.00 0.00 0.00 0.00 0.00 0.00 0.00 0.00 0.00 0.01 0.01 0.02
0.00 0.00 0.00 0.00 0.00 0.00 0.00 0.00 0.00 0.00 0.00 0.00 0.00 0.00 0.00 0.00 0.00 0.00 0.00 0.00 0.00 0.00 0.00 0.00 0.01 0.01 0.00 0.01 0.01 0.00 0.00 0.00 0.00 0.00 0.00 0.00 0.00 0.00 0.01 0.01 0.01 0.01 0.02
0.00 0.00 0.00 0.00 0.00 0.00 0.00 0.00 0.00 0.00 0.00 0.00 0.00 0.00 0.00 0.00 0.00 0.00 0.00 0.00 0.00 0.00 0.00 0.00 0.01 0.01 0.01 0.01 0.01 0.01 0.00 0.00 0.00 0.00 0.01 0.01 0.01 0.00 0.00 0.01 0.00 0.01 0.00
0.00 0.00 0.00 0.00 0.00 0.00 0.00 0.00 0.00 0.00 0.00 0.01 0.00 0.00 0.00 0.00 0.00 0.00 0.00 0.00 0.00 0.01 0.00 0.00 0.00 0.01 0.01 0.01 0.01 0.00 0.00 0.01 0.01 0.00 0.00 0.00 0.01 0.00 0.00 0.00 0.00 0.00 0.00
0.00 0.00 0.00 0.00 0.00 0.00 0.01 0.01 0.01 0.01 0.00 0.00 0.00 0.00 0.00 0.01 0.00 0.00 0.01 0.01 0.01 0.00 0.00 0.00 0.00 0.01 0.01 0.00 0.00 0.00 0.01 0.01 0.01 0.00 0.00 0.00 0.00 0.00 0.00 0.00 0.00 0.00 0.00